<?xml version="1.0" encoding="UTF-8" standalone="no" ?>
<gpx xmlns="http://www.topografix.com/GPX/1/1" xmlns:xsi="http://www.w3.org/2001/XMLSchema-instance" xsi:schemaLocation="http://www.topografix.com/GPX/1/1 http://www.topografix.com/GPX/1/1/gpx.xsd" version="1.1" creator="VisuGPX - https://www.visugpx.com">
  <metadata>
    <name>Ajout Pyrénées</name>
    <desc><![CDATA[Randonnée sur le GR®654 Via Lemovicensis vers Saint-Jacques-de-Compostelle à travers les Landes et les Pyrénées-Atlantiques de Mont-de-Marsan à Saint-Palais. Gîtes d'étapes, Chambres d'hôtes, Maison d'hôtes, Hôtels, Camping, Refuges, Auberges, Commerces.]]></desc>
  </metadata>
  <trk>
    <name><![CDATA[GR®654 De Mont-de-Marsan (Landes) à Saint-Palais (Pyrénées-Atlantiques) (2021)]]></name>
    <desc><![CDATA[Randonnée sur le GR®654 Via Lemovicensis vers Saint-Jacques-de-Compostelle à travers les Landes et les Pyrénées-Atlantiques de Mont-de-Marsan à Saint-Palais. Gîtes d'étapes, Chambres d'hôtes, Maison d'hôtes, Hôtels, Camping, Refuges, Auberges, Commerces.]]></desc>
    <extensions>
      <line xmlns="http://www.topografix.com/GPX/gpx_style/0/2">
        <color>000000</color>
        <width>4</width>
      </line>
    </extensions>
    <trkseg>
      <trkpt lat="43.89026" lon="-0.50127">
        <ele>47.571</ele>
        <time>2021-04-27T09:40:02Z</time>
      </trkpt>
      <trkpt lat="43.88995" lon="-0.50125">
        <ele>48.141</ele>
        <time>2021-04-27T09:40:22Z</time>
      </trkpt>
      <trkpt lat="43.88967" lon="-0.50116">
        <ele>48.815</ele>
        <time>2021-04-27T09:40:42Z</time>
      </trkpt>
      <trkpt lat="43.88777" lon="-0.50022">
        <ele>52.608</ele>
        <time>2021-04-27T09:41:02Z</time>
      </trkpt>
      <trkpt lat="43.88746" lon="-0.5">
        <ele>53.324</ele>
        <time>2021-04-27T09:41:22Z</time>
      </trkpt>
      <trkpt lat="43.88721" lon="-0.50013">
        <ele>54.618</ele>
        <time>2021-04-27T09:41:42Z</time>
      </trkpt>
      <trkpt lat="43.88703" lon="-0.50007">
        <ele>55.814</ele>
        <time>2021-04-27T09:42:02Z</time>
      </trkpt>
      <trkpt lat="43.88689" lon="-0.49979">
        <ele>56.987</ele>
        <time>2021-04-27T09:42:22Z</time>
      </trkpt>
      <trkpt lat="43.8815" lon="-0.49668">
        <ele>76.65</ele>
        <time>2021-04-27T09:42:42Z</time>
      </trkpt>
      <trkpt lat="43.87832" lon="-0.49487">
        <ele>71.812</ele>
        <time>2021-04-27T09:43:02Z</time>
      </trkpt>
      <trkpt lat="43.86955" lon="-0.48981">
        <ele>77.05</ele>
        <time>2021-04-27T09:43:22Z</time>
      </trkpt>
      <trkpt lat="43.86921" lon="-0.48959">
        <ele>78.925</ele>
        <time>2021-04-27T09:43:42Z</time>
      </trkpt>
      <trkpt lat="43.86899" lon="-0.48932">
        <ele>80.511</ele>
        <time>2021-04-27T09:44:02Z</time>
      </trkpt>
      <trkpt lat="43.86871" lon="-0.48951">
        <ele>77.821</ele>
        <time>2021-04-27T09:44:22Z</time>
      </trkpt>
      <trkpt lat="43.86879" lon="-0.4912">
        <ele>79.103</ele>
        <time>2021-04-27T09:44:42Z</time>
      </trkpt>
      <trkpt lat="43.86785" lon="-0.4915">
        <ele>81.608</ele>
        <time>2021-04-27T09:45:02Z</time>
      </trkpt>
      <trkpt lat="43.86715" lon="-0.49163">
        <ele>84.288</ele>
        <time>2021-04-27T09:45:22Z</time>
      </trkpt>
      <trkpt lat="43.86625" lon="-0.49168">
        <ele>84.682</ele>
        <time>2021-04-27T09:45:42Z</time>
      </trkpt>
      <trkpt lat="43.86583" lon="-0.49157">
        <ele>82.848</ele>
        <time>2021-04-27T09:46:02Z</time>
      </trkpt>
      <trkpt lat="43.86568" lon="-0.49174">
        <ele>84.331</ele>
        <time>2021-04-27T09:46:22Z</time>
      </trkpt>
      <trkpt lat="43.86554" lon="-0.492">
        <ele>86.754</ele>
        <time>2021-04-27T09:46:42Z</time>
      </trkpt>
      <trkpt lat="43.86551" lon="-0.49213">
        <ele>87.686</ele>
        <time>2021-04-27T09:47:02Z</time>
      </trkpt>
      <trkpt lat="43.86438" lon="-0.49256">
        <ele>89.184</ele>
        <time>2021-04-27T09:47:22Z</time>
      </trkpt>
      <trkpt lat="43.86251" lon="-0.49337">
        <ele>92.889</ele>
        <time>2021-04-27T09:47:42Z</time>
      </trkpt>
      <trkpt lat="43.86203" lon="-0.49354">
        <ele>93.422</ele>
        <time>2021-04-27T09:48:02Z</time>
      </trkpt>
      <trkpt lat="43.86064" lon="-0.49389">
        <ele>92.662</ele>
        <time>2021-04-27T09:48:22Z</time>
      </trkpt>
      <trkpt lat="43.86054" lon="-0.49393">
        <ele>92.608</ele>
        <time>2021-04-27T09:48:42Z</time>
      </trkpt>
      <trkpt lat="43.8603" lon="-0.49442">
        <ele>92.508</ele>
        <time>2021-04-27T09:49:02Z</time>
      </trkpt>
      <trkpt lat="43.85991" lon="-0.49498">
        <ele>92.099</ele>
        <time>2021-04-27T09:49:22Z</time>
      </trkpt>
      <trkpt lat="43.85946" lon="-0.49535">
        <ele>91.673</ele>
        <time>2021-04-27T09:49:42Z</time>
      </trkpt>
      <trkpt lat="43.85924" lon="-0.49543">
        <ele>91.949</ele>
        <time>2021-04-27T09:50:02Z</time>
      </trkpt>
      <trkpt lat="43.85889" lon="-0.49552">
        <ele>92.132</ele>
        <time>2021-04-27T09:50:22Z</time>
      </trkpt>
      <trkpt lat="43.85875" lon="-0.49552">
        <ele>92.165</ele>
        <time>2021-04-27T09:50:42Z</time>
      </trkpt>
      <trkpt lat="43.85836" lon="-0.49541">
        <ele>92.057</ele>
        <time>2021-04-27T09:51:02Z</time>
      </trkpt>
      <trkpt lat="43.85722" lon="-0.49554">
        <ele>95.155</ele>
        <time>2021-04-27T09:51:22Z</time>
      </trkpt>
      <trkpt lat="43.85698" lon="-0.49552">
        <ele>95.33</ele>
        <time>2021-04-27T09:51:42Z</time>
      </trkpt>
      <trkpt lat="43.85681" lon="-0.49543">
        <ele>95.862</ele>
        <time>2021-04-27T09:52:02Z</time>
      </trkpt>
      <trkpt lat="43.8566" lon="-0.49537">
        <ele>95.883</ele>
        <time>2021-04-27T09:52:22Z</time>
      </trkpt>
      <trkpt lat="43.85533" lon="-0.49526">
        <ele>90.311</ele>
        <time>2021-04-27T09:52:42Z</time>
      </trkpt>
      <trkpt lat="43.85517" lon="-0.49522">
        <ele>90.308</ele>
        <time>2021-04-27T09:53:02Z</time>
      </trkpt>
      <trkpt lat="43.85507" lon="-0.49513">
        <ele>90.213</ele>
        <time>2021-04-27T09:53:22Z</time>
      </trkpt>
      <trkpt lat="43.8546" lon="-0.49455">
        <ele>93.077</ele>
        <time>2021-04-27T09:53:42Z</time>
      </trkpt>
      <trkpt lat="43.85428" lon="-0.49434">
        <ele>93.833</ele>
        <time>2021-04-27T09:54:02Z</time>
      </trkpt>
      <trkpt lat="43.85432" lon="-0.49462">
        <ele>95.576</ele>
        <time>2021-04-27T09:54:22Z</time>
      </trkpt>
      <trkpt lat="43.85462" lon="-0.4956">
        <ele>96.039</ele>
        <time>2021-04-27T09:54:42Z</time>
      </trkpt>
      <trkpt lat="43.85479" lon="-0.49657">
        <ele>91.251</ele>
        <time>2021-04-27T09:55:02Z</time>
      </trkpt>
      <trkpt lat="43.85497" lon="-0.49723">
        <ele>89.139</ele>
        <time>2021-04-27T09:55:22Z</time>
      </trkpt>
      <trkpt lat="43.85443" lon="-0.49777">
        <ele>90.244</ele>
        <time>2021-04-27T09:55:42Z</time>
      </trkpt>
      <trkpt lat="43.85409" lon="-0.49796">
        <ele>91.092</ele>
        <time>2021-04-27T09:56:02Z</time>
      </trkpt>
      <trkpt lat="43.85369" lon="-0.49811">
        <ele>93.573</ele>
        <time>2021-04-27T09:56:22Z</time>
      </trkpt>
      <trkpt lat="43.85313" lon="-0.49824">
        <ele>93.92</ele>
        <time>2021-04-27T09:56:42Z</time>
      </trkpt>
      <trkpt lat="43.85285" lon="-0.49839">
        <ele>92.208</ele>
        <time>2021-04-27T09:57:02Z</time>
      </trkpt>
      <trkpt lat="43.85219" lon="-0.49846">
        <ele>90.696</ele>
        <time>2021-04-27T09:57:22Z</time>
      </trkpt>
      <trkpt lat="43.85193" lon="-0.49852">
        <ele>90.64</ele>
        <time>2021-04-27T09:57:42Z</time>
      </trkpt>
      <trkpt lat="43.85134" lon="-0.49859">
        <ele>92.656</ele>
        <time>2021-04-27T09:58:02Z</time>
      </trkpt>
      <trkpt lat="43.85123" lon="-0.49863">
        <ele>93.339</ele>
        <time>2021-04-27T09:58:22Z</time>
      </trkpt>
      <trkpt lat="43.85095" lon="-0.49893">
        <ele>94.442</ele>
        <time>2021-04-27T09:58:42Z</time>
      </trkpt>
      <trkpt lat="43.85055" lon="-0.49927">
        <ele>93.174</ele>
        <time>2021-04-27T09:59:02Z</time>
      </trkpt>
      <trkpt lat="43.8492" lon="-0.50017">
        <ele>94.512</ele>
        <time>2021-04-27T09:59:22Z</time>
      </trkpt>
      <trkpt lat="43.84877" lon="-0.50058">
        <ele>90.747</ele>
        <time>2021-04-27T09:59:42Z</time>
      </trkpt>
      <trkpt lat="43.84801" lon="-0.50138">
        <ele>87.765</ele>
        <time>2021-04-27T10:00:02Z</time>
      </trkpt>
      <trkpt lat="43.84778" lon="-0.50183">
        <ele>88.068</ele>
        <time>2021-04-27T10:00:22Z</time>
      </trkpt>
      <trkpt lat="43.84704" lon="-0.50193">
        <ele>87.814</ele>
        <time>2021-04-27T10:00:42Z</time>
      </trkpt>
      <trkpt lat="43.84584" lon="-0.50204">
        <ele>84.408</ele>
        <time>2021-04-27T10:01:02Z</time>
      </trkpt>
      <trkpt lat="43.84519" lon="-0.50202">
        <ele>84.853</ele>
        <time>2021-04-27T10:01:22Z</time>
      </trkpt>
      <trkpt lat="43.84484" lon="-0.50193">
        <ele>84.757</ele>
        <time>2021-04-27T10:01:42Z</time>
      </trkpt>
      <trkpt lat="43.8443" lon="-0.50163">
        <ele>83.393</ele>
        <time>2021-04-27T10:02:02Z</time>
      </trkpt>
      <trkpt lat="43.84358" lon="-0.50163">
        <ele>82.346</ele>
        <time>2021-04-27T10:02:22Z</time>
      </trkpt>
      <trkpt lat="43.84306" lon="-0.50157">
        <ele>81.359</ele>
        <time>2021-04-27T10:02:42Z</time>
      </trkpt>
      <trkpt lat="43.84049" lon="-0.5008">
        <ele>77.831</ele>
        <time>2021-04-27T10:03:02Z</time>
      </trkpt>
      <trkpt lat="43.84012" lon="-0.50071">
        <ele>76.769</ele>
        <time>2021-04-27T10:03:22Z</time>
      </trkpt>
      <trkpt lat="43.83982" lon="-0.50069">
        <ele>76.324</ele>
        <time>2021-04-27T10:03:42Z</time>
      </trkpt>
      <trkpt lat="43.83961" lon="-0.50077">
        <ele>76.178</ele>
        <time>2021-04-27T10:04:02Z</time>
      </trkpt>
      <trkpt lat="43.83919" lon="-0.5011">
        <ele>75.733</ele>
        <time>2021-04-27T10:04:22Z</time>
      </trkpt>
      <trkpt lat="43.83885" lon="-0.50118">
        <ele>75.526</ele>
        <time>2021-04-27T10:04:42Z</time>
      </trkpt>
      <trkpt lat="43.83828" lon="-0.50116">
        <ele>75.608</ele>
        <time>2021-04-27T10:05:02Z</time>
      </trkpt>
      <trkpt lat="43.83764" lon="-0.50101">
        <ele>77.284</ele>
        <time>2021-04-27T10:05:22Z</time>
      </trkpt>
      <trkpt lat="43.83688" lon="-0.50071">
        <ele>78.358</ele>
        <time>2021-04-27T10:05:42Z</time>
      </trkpt>
      <trkpt lat="43.8364" lon="-0.5006">
        <ele>78.244</ele>
        <time>2021-04-27T10:06:02Z</time>
      </trkpt>
      <trkpt lat="43.83574" lon="-0.5003">
        <ele>77.577</ele>
        <time>2021-04-27T10:06:22Z</time>
      </trkpt>
      <trkpt lat="43.83451" lon="-0.49987">
        <ele>77.78</ele>
        <time>2021-04-27T10:06:42Z</time>
      </trkpt>
      <trkpt lat="43.83394" lon="-0.49972">
        <ele>75.432</ele>
        <time>2021-04-27T10:07:02Z</time>
      </trkpt>
      <trkpt lat="43.83357" lon="-0.4997">
        <ele>73.37</ele>
        <time>2021-04-27T10:07:22Z</time>
      </trkpt>
      <trkpt lat="43.8334" lon="-0.49974">
        <ele>72.485</ele>
        <time>2021-04-27T10:07:42Z</time>
      </trkpt>
      <trkpt lat="43.83281" lon="-0.50011">
        <ele>71.522</ele>
        <time>2021-04-27T10:08:02Z</time>
      </trkpt>
      <trkpt lat="43.83235" lon="-0.50028">
        <ele>71.462</ele>
        <time>2021-04-27T10:08:22Z</time>
      </trkpt>
      <trkpt lat="43.83165" lon="-0.50052">
        <ele>72.208</ele>
        <time>2021-04-27T10:08:42Z</time>
      </trkpt>
      <trkpt lat="43.83126" lon="-0.5006">
        <ele>71.608</ele>
        <time>2021-04-27T10:09:02Z</time>
      </trkpt>
      <trkpt lat="43.83041" lon="-0.50097">
        <ele>71.069</ele>
        <time>2021-04-27T10:09:22Z</time>
      </trkpt>
      <trkpt lat="43.82917" lon="-0.50142">
        <ele>67.013</ele>
        <time>2021-04-27T10:09:42Z</time>
      </trkpt>
      <trkpt lat="43.82908" lon="-0.50146">
        <ele>67.099</ele>
        <time>2021-04-27T10:10:02Z</time>
      </trkpt>
      <trkpt lat="43.82902" lon="-0.5017">
        <ele>67.022</ele>
        <time>2021-04-27T10:10:22Z</time>
      </trkpt>
      <trkpt lat="43.8291" lon="-0.50264">
        <ele>68.015</ele>
        <time>2021-04-27T10:10:42Z</time>
      </trkpt>
      <trkpt lat="43.82913" lon="-0.50277">
        <ele>68.277</ele>
        <time>2021-04-27T10:11:02Z</time>
      </trkpt>
      <trkpt lat="43.829" lon="-0.50301">
        <ele>68.395</ele>
        <time>2021-04-27T10:11:22Z</time>
      </trkpt>
      <trkpt lat="43.82835" lon="-0.50298">
        <ele>67.24</ele>
        <time>2021-04-27T10:11:42Z</time>
      </trkpt>
      <trkpt lat="43.82554" lon="-0.50266">
        <ele>70.843</ele>
        <time>2021-04-27T10:12:02Z</time>
      </trkpt>
      <trkpt lat="43.82527" lon="-0.50258">
        <ele>70.064</ele>
        <time>2021-04-27T10:12:22Z</time>
      </trkpt>
      <trkpt lat="43.82417" lon="-0.5017">
        <ele>74.91</ele>
        <time>2021-04-27T10:12:42Z</time>
      </trkpt>
      <trkpt lat="43.8238" lon="-0.50161">
        <ele>75.408</ele>
        <time>2021-04-27T10:13:02Z</time>
      </trkpt>
      <trkpt lat="43.8234" lon="-0.50163">
        <ele>76.021</ele>
        <time>2021-04-27T10:13:22Z</time>
      </trkpt>
      <trkpt lat="43.82329" lon="-0.50161">
        <ele>76.125</ele>
        <time>2021-04-27T10:13:42Z</time>
      </trkpt>
      <trkpt lat="43.82317" lon="-0.5015">
        <ele>76.221</ele>
        <time>2021-04-27T10:14:02Z</time>
      </trkpt>
      <trkpt lat="43.82275" lon="-0.50105">
        <ele>77.334</ele>
        <time>2021-04-27T10:14:22Z</time>
      </trkpt>
      <trkpt lat="43.82266" lon="-0.50101">
        <ele>77.487</ele>
        <time>2021-04-27T10:14:42Z</time>
      </trkpt>
      <trkpt lat="43.82077" lon="-0.5015">
        <ele>75.589</ele>
        <time>2021-04-27T10:15:02Z</time>
      </trkpt>
      <trkpt lat="43.82057" lon="-0.50176">
        <ele>74.937</ele>
        <time>2021-04-27T10:15:22Z</time>
      </trkpt>
      <trkpt lat="43.82043" lon="-0.50189">
        <ele>74.642</ele>
        <time>2021-04-27T10:15:42Z</time>
      </trkpt>
      <trkpt lat="43.81787" lon="-0.50335">
        <ele>74.093</ele>
        <time>2021-04-27T10:16:02Z</time>
      </trkpt>
      <trkpt lat="43.81758" lon="-0.50341">
        <ele>73.765</ele>
        <time>2021-04-27T10:16:22Z</time>
      </trkpt>
      <trkpt lat="43.81741" lon="-0.50335">
        <ele>74.221</ele>
        <time>2021-04-27T10:16:42Z</time>
      </trkpt>
      <trkpt lat="43.81724" lon="-0.50318">
        <ele>74.408</ele>
        <time>2021-04-27T10:17:02Z</time>
      </trkpt>
      <trkpt lat="43.81657" lon="-0.50232">
        <ele>74.986</ele>
        <time>2021-04-27T10:17:22Z</time>
      </trkpt>
      <trkpt lat="43.81555" lon="-0.50086">
        <ele>72.19</ele>
        <time>2021-04-27T10:17:42Z</time>
      </trkpt>
      <trkpt lat="43.81439" lon="-0.50015">
        <ele>67.966</ele>
        <time>2021-04-27T10:18:02Z</time>
      </trkpt>
      <trkpt lat="43.81425" lon="-0.50013">
        <ele>67.479</ele>
        <time>2021-04-27T10:18:22Z</time>
      </trkpt>
      <trkpt lat="43.81354" lon="-0.50039">
        <ele>70.162</ele>
        <time>2021-04-27T10:18:42Z</time>
      </trkpt>
      <trkpt lat="43.81134" lon="-0.50107">
        <ele>71.234</ele>
        <time>2021-04-27T10:19:02Z</time>
      </trkpt>
      <trkpt lat="43.81123" lon="-0.50118">
        <ele>71.062</ele>
        <time>2021-04-27T10:19:22Z</time>
      </trkpt>
      <trkpt lat="43.81108" lon="-0.50223">
        <ele>72.467</ele>
        <time>2021-04-27T10:19:42Z</time>
      </trkpt>
      <trkpt lat="43.81061" lon="-0.50337">
        <ele>74.699</ele>
        <time>2021-04-27T10:20:02Z</time>
      </trkpt>
      <trkpt lat="43.81047" lon="-0.50393">
        <ele>73.607</ele>
        <time>2021-04-27T10:20:22Z</time>
      </trkpt>
      <trkpt lat="43.8103" lon="-0.50444">
        <ele>72.427</ele>
        <time>2021-04-27T10:20:42Z</time>
      </trkpt>
      <trkpt lat="43.8093" lon="-0.50453">
        <ele>68.308</ele>
        <time>2021-04-27T10:21:02Z</time>
      </trkpt>
      <trkpt lat="43.80823" lon="-0.50468">
        <ele>69.076</ele>
        <time>2021-04-27T10:21:22Z</time>
      </trkpt>
      <trkpt lat="43.80803" lon="-0.50474">
        <ele>69.11</ele>
        <time>2021-04-27T10:21:42Z</time>
      </trkpt>
      <trkpt lat="43.80772" lon="-0.50485">
        <ele>69.146</ele>
        <time>2021-04-27T10:22:02Z</time>
      </trkpt>
      <trkpt lat="43.80669" lon="-0.50543">
        <ele>69.049</ele>
        <time>2021-04-27T10:22:22Z</time>
      </trkpt>
      <trkpt lat="43.80638" lon="-0.50567">
        <ele>69.562</ele>
        <time>2021-04-27T10:22:42Z</time>
      </trkpt>
      <trkpt lat="43.80607" lon="-0.50597">
        <ele>70.464</ele>
        <time>2021-04-27T10:23:02Z</time>
      </trkpt>
      <trkpt lat="43.80581" lon="-0.50618">
        <ele>71.452</ele>
        <time>2021-04-27T10:23:22Z</time>
      </trkpt>
      <trkpt lat="43.80553" lon="-0.50629">
        <ele>71.937</ele>
        <time>2021-04-27T10:23:42Z</time>
      </trkpt>
      <trkpt lat="43.80525" lon="-0.50631">
        <ele>72.475</ele>
        <time>2021-04-27T10:24:02Z</time>
      </trkpt>
      <trkpt lat="43.80471" lon="-0.50631">
        <ele>72.728</ele>
        <time>2021-04-27T10:24:22Z</time>
      </trkpt>
      <trkpt lat="43.80431" lon="-0.50753">
        <ele>73.62</ele>
        <time>2021-04-27T10:24:42Z</time>
      </trkpt>
      <trkpt lat="43.80401" lon="-0.50854">
        <ele>71.808</ele>
        <time>2021-04-27T10:25:02Z</time>
      </trkpt>
      <trkpt lat="43.80431" lon="-0.50867">
        <ele>72.354</ele>
        <time>2021-04-27T10:25:22Z</time>
      </trkpt>
      <trkpt lat="43.80436" lon="-0.50876">
        <ele>72.388</ele>
        <time>2021-04-27T10:25:42Z</time>
      </trkpt>
      <trkpt lat="43.80408" lon="-0.50998">
        <ele>69.974</ele>
        <time>2021-04-27T10:26:02Z</time>
      </trkpt>
      <trkpt lat="43.80361" lon="-0.51176">
        <ele>71.467</ele>
        <time>2021-04-27T10:26:22Z</time>
      </trkpt>
      <trkpt lat="43.80355" lon="-0.51191">
        <ele>71.68</ele>
        <time>2021-04-27T10:26:42Z</time>
      </trkpt>
      <trkpt lat="43.80209" lon="-0.51318">
        <ele>71.542</ele>
        <time>2021-04-27T10:27:02Z</time>
      </trkpt>
      <trkpt lat="43.80202" lon="-0.51328">
        <ele>71.45</ele>
        <time>2021-04-27T10:27:22Z</time>
      </trkpt>
      <trkpt lat="43.80157" lon="-0.51408">
        <ele>71.185</ele>
        <time>2021-04-27T10:27:42Z</time>
      </trkpt>
      <trkpt lat="43.80065" lon="-0.51515">
        <ele>72.478</ele>
        <time>2021-04-27T10:28:02Z</time>
      </trkpt>
      <trkpt lat="43.80073" lon="-0.51526">
        <ele>71.833</ele>
        <time>2021-04-27T10:28:22Z</time>
      </trkpt>
      <trkpt lat="43.80079" lon="-0.51545">
        <ele>70.926</ele>
        <time>2021-04-27T10:28:42Z</time>
      </trkpt>
      <trkpt lat="43.80076" lon="-0.51579">
        <ele>69.408</ele>
        <time>2021-04-27T10:29:02Z</time>
      </trkpt>
      <trkpt lat="43.80056" lon="-0.51725">
        <ele>70.894</ele>
        <time>2021-04-27T10:29:22Z</time>
      </trkpt>
      <trkpt lat="43.80045" lon="-0.51775">
        <ele>70.018</ele>
        <time>2021-04-27T10:29:42Z</time>
      </trkpt>
      <trkpt lat="43.80008" lon="-0.51893">
        <ele>67.814</ele>
        <time>2021-04-27T10:30:02Z</time>
      </trkpt>
      <trkpt lat="43.79963" lon="-0.52058">
        <ele>68.117</ele>
        <time>2021-04-27T10:30:22Z</time>
      </trkpt>
      <trkpt lat="43.79949" lon="-0.5212">
        <ele>70.78</ele>
        <time>2021-04-27T10:30:42Z</time>
      </trkpt>
      <trkpt lat="43.79909" lon="-0.5232">
        <ele>74.652</ele>
        <time>2021-04-27T10:31:02Z</time>
      </trkpt>
      <trkpt lat="43.79878" lon="-0.52455">
        <ele>74.06</ele>
        <time>2021-04-27T10:31:22Z</time>
      </trkpt>
      <trkpt lat="43.7966" lon="-0.53051">
        <ele>69.695</ele>
        <time>2021-04-27T10:31:42Z</time>
      </trkpt>
      <trkpt lat="43.79511" lon="-0.53532">
        <ele>68.492</ele>
        <time>2021-04-27T10:32:02Z</time>
      </trkpt>
      <trkpt lat="43.79392" lon="-0.54144">
        <ele>64.073</ele>
        <time>2021-04-27T10:32:22Z</time>
      </trkpt>
      <trkpt lat="43.79296" lon="-0.54165">
        <ele>60.12</ele>
        <time>2021-04-27T10:32:42Z</time>
      </trkpt>
      <trkpt lat="43.79196" lon="-0.54184">
        <ele>56.908</ele>
        <time>2021-04-27T10:33:02Z</time>
      </trkpt>
      <trkpt lat="43.79164" lon="-0.54184">
        <ele>55.966</ele>
        <time>2021-04-27T10:33:22Z</time>
      </trkpt>
      <trkpt lat="43.78998" lon="-0.54227">
        <ele>53.86</ele>
        <time>2021-04-27T10:33:42Z</time>
      </trkpt>
      <trkpt lat="43.78963" lon="-0.54242">
        <ele>52.526</ele>
        <time>2021-04-27T10:34:02Z</time>
      </trkpt>
      <trkpt lat="43.78901" lon="-0.54287">
        <ele>49.299</ele>
        <time>2021-04-27T10:34:22Z</time>
      </trkpt>
      <trkpt lat="43.78857" lon="-0.54365">
        <ele>48.232</ele>
        <time>2021-04-27T10:34:42Z</time>
      </trkpt>
      <trkpt lat="43.78857" lon="-0.54373">
        <ele>48.374</ele>
        <time>2021-04-27T10:35:02Z</time>
      </trkpt>
      <trkpt lat="43.7898" lon="-0.54624">
        <ele>53.942</ele>
        <time>2021-04-27T10:35:22Z</time>
      </trkpt>
      <trkpt lat="43.78981" lon="-0.54637">
        <ele>54.077</ele>
        <time>2021-04-27T10:35:42Z</time>
      </trkpt>
      <trkpt lat="43.78823" lon="-0.54925">
        <ele>50.529</ele>
        <time>2021-04-27T10:36:02Z</time>
      </trkpt>
      <trkpt lat="43.78595" lon="-0.55285">
        <ele>47</ele>
        <time>2021-04-27T10:36:22Z</time>
      </trkpt>
      <trkpt lat="43.78286" lon="-0.55588">
        <ele>47.22</ele>
        <time>2021-04-27T10:36:42Z</time>
      </trkpt>
      <trkpt lat="43.78211" lon="-0.55596">
        <ele>44.608</ele>
        <time>2021-04-27T10:37:02Z</time>
      </trkpt>
      <trkpt lat="43.78131" lon="-0.55614">
        <ele>43.689</ele>
        <time>2021-04-27T10:37:22Z</time>
      </trkpt>
      <trkpt lat="43.77796" lon="-0.55669">
        <ele>42.143</ele>
        <time>2021-04-27T10:37:42Z</time>
      </trkpt>
      <trkpt lat="43.77774" lon="-0.55669">
        <ele>41.699</ele>
        <time>2021-04-27T10:38:02Z</time>
      </trkpt>
      <trkpt lat="43.77774" lon="-0.55659">
        <ele>41.482</ele>
        <time>2021-04-27T10:38:22Z</time>
      </trkpt>
      <trkpt lat="43.7779" lon="-0.55654">
        <ele>41.715</ele>
        <time>2021-04-27T10:38:42Z</time>
      </trkpt>
      <trkpt lat="43.77788" lon="-0.55592">
        <ele>40.587</ele>
        <time>2021-04-27T10:39:02Z</time>
      </trkpt>
      <trkpt lat="43.77782" lon="-0.555">
        <ele>40.455</ele>
        <time>2021-04-27T10:39:22Z</time>
      </trkpt>
      <trkpt lat="43.77785" lon="-0.5544">
        <ele>40.48</ele>
        <time>2021-04-27T10:39:42Z</time>
      </trkpt>
      <trkpt lat="43.77702" lon="-0.55416">
        <ele>38.951</ele>
        <time>2021-04-27T10:40:02Z</time>
      </trkpt>
      <trkpt lat="43.77716" lon="-0.55339">
        <ele>41.401</ele>
        <time>2021-04-27T10:40:22Z</time>
      </trkpt>
      <trkpt lat="43.77717" lon="-0.55294">
        <ele>41.611</ele>
        <time>2021-04-27T10:40:42Z</time>
      </trkpt>
      <trkpt lat="43.77697" lon="-0.55307">
        <ele>41.408</ele>
        <time>2021-04-27T10:41:02Z</time>
      </trkpt>
      <trkpt lat="43.77675" lon="-0.55337">
        <ele>41.012</ele>
        <time>2021-04-27T10:41:22Z</time>
      </trkpt>
      <trkpt lat="43.77658" lon="-0.55347">
        <ele>40.446</ele>
        <time>2021-04-27T10:41:42Z</time>
      </trkpt>
      <trkpt lat="43.77644" lon="-0.55345">
        <ele>40.372</ele>
        <time>2021-04-27T10:42:02Z</time>
      </trkpt>
      <trkpt lat="43.77633" lon="-0.55339">
        <ele>40.465</ele>
        <time>2021-04-27T10:42:22Z</time>
      </trkpt>
      <trkpt lat="43.7764" lon="-0.55315">
        <ele>40.698</ele>
        <time>2021-04-27T10:42:42Z</time>
      </trkpt>
      <trkpt lat="43.77426" lon="-0.55114">
        <ele>40.97</ele>
        <time>2021-04-27T10:43:02Z</time>
      </trkpt>
      <trkpt lat="43.77409" lon="-0.55146">
        <ele>40.978</ele>
        <time>2021-04-27T10:43:22Z</time>
      </trkpt>
      <trkpt lat="43.77379" lon="-0.55182">
        <ele>40.363</ele>
        <time>2021-04-27T10:43:42Z</time>
      </trkpt>
      <trkpt lat="43.76983" lon="-0.55526">
        <ele>40.126</ele>
        <time>2021-04-27T10:44:02Z</time>
      </trkpt>
      <trkpt lat="43.76891" lon="-0.55624">
        <ele>40.147</ele>
        <time>2021-04-27T10:44:22Z</time>
      </trkpt>
      <trkpt lat="43.76866" lon="-0.55661">
        <ele>41.111</ele>
        <time>2021-04-27T10:44:42Z</time>
      </trkpt>
      <trkpt lat="43.76851" lon="-0.55693">
        <ele>41.308</ele>
        <time>2021-04-27T10:45:02Z</time>
      </trkpt>
      <trkpt lat="43.76835" lon="-0.55757">
        <ele>41.029</ele>
        <time>2021-04-27T10:45:22Z</time>
      </trkpt>
      <trkpt lat="43.76826" lon="-0.55828">
        <ele>40.773</ele>
        <time>2021-04-27T10:45:42Z</time>
      </trkpt>
      <trkpt lat="43.76823" lon="-0.55905">
        <ele>41.349</ele>
        <time>2021-04-27T10:46:02Z</time>
      </trkpt>
      <trkpt lat="43.76828" lon="-0.55991">
        <ele>40.192</ele>
        <time>2021-04-27T10:46:22Z</time>
      </trkpt>
      <trkpt lat="43.76829" lon="-0.56169">
        <ele>39.725</ele>
        <time>2021-04-27T10:46:42Z</time>
      </trkpt>
      <trkpt lat="43.76811" lon="-0.56978">
        <ele>38.817</ele>
        <time>2021-04-27T10:47:02Z</time>
      </trkpt>
      <trkpt lat="43.76665" lon="-0.56965">
        <ele>35.595</ele>
        <time>2021-04-27T10:47:22Z</time>
      </trkpt>
      <trkpt lat="43.76603" lon="-0.56963">
        <ele>37.19</ele>
        <time>2021-04-27T10:47:42Z</time>
      </trkpt>
      <trkpt lat="43.7646" lon="-0.5695">
        <ele>40.623</ele>
        <time>2021-04-27T10:48:02Z</time>
      </trkpt>
      <trkpt lat="43.76386" lon="-0.5695">
        <ele>45.883</ele>
        <time>2021-04-27T10:48:22Z</time>
      </trkpt>
      <trkpt lat="43.76355" lon="-0.56959">
        <ele>49.511</ele>
        <time>2021-04-27T10:48:42Z</time>
      </trkpt>
      <trkpt lat="43.7633" lon="-0.5698">
        <ele>53.408</ele>
        <time>2021-04-27T10:49:02Z</time>
      </trkpt>
      <trkpt lat="43.76318" lon="-0.57013">
        <ele>59.219</ele>
        <time>2021-04-27T10:49:22Z</time>
      </trkpt>
      <trkpt lat="43.76313" lon="-0.57032">
        <ele>61.513</ele>
        <time>2021-04-27T10:49:42Z</time>
      </trkpt>
      <trkpt lat="43.76313" lon="-0.57053">
        <ele>61.869</ele>
        <time>2021-04-27T10:50:02Z</time>
      </trkpt>
      <trkpt lat="43.7629" lon="-0.5707">
        <ele>68.962</ele>
        <time>2021-04-27T10:50:22Z</time>
      </trkpt>
      <trkpt lat="43.76265" lon="-0.57107">
        <ele>77.795</ele>
        <time>2021-04-27T10:50:42Z</time>
      </trkpt>
      <trkpt lat="43.76248" lon="-0.57118">
        <ele>83.137</ele>
        <time>2021-04-27T10:51:02Z</time>
      </trkpt>
      <trkpt lat="43.7623" lon="-0.57176">
        <ele>91.135</ele>
        <time>2021-04-27T10:51:22Z</time>
      </trkpt>
      <trkpt lat="43.76172" lon="-0.57223">
        <ele>96.94</ele>
        <time>2021-04-27T10:51:42Z</time>
      </trkpt>
      <trkpt lat="43.76154" lon="-0.57274">
        <ele>97.238</ele>
        <time>2021-04-27T10:52:02Z</time>
      </trkpt>
      <trkpt lat="43.76137" lon="-0.57298">
        <ele>97.47</ele>
        <time>2021-04-27T10:52:22Z</time>
      </trkpt>
      <trkpt lat="43.76071" lon="-0.5741">
        <ele>99.917</ele>
        <time>2021-04-27T10:52:42Z</time>
      </trkpt>
      <trkpt lat="43.7603" lon="-0.57446">
        <ele>102.808</ele>
        <time>2021-04-27T10:53:02Z</time>
      </trkpt>
      <trkpt lat="43.75994" lon="-0.57459">
        <ele>104.51</ele>
        <time>2021-04-27T10:53:22Z</time>
      </trkpt>
      <trkpt lat="43.75982" lon="-0.57373">
        <ele>105.494</ele>
        <time>2021-04-27T10:53:42Z</time>
      </trkpt>
      <trkpt lat="43.75963" lon="-0.57334">
        <ele>105.37</ele>
        <time>2021-04-27T10:54:02Z</time>
      </trkpt>
      <trkpt lat="43.75903" lon="-0.5724">
        <ele>107.843</ele>
        <time>2021-04-27T10:54:22Z</time>
      </trkpt>
      <trkpt lat="43.75881" lon="-0.57223">
        <ele>107.536</ele>
        <time>2021-04-27T10:54:42Z</time>
      </trkpt>
      <trkpt lat="43.75819" lon="-0.57216">
        <ele>106.928</ele>
        <time>2021-04-27T10:55:02Z</time>
      </trkpt>
      <trkpt lat="43.75775" lon="-0.57206">
        <ele>105.496</ele>
        <time>2021-04-27T10:55:22Z</time>
      </trkpt>
      <trkpt lat="43.75673" lon="-0.57167">
        <ele>105.871</ele>
        <time>2021-04-27T10:55:42Z</time>
      </trkpt>
      <trkpt lat="43.75638" lon="-0.57143">
        <ele>106.035</ele>
        <time>2021-04-27T10:56:02Z</time>
      </trkpt>
      <trkpt lat="43.75534" lon="-0.57062">
        <ele>105.186</ele>
        <time>2021-04-27T10:56:22Z</time>
      </trkpt>
      <trkpt lat="43.755" lon="-0.5707">
        <ele>104.814</ele>
        <time>2021-04-27T10:56:42Z</time>
      </trkpt>
      <trkpt lat="43.75383" lon="-0.57068">
        <ele>102.708</ele>
        <time>2021-04-27T10:57:02Z</time>
      </trkpt>
      <trkpt lat="43.7538" lon="-0.57249">
        <ele>98.08</ele>
        <time>2021-04-27T10:57:22Z</time>
      </trkpt>
      <trkpt lat="43.75382" lon="-0.57339">
        <ele>99.094</ele>
        <time>2021-04-27T10:57:42Z</time>
      </trkpt>
      <trkpt lat="43.7539" lon="-0.57401">
        <ele>98.76</ele>
        <time>2021-04-27T10:58:02Z</time>
      </trkpt>
      <trkpt lat="43.75345" lon="-0.57412">
        <ele>98.293</ele>
        <time>2021-04-27T10:58:22Z</time>
      </trkpt>
      <trkpt lat="43.75328" lon="-0.5742">
        <ele>98.146</ele>
        <time>2021-04-27T10:58:42Z</time>
      </trkpt>
      <trkpt lat="43.75317" lon="-0.57433">
        <ele>98.238</ele>
        <time>2021-04-27T10:59:02Z</time>
      </trkpt>
      <trkpt lat="43.75306" lon="-0.57457">
        <ele>97.986</ele>
        <time>2021-04-27T10:59:22Z</time>
      </trkpt>
      <trkpt lat="43.75272" lon="-0.57506">
        <ele>97.491</ele>
        <time>2021-04-27T10:59:42Z</time>
      </trkpt>
      <trkpt lat="43.75253" lon="-0.57562">
        <ele>96.526</ele>
        <time>2021-04-27T11:00:02Z</time>
      </trkpt>
      <trkpt lat="43.75242" lon="-0.57609">
        <ele>96.147</ele>
        <time>2021-04-27T11:00:22Z</time>
      </trkpt>
      <trkpt lat="43.75179" lon="-0.57742">
        <ele>97.511</ele>
        <time>2021-04-27T11:00:42Z</time>
      </trkpt>
      <trkpt lat="43.75168" lon="-0.57755">
        <ele>97.908</ele>
        <time>2021-04-27T11:01:02Z</time>
      </trkpt>
      <trkpt lat="43.75151" lon="-0.57766">
        <ele>97.459</ele>
        <time>2021-04-27T11:01:22Z</time>
      </trkpt>
      <trkpt lat="43.75134" lon="-0.57802">
        <ele>96.623</ele>
        <time>2021-04-27T11:01:42Z</time>
      </trkpt>
      <trkpt lat="43.75109" lon="-0.57907">
        <ele>95.349</ele>
        <time>2021-04-27T11:02:02Z</time>
      </trkpt>
      <trkpt lat="43.75104" lon="-0.57955">
        <ele>95.392</ele>
        <time>2021-04-27T11:02:22Z</time>
      </trkpt>
      <trkpt lat="43.75083" lon="-0.5801">
        <ele>94.745</ele>
        <time>2021-04-27T11:02:42Z</time>
      </trkpt>
      <trkpt lat="43.7508" lon="-0.58045">
        <ele>93.747</ele>
        <time>2021-04-27T11:03:02Z</time>
      </trkpt>
      <trkpt lat="43.75083" lon="-0.58167">
        <ele>92.055</ele>
        <time>2021-04-27T11:03:22Z</time>
      </trkpt>
      <trkpt lat="43.75087" lon="-0.58197">
        <ele>91.84</ele>
        <time>2021-04-27T11:03:42Z</time>
      </trkpt>
      <trkpt lat="43.75095" lon="-0.58218">
        <ele>91.812</ele>
        <time>2021-04-27T11:04:02Z</time>
      </trkpt>
      <trkpt lat="43.75118" lon="-0.58244">
        <ele>92.332</ele>
        <time>2021-04-27T11:04:22Z</time>
      </trkpt>
      <trkpt lat="43.75156" lon="-0.58272">
        <ele>92.405</ele>
        <time>2021-04-27T11:04:42Z</time>
      </trkpt>
      <trkpt lat="43.75066" lon="-0.58334">
        <ele>83.108</ele>
        <time>2021-04-27T11:05:02Z</time>
      </trkpt>
      <trkpt lat="43.75055" lon="-0.58356">
        <ele>81.398</ele>
        <time>2021-04-27T11:05:22Z</time>
      </trkpt>
      <trkpt lat="43.74996" lon="-0.58506">
        <ele>69.842</ele>
        <time>2021-04-27T11:05:42Z</time>
      </trkpt>
      <trkpt lat="43.74983" lon="-0.58532">
        <ele>68.888</ele>
        <time>2021-04-27T11:06:02Z</time>
      </trkpt>
      <trkpt lat="43.74962" lon="-0.5856">
        <ele>67.791</ele>
        <time>2021-04-27T11:06:22Z</time>
      </trkpt>
      <trkpt lat="43.74884" lon="-0.58607">
        <ele>64.564</ele>
        <time>2021-04-27T11:06:42Z</time>
      </trkpt>
      <trkpt lat="43.74852" lon="-0.58637">
        <ele>63.016</ele>
        <time>2021-04-27T11:07:02Z</time>
      </trkpt>
      <trkpt lat="43.74805" lon="-0.58667">
        <ele>61.354</ele>
        <time>2021-04-27T11:07:22Z</time>
      </trkpt>
      <trkpt lat="43.7478" lon="-0.58673">
        <ele>60.569</ele>
        <time>2021-04-27T11:07:42Z</time>
      </trkpt>
      <trkpt lat="43.74739" lon="-0.58673">
        <ele>60.392</ele>
        <time>2021-04-27T11:08:02Z</time>
      </trkpt>
      <trkpt lat="43.74731" lon="-0.58678">
        <ele>60.573</ele>
        <time>2021-04-27T11:08:22Z</time>
      </trkpt>
      <trkpt lat="43.7468" lon="-0.58755">
        <ele>61.42</ele>
        <time>2021-04-27T11:08:42Z</time>
      </trkpt>
      <trkpt lat="43.74658" lon="-0.58774">
        <ele>62.408</ele>
        <time>2021-04-27T11:09:02Z</time>
      </trkpt>
      <trkpt lat="43.74615" lon="-0.58776">
        <ele>63.286</ele>
        <time>2021-04-27T11:09:22Z</time>
      </trkpt>
      <trkpt lat="43.74566" lon="-0.58761">
        <ele>63.63</ele>
        <time>2021-04-27T11:09:42Z</time>
      </trkpt>
      <trkpt lat="43.74548" lon="-0.58764">
        <ele>63.356</ele>
        <time>2021-04-27T11:10:02Z</time>
      </trkpt>
      <trkpt lat="43.74526" lon="-0.58783">
        <ele>62.659</ele>
        <time>2021-04-27T11:10:22Z</time>
      </trkpt>
      <trkpt lat="43.74509" lon="-0.58806">
        <ele>61.842</ele>
        <time>2021-04-27T11:10:42Z</time>
      </trkpt>
      <trkpt lat="43.7447" lon="-0.58877">
        <ele>60.484</ele>
        <time>2021-04-27T11:11:02Z</time>
      </trkpt>
      <trkpt lat="43.74452" lon="-0.58922">
        <ele>59.422</ele>
        <time>2021-04-27T11:11:22Z</time>
      </trkpt>
      <trkpt lat="43.74436" lon="-0.59036">
        <ele>53.237</ele>
        <time>2021-04-27T11:11:42Z</time>
      </trkpt>
      <trkpt lat="43.74427" lon="-0.59072">
        <ele>51.014</ele>
        <time>2021-04-27T11:12:02Z</time>
      </trkpt>
      <trkpt lat="43.74418" lon="-0.5909">
        <ele>50.054</ele>
        <time>2021-04-27T11:12:22Z</time>
      </trkpt>
      <trkpt lat="43.74396" lon="-0.59113">
        <ele>49.509</ele>
        <time>2021-04-27T11:12:42Z</time>
      </trkpt>
      <trkpt lat="43.74387" lon="-0.59137">
        <ele>49.308</ele>
        <time>2021-04-27T11:13:02Z</time>
      </trkpt>
      <trkpt lat="43.74356" lon="-0.59233">
        <ele>47.348</ele>
        <time>2021-04-27T11:13:22Z</time>
      </trkpt>
      <trkpt lat="43.74345" lon="-0.59251">
        <ele>47.042</ele>
        <time>2021-04-27T11:13:42Z</time>
      </trkpt>
      <trkpt lat="43.74491" lon="-0.59592">
        <ele>44.248</ele>
        <time>2021-04-27T11:14:02Z</time>
      </trkpt>
      <trkpt lat="43.73987" lon="-0.59961">
        <ele>40.521</ele>
        <time>2021-04-27T11:14:22Z</time>
      </trkpt>
      <trkpt lat="43.7385" lon="-0.60068">
        <ele>41.044</ele>
        <time>2021-04-27T11:14:42Z</time>
      </trkpt>
      <trkpt lat="43.73807" lon="-0.60111">
        <ele>46.676</ele>
        <time>2021-04-27T11:15:02Z</time>
      </trkpt>
      <trkpt lat="43.73802" lon="-0.60122">
        <ele>47.774</ele>
        <time>2021-04-27T11:15:22Z</time>
      </trkpt>
      <trkpt lat="43.73799" lon="-0.6033">
        <ele>46.859</ele>
        <time>2021-04-27T11:15:42Z</time>
      </trkpt>
      <trkpt lat="43.73804" lon="-0.60377">
        <ele>45.666</ele>
        <time>2021-04-27T11:16:02Z</time>
      </trkpt>
      <trkpt lat="43.73835" lon="-0.60512">
        <ele>42.129</ele>
        <time>2021-04-27T11:16:22Z</time>
      </trkpt>
      <trkpt lat="43.73856" lon="-0.60581">
        <ele>42.421</ele>
        <time>2021-04-27T11:16:42Z</time>
      </trkpt>
      <trkpt lat="43.73855" lon="-0.6059">
        <ele>42.408</ele>
        <time>2021-04-27T11:17:02Z</time>
      </trkpt>
      <trkpt lat="43.73802" lon="-0.60611">
        <ele>42.943</ele>
        <time>2021-04-27T11:17:22Z</time>
      </trkpt>
      <trkpt lat="43.73779" lon="-0.60611">
        <ele>43.137</ele>
        <time>2021-04-27T11:17:42Z</time>
      </trkpt>
      <trkpt lat="43.73639" lon="-0.60575">
        <ele>44.863</ele>
        <time>2021-04-27T11:18:02Z</time>
      </trkpt>
      <trkpt lat="43.73604" lon="-0.60562">
        <ele>45.346</ele>
        <time>2021-04-27T11:18:22Z</time>
      </trkpt>
      <trkpt lat="43.73542" lon="-0.60517">
        <ele>44.779</ele>
        <time>2021-04-27T11:18:42Z</time>
      </trkpt>
      <trkpt lat="43.735" lon="-0.60482">
        <ele>44.431</ele>
        <time>2021-04-27T11:19:02Z</time>
      </trkpt>
      <trkpt lat="43.73481" lon="-0.60446">
        <ele>44.989</ele>
        <time>2021-04-27T11:19:22Z</time>
      </trkpt>
      <trkpt lat="43.73416" lon="-0.60394">
        <ele>44.384</ele>
        <time>2021-04-27T11:19:42Z</time>
      </trkpt>
      <trkpt lat="43.73405" lon="-0.60381">
        <ele>44.257</ele>
        <time>2021-04-27T11:20:02Z</time>
      </trkpt>
      <trkpt lat="43.73401" lon="-0.60373">
        <ele>44.2</ele>
        <time>2021-04-27T11:20:22Z</time>
      </trkpt>
      <trkpt lat="43.73391" lon="-0.60227">
        <ele>47.62</ele>
        <time>2021-04-27T11:20:42Z</time>
      </trkpt>
      <trkpt lat="43.7339" lon="-0.6022">
        <ele>47.908</ele>
        <time>2021-04-27T11:21:02Z</time>
      </trkpt>
      <trkpt lat="43.73379" lon="-0.6021">
        <ele>48.412</ele>
        <time>2021-04-27T11:21:22Z</time>
      </trkpt>
      <trkpt lat="43.73367" lon="-0.60205">
        <ele>48.756</ele>
        <time>2021-04-27T11:21:42Z</time>
      </trkpt>
      <trkpt lat="43.73204" lon="-0.6022">
        <ele>51.092</ele>
        <time>2021-04-27T11:22:02Z</time>
      </trkpt>
      <trkpt lat="43.73128" lon="-0.60236">
        <ele>50.415</ele>
        <time>2021-04-27T11:22:22Z</time>
      </trkpt>
      <trkpt lat="43.73109" lon="-0.60236">
        <ele>50.448</ele>
        <time>2021-04-27T11:22:42Z</time>
      </trkpt>
      <trkpt lat="43.73036" lon="-0.60216">
        <ele>49.47</ele>
        <time>2021-04-27T11:23:02Z</time>
      </trkpt>
      <trkpt lat="43.72922" lon="-0.60236">
        <ele>46.038</ele>
        <time>2021-04-27T11:23:22Z</time>
      </trkpt>
      <trkpt lat="43.72901" lon="-0.60242">
        <ele>46.943</ele>
        <time>2021-04-27T11:23:42Z</time>
      </trkpt>
      <trkpt lat="43.72877" lon="-0.60242">
        <ele>48.591</ele>
        <time>2021-04-27T11:24:02Z</time>
      </trkpt>
      <trkpt lat="43.72855" lon="-0.60238">
        <ele>49.881</ele>
        <time>2021-04-27T11:24:22Z</time>
      </trkpt>
      <trkpt lat="43.72861" lon="-0.603">
        <ele>51.719</ele>
        <time>2021-04-27T11:24:42Z</time>
      </trkpt>
      <trkpt lat="43.72858" lon="-0.60311">
        <ele>52.408</ele>
        <time>2021-04-27T11:25:02Z</time>
      </trkpt>
      <trkpt lat="43.72825" lon="-0.60298">
        <ele>54.996</ele>
        <time>2021-04-27T11:25:22Z</time>
      </trkpt>
      <trkpt lat="43.72743" lon="-0.60293">
        <ele>69.03</ele>
        <time>2021-04-27T11:25:42Z</time>
      </trkpt>
      <trkpt lat="43.72656" lon="-0.60263">
        <ele>57.216</ele>
        <time>2021-04-27T11:26:02Z</time>
      </trkpt>
      <trkpt lat="43.72472" lon="-0.60266">
        <ele>49.479</ele>
        <time>2021-04-27T11:26:22Z</time>
      </trkpt>
      <trkpt lat="43.72432" lon="-0.60272">
        <ele>49.762</ele>
        <time>2021-04-27T11:26:42Z</time>
      </trkpt>
      <trkpt lat="43.72373" lon="-0.60293">
        <ele>51.184</ele>
        <time>2021-04-27T11:27:02Z</time>
      </trkpt>
      <trkpt lat="43.72329" lon="-0.60313">
        <ele>52.462</ele>
        <time>2021-04-27T11:27:22Z</time>
      </trkpt>
      <trkpt lat="43.72301" lon="-0.6033">
        <ele>53.257</ele>
        <time>2021-04-27T11:27:42Z</time>
      </trkpt>
      <trkpt lat="43.72219" lon="-0.6042">
        <ele>53.934</ele>
        <time>2021-04-27T11:28:02Z</time>
      </trkpt>
      <trkpt lat="43.72013" lon="-0.60628">
        <ele>51.155</ele>
        <time>2021-04-27T11:28:22Z</time>
      </trkpt>
      <trkpt lat="43.71965" lon="-0.60697">
        <ele>52.21</ele>
        <time>2021-04-27T11:28:42Z</time>
      </trkpt>
      <trkpt lat="43.71955" lon="-0.60705">
        <ele>52.408</ele>
        <time>2021-04-27T11:29:02Z</time>
      </trkpt>
      <trkpt lat="43.71878" lon="-0.60703">
        <ele>51.34</ele>
        <time>2021-04-27T11:29:22Z</time>
      </trkpt>
      <trkpt lat="43.71825" lon="-0.6069">
        <ele>50.784</ele>
        <time>2021-04-27T11:29:42Z</time>
      </trkpt>
      <trkpt lat="43.71738" lon="-0.6066">
        <ele>51.18</ele>
        <time>2021-04-27T11:30:02Z</time>
      </trkpt>
      <trkpt lat="43.71655" lon="-0.60652">
        <ele>52.013</ele>
        <time>2021-04-27T11:30:22Z</time>
      </trkpt>
      <trkpt lat="43.71616" lon="-0.60654">
        <ele>53.036</ele>
        <time>2021-04-27T11:30:42Z</time>
      </trkpt>
      <trkpt lat="43.71568" lon="-0.60645">
        <ele>55.188</ele>
        <time>2021-04-27T11:31:02Z</time>
      </trkpt>
      <trkpt lat="43.71527" lon="-0.60628">
        <ele>57.776</ele>
        <time>2021-04-27T11:31:22Z</time>
      </trkpt>
      <trkpt lat="43.71402" lon="-0.60555">
        <ele>60.161</ele>
        <time>2021-04-27T11:31:42Z</time>
      </trkpt>
      <trkpt lat="43.7136" lon="-0.60525">
        <ele>61.848</ele>
        <time>2021-04-27T11:32:02Z</time>
      </trkpt>
      <trkpt lat="43.7123" lon="-0.60409">
        <ele>57.761</ele>
        <time>2021-04-27T11:32:22Z</time>
      </trkpt>
      <trkpt lat="43.71206" lon="-0.60396">
        <ele>58.217</ele>
        <time>2021-04-27T11:32:42Z</time>
      </trkpt>
      <trkpt lat="43.71025" lon="-0.60338">
        <ele>66.908</ele>
        <time>2021-04-27T11:33:02Z</time>
      </trkpt>
      <trkpt lat="43.70992" lon="-0.60334">
        <ele>68.461</ele>
        <time>2021-04-27T11:33:22Z</time>
      </trkpt>
      <trkpt lat="43.70957" lon="-0.60336">
        <ele>70.115</ele>
        <time>2021-04-27T11:33:42Z</time>
      </trkpt>
      <trkpt lat="43.70884" lon="-0.60358">
        <ele>74.351</ele>
        <time>2021-04-27T11:34:02Z</time>
      </trkpt>
      <trkpt lat="43.70834" lon="-0.60381">
        <ele>78.564</ele>
        <time>2021-04-27T11:34:22Z</time>
      </trkpt>
      <trkpt lat="43.70712" lon="-0.60452">
        <ele>85.457</ele>
        <time>2021-04-27T11:34:42Z</time>
      </trkpt>
      <trkpt lat="43.70653" lon="-0.60459">
        <ele>86.839</ele>
        <time>2021-04-27T11:35:02Z</time>
      </trkpt>
      <trkpt lat="43.7057" lon="-0.60461">
        <ele>88.687</ele>
        <time>2021-04-27T11:35:22Z</time>
      </trkpt>
      <trkpt lat="43.7053" lon="-0.60459">
        <ele>90.632</ele>
        <time>2021-04-27T11:35:42Z</time>
      </trkpt>
      <trkpt lat="43.70406" lon="-0.60435">
        <ele>92.896</ele>
        <time>2021-04-27T11:36:02Z</time>
      </trkpt>
      <trkpt lat="43.70404" lon="-0.60366">
        <ele>91.931</ele>
        <time>2021-04-27T11:36:22Z</time>
      </trkpt>
      <trkpt lat="43.70397" lon="-0.60313">
        <ele>90.824</ele>
        <time>2021-04-27T11:36:42Z</time>
      </trkpt>
      <trkpt lat="43.70327" lon="-0.60124">
        <ele>90.108</ele>
        <time>2021-04-27T11:37:02Z</time>
      </trkpt>
      <trkpt lat="43.70313" lon="-0.60072">
        <ele>88.716</ele>
        <time>2021-04-27T11:37:22Z</time>
      </trkpt>
      <trkpt lat="43.70287" lon="-0.59963">
        <ele>85.25</ele>
        <time>2021-04-27T11:37:42Z</time>
      </trkpt>
      <trkpt lat="43.70263" lon="-0.598">
        <ele>74.686</ele>
        <time>2021-04-27T11:38:02Z</time>
      </trkpt>
      <trkpt lat="43.70228" lon="-0.598">
        <ele>73.459</ele>
        <time>2021-04-27T11:38:22Z</time>
      </trkpt>
      <trkpt lat="43.7019" lon="-0.59789">
        <ele>70.822</ele>
        <time>2021-04-27T11:38:42Z</time>
      </trkpt>
      <trkpt lat="43.70119" lon="-0.59736">
        <ele>65.744</ele>
        <time>2021-04-27T11:39:02Z</time>
      </trkpt>
      <trkpt lat="43.70107" lon="-0.59738">
        <ele>65.632</ele>
        <time>2021-04-27T11:39:22Z</time>
      </trkpt>
      <trkpt lat="43.6999" lon="-0.59806">
        <ele>63.727</ele>
        <time>2021-04-27T11:39:42Z</time>
      </trkpt>
      <trkpt lat="43.69951" lon="-0.59826">
        <ele>64.168</ele>
        <time>2021-04-27T11:40:02Z</time>
      </trkpt>
      <trkpt lat="43.69934" lon="-0.59828">
        <ele>64.442</ele>
        <time>2021-04-27T11:40:22Z</time>
      </trkpt>
      <trkpt lat="43.69927" lon="-0.59817">
        <ele>64.326</ele>
        <time>2021-04-27T11:40:42Z</time>
      </trkpt>
      <trkpt lat="43.69888" lon="-0.59697">
        <ele>60.008</ele>
        <time>2021-04-27T11:41:02Z</time>
      </trkpt>
      <trkpt lat="43.69874" lon="-0.59628">
        <ele>61.283</ele>
        <time>2021-04-27T11:41:22Z</time>
      </trkpt>
      <trkpt lat="43.69866" lon="-0.59598">
        <ele>62.897</ele>
        <time>2021-04-27T11:41:42Z</time>
      </trkpt>
      <trkpt lat="43.69793" lon="-0.59547">
        <ele>70.563</ele>
        <time>2021-04-27T11:42:02Z</time>
      </trkpt>
      <trkpt lat="43.69733" lon="-0.59515">
        <ele>77.396</ele>
        <time>2021-04-27T11:42:22Z</time>
      </trkpt>
      <trkpt lat="43.69709" lon="-0.59506">
        <ele>79.659</ele>
        <time>2021-04-27T11:42:42Z</time>
      </trkpt>
      <trkpt lat="43.69661" lon="-0.59523">
        <ele>82.181</ele>
        <time>2021-04-27T11:43:02Z</time>
      </trkpt>
      <trkpt lat="43.69651" lon="-0.59523">
        <ele>82.679</ele>
        <time>2021-04-27T11:43:22Z</time>
      </trkpt>
      <trkpt lat="43.69637" lon="-0.59517">
        <ele>83.424</ele>
        <time>2021-04-27T11:43:42Z</time>
      </trkpt>
      <trkpt lat="43.69585" lon="-0.5948">
        <ele>85.965</ele>
        <time>2021-04-27T11:44:02Z</time>
      </trkpt>
      <trkpt lat="43.6957" lon="-0.59472">
        <ele>86.568</ele>
        <time>2021-04-27T11:44:22Z</time>
      </trkpt>
      <trkpt lat="43.69384" lon="-0.59495">
        <ele>86.514</ele>
        <time>2021-04-27T11:44:42Z</time>
      </trkpt>
      <trkpt lat="43.69339" lon="-0.59504">
        <ele>84.208</ele>
        <time>2021-04-27T11:45:02Z</time>
      </trkpt>
      <trkpt lat="43.69323" lon="-0.59512">
        <ele>83.823</ele>
        <time>2021-04-27T11:45:22Z</time>
      </trkpt>
      <trkpt lat="43.69283" lon="-0.59545">
        <ele>82.517</ele>
        <time>2021-04-27T11:45:42Z</time>
      </trkpt>
      <trkpt lat="43.69208" lon="-0.5959">
        <ele>77.973</ele>
        <time>2021-04-27T11:46:02Z</time>
      </trkpt>
      <trkpt lat="43.69166" lon="-0.59609">
        <ele>75.456</ele>
        <time>2021-04-27T11:46:22Z</time>
      </trkpt>
      <trkpt lat="43.69087" lon="-0.59658">
        <ele>70.429</ele>
        <time>2021-04-27T11:46:42Z</time>
      </trkpt>
      <trkpt lat="43.68903" lon="-0.59744">
        <ele>72.661</ele>
        <time>2021-04-27T11:47:02Z</time>
      </trkpt>
      <trkpt lat="43.68789" lon="-0.59791">
        <ele>78.599</ele>
        <time>2021-04-27T11:47:22Z</time>
      </trkpt>
      <trkpt lat="43.68766" lon="-0.59793">
        <ele>80.534</ele>
        <time>2021-04-27T11:47:42Z</time>
      </trkpt>
      <trkpt lat="43.68699" lon="-0.59783">
        <ele>86.616</ele>
        <time>2021-04-27T11:48:02Z</time>
      </trkpt>
      <trkpt lat="43.68662" lon="-0.59789">
        <ele>90.276</ele>
        <time>2021-04-27T11:48:22Z</time>
      </trkpt>
      <trkpt lat="43.68609" lon="-0.59813">
        <ele>99.213</ele>
        <time>2021-04-27T11:48:42Z</time>
      </trkpt>
      <trkpt lat="43.68533" lon="-0.59892">
        <ele>110.508</ele>
        <time>2021-04-27T11:49:02Z</time>
      </trkpt>
      <trkpt lat="43.68509" lon="-0.59909">
        <ele>113.138</ele>
        <time>2021-04-27T11:49:22Z</time>
      </trkpt>
      <trkpt lat="43.68485" lon="-0.59907">
        <ele>115.682</ele>
        <time>2021-04-27T11:49:42Z</time>
      </trkpt>
      <trkpt lat="43.68442" lon="-0.59881">
        <ele>120.198</ele>
        <time>2021-04-27T11:50:02Z</time>
      </trkpt>
      <trkpt lat="43.68001" lon="-0.59439">
        <ele>127.511</ele>
        <time>2021-04-27T11:50:22Z</time>
      </trkpt>
      <trkpt lat="43.67945" lon="-0.59373">
        <ele>126.834</ele>
        <time>2021-04-27T11:50:42Z</time>
      </trkpt>
      <trkpt lat="43.67927" lon="-0.59343">
        <ele>126.876</ele>
        <time>2021-04-27T11:51:02Z</time>
      </trkpt>
      <trkpt lat="43.67899" lon="-0.59278">
        <ele>126.694</ele>
        <time>2021-04-27T11:51:22Z</time>
      </trkpt>
      <trkpt lat="43.67883" lon="-0.59253">
        <ele>126.859</ele>
        <time>2021-04-27T11:51:42Z</time>
      </trkpt>
      <trkpt lat="43.67861" lon="-0.59229">
        <ele>127.638</ele>
        <time>2021-04-27T11:52:02Z</time>
      </trkpt>
      <trkpt lat="43.67821" lon="-0.59199">
        <ele>128.97</ele>
        <time>2021-04-27T11:52:22Z</time>
      </trkpt>
      <trkpt lat="43.6779" lon="-0.59184">
        <ele>130.117</ele>
        <time>2021-04-27T11:52:42Z</time>
      </trkpt>
      <trkpt lat="43.67748" lon="-0.5915">
        <ele>131.708</ele>
        <time>2021-04-27T11:53:02Z</time>
      </trkpt>
      <trkpt lat="43.6772" lon="-0.59124">
        <ele>130.62</ele>
        <time>2021-04-27T11:53:22Z</time>
      </trkpt>
      <trkpt lat="43.67658" lon="-0.5903">
        <ele>128.544</ele>
        <time>2021-04-27T11:53:42Z</time>
      </trkpt>
      <trkpt lat="43.67595" lon="-0.58886">
        <ele>127.55</ele>
        <time>2021-04-27T11:54:02Z</time>
      </trkpt>
      <trkpt lat="43.67568" lon="-0.58854">
        <ele>128.323</ele>
        <time>2021-04-27T11:54:22Z</time>
      </trkpt>
      <trkpt lat="43.67509" lon="-0.58806">
        <ele>128.566</ele>
        <time>2021-04-27T11:54:42Z</time>
      </trkpt>
      <trkpt lat="43.67474" lon="-0.58783">
        <ele>126.958</ele>
        <time>2021-04-27T11:55:02Z</time>
      </trkpt>
      <trkpt lat="43.67439" lon="-0.58772">
        <ele>125.716</ele>
        <time>2021-04-27T11:55:22Z</time>
      </trkpt>
      <trkpt lat="43.67421" lon="-0.58772">
        <ele>125.151</ele>
        <time>2021-04-27T11:55:42Z</time>
      </trkpt>
      <trkpt lat="43.6739" lon="-0.58785">
        <ele>124.925</ele>
        <time>2021-04-27T11:56:02Z</time>
      </trkpt>
      <trkpt lat="43.67301" lon="-0.58847">
        <ele>122.626</ele>
        <time>2021-04-27T11:56:22Z</time>
      </trkpt>
      <trkpt lat="43.67248" lon="-0.58873">
        <ele>119.708</ele>
        <time>2021-04-27T11:56:42Z</time>
      </trkpt>
      <trkpt lat="43.67151" lon="-0.58888">
        <ele>122.508</ele>
        <time>2021-04-27T11:57:02Z</time>
      </trkpt>
      <trkpt lat="43.66873" lon="-0.58905">
        <ele>130.229</ele>
        <time>2021-04-27T11:57:22Z</time>
      </trkpt>
      <trkpt lat="43.66784" lon="-0.58864">
        <ele>130.683</ele>
        <time>2021-04-27T11:57:42Z</time>
      </trkpt>
      <trkpt lat="43.66753" lon="-0.58875">
        <ele>130.569</ele>
        <time>2021-04-27T11:58:02Z</time>
      </trkpt>
      <trkpt lat="43.66716" lon="-0.58905">
        <ele>130.152</ele>
        <time>2021-04-27T11:58:22Z</time>
      </trkpt>
      <trkpt lat="43.66705" lon="-0.58909">
        <ele>129.715</ele>
        <time>2021-04-27T11:58:42Z</time>
      </trkpt>
      <trkpt lat="43.6668" lon="-0.58959">
        <ele>129.457</ele>
        <time>2021-04-27T11:59:02Z</time>
      </trkpt>
      <trkpt lat="43.6669" lon="-0.59122">
        <ele>129.175</ele>
        <time>2021-04-27T11:59:22Z</time>
      </trkpt>
      <trkpt lat="43.66656" lon="-0.59171">
        <ele>127.82</ele>
        <time>2021-04-27T11:59:42Z</time>
      </trkpt>
      <trkpt lat="43.66623" lon="-0.59246">
        <ele>126.978</ele>
        <time>2021-04-27T12:00:02Z</time>
      </trkpt>
      <trkpt lat="43.66615" lon="-0.59281">
        <ele>126.833</ele>
        <time>2021-04-27T12:00:22Z</time>
      </trkpt>
      <trkpt lat="43.666" lon="-0.59377">
        <ele>125.926</ele>
        <time>2021-04-27T12:00:42Z</time>
      </trkpt>
      <trkpt lat="43.6659" lon="-0.59407">
        <ele>124.608</ele>
        <time>2021-04-27T12:01:02Z</time>
      </trkpt>
      <trkpt lat="43.66575" lon="-0.59448">
        <ele>122.734</ele>
        <time>2021-04-27T12:01:22Z</time>
      </trkpt>
      <trkpt lat="43.66559" lon="-0.59476">
        <ele>121.348</ele>
        <time>2021-04-27T12:01:42Z</time>
      </trkpt>
      <trkpt lat="43.66533" lon="-0.59508">
        <ele>119.894</ele>
        <time>2021-04-27T12:02:02Z</time>
      </trkpt>
      <trkpt lat="43.66505" lon="-0.59536">
        <ele>119.137</ele>
        <time>2021-04-27T12:02:22Z</time>
      </trkpt>
      <trkpt lat="43.66353" lon="-0.59723">
        <ele>114.43</ele>
        <time>2021-04-27T12:02:42Z</time>
      </trkpt>
      <trkpt lat="43.66224" lon="-0.59836">
        <ele>115.082</ele>
        <time>2021-04-27T12:03:02Z</time>
      </trkpt>
      <trkpt lat="43.66184" lon="-0.59866">
        <ele>115.07</ele>
        <time>2021-04-27T12:03:22Z</time>
      </trkpt>
      <trkpt lat="43.66168" lon="-0.59875">
        <ele>115.065</ele>
        <time>2021-04-27T12:03:42Z</time>
      </trkpt>
      <trkpt lat="43.66159" lon="-0.59877">
        <ele>114.871</ele>
        <time>2021-04-27T12:04:02Z</time>
      </trkpt>
      <trkpt lat="43.66122" lon="-0.59871">
        <ele>113.941</ele>
        <time>2021-04-27T12:04:22Z</time>
      </trkpt>
      <trkpt lat="43.66098" lon="-0.59881">
        <ele>113.415</ele>
        <time>2021-04-27T12:04:42Z</time>
      </trkpt>
      <trkpt lat="43.66067" lon="-0.59916">
        <ele>113.008</ele>
        <time>2021-04-27T12:05:02Z</time>
      </trkpt>
      <trkpt lat="43.66028" lon="-0.59967">
        <ele>113.064</ele>
        <time>2021-04-27T12:05:22Z</time>
      </trkpt>
      <trkpt lat="43.6601" lon="-0.59984">
        <ele>113.088</ele>
        <time>2021-04-27T12:05:42Z</time>
      </trkpt>
      <trkpt lat="43.65949" lon="-0.60049">
        <ele>106.794</ele>
        <time>2021-04-27T12:06:02Z</time>
      </trkpt>
      <trkpt lat="43.65912" lon="-0.60066">
        <ele>103.397</ele>
        <time>2021-04-27T12:06:22Z</time>
      </trkpt>
      <trkpt lat="43.65895" lon="-0.60083">
        <ele>101.45</ele>
        <time>2021-04-27T12:06:42Z</time>
      </trkpt>
      <trkpt lat="43.65876" lon="-0.60105">
        <ele>99.812</ele>
        <time>2021-04-27T12:07:02Z</time>
      </trkpt>
      <trkpt lat="43.65797" lon="-0.59957">
        <ele>97.74</ele>
        <time>2021-04-27T12:07:22Z</time>
      </trkpt>
      <trkpt lat="43.65775" lon="-0.59909">
        <ele>98.735</ele>
        <time>2021-04-27T12:07:42Z</time>
      </trkpt>
      <trkpt lat="43.65758" lon="-0.59866">
        <ele>100.626</ele>
        <time>2021-04-27T12:08:02Z</time>
      </trkpt>
      <trkpt lat="43.65744" lon="-0.59817">
        <ele>101.747</ele>
        <time>2021-04-27T12:08:22Z</time>
      </trkpt>
      <trkpt lat="43.6572" lon="-0.59673">
        <ele>102.011</ele>
        <time>2021-04-27T12:08:42Z</time>
      </trkpt>
      <trkpt lat="43.65668" lon="-0.59461">
        <ele>104.008</ele>
        <time>2021-04-27T12:09:02Z</time>
      </trkpt>
      <trkpt lat="43.65643" lon="-0.59424">
        <ele>103.949</ele>
        <time>2021-04-27T12:09:22Z</time>
      </trkpt>
      <trkpt lat="43.65603" lon="-0.59469">
        <ele>100.593</ele>
        <time>2021-04-27T12:09:42Z</time>
      </trkpt>
      <trkpt lat="43.6557" lon="-0.59478">
        <ele>98.359</ele>
        <time>2021-04-27T12:10:02Z</time>
      </trkpt>
      <trkpt lat="43.65541" lon="-0.59472">
        <ele>96.852</ele>
        <time>2021-04-27T12:10:22Z</time>
      </trkpt>
      <trkpt lat="43.65519" lon="-0.59452">
        <ele>96.455</ele>
        <time>2021-04-27T12:10:42Z</time>
      </trkpt>
      <trkpt lat="43.65477" lon="-0.59401">
        <ele>95.657</ele>
        <time>2021-04-27T12:11:02Z</time>
      </trkpt>
      <trkpt lat="43.65429" lon="-0.59371">
        <ele>92.985</ele>
        <time>2021-04-27T12:11:22Z</time>
      </trkpt>
      <trkpt lat="43.65411" lon="-0.59349">
        <ele>92.69</ele>
        <time>2021-04-27T12:11:42Z</time>
      </trkpt>
      <trkpt lat="43.65381" lon="-0.59379">
        <ele>92.457</ele>
        <time>2021-04-27T12:12:02Z</time>
      </trkpt>
      <trkpt lat="43.65328" lon="-0.59424">
        <ele>92.9</ele>
        <time>2021-04-27T12:12:22Z</time>
      </trkpt>
      <trkpt lat="43.65204" lon="-0.59613">
        <ele>92.32</ele>
        <time>2021-04-27T12:12:42Z</time>
      </trkpt>
      <trkpt lat="43.65114" lon="-0.59851">
        <ele>98.708</ele>
        <time>2021-04-27T12:13:02Z</time>
      </trkpt>
      <trkpt lat="43.65004" lon="-0.60167">
        <ele>113.042</ele>
        <time>2021-04-27T12:13:22Z</time>
      </trkpt>
      <trkpt lat="43.64968" lon="-0.6016">
        <ele>112.656</ele>
        <time>2021-04-27T12:13:42Z</time>
      </trkpt>
      <trkpt lat="43.64943" lon="-0.60143">
        <ele>112.532</ele>
        <time>2021-04-27T12:14:02Z</time>
      </trkpt>
      <trkpt lat="43.64884" lon="-0.60062">
        <ele>113.485</ele>
        <time>2021-04-27T12:14:22Z</time>
      </trkpt>
      <trkpt lat="43.64819" lon="-0.59946">
        <ele>113.788</ele>
        <time>2021-04-27T12:14:42Z</time>
      </trkpt>
      <trkpt lat="43.64743" lon="-0.59839">
        <ele>115.11</ele>
        <time>2021-04-27T12:15:02Z</time>
      </trkpt>
      <trkpt lat="43.64734" lon="-0.59808">
        <ele>115.078</ele>
        <time>2021-04-27T12:15:22Z</time>
      </trkpt>
      <trkpt lat="43.64673" lon="-0.59819">
        <ele>115.983</ele>
        <time>2021-04-27T12:15:42Z</time>
      </trkpt>
      <trkpt lat="43.646" lon="-0.59828">
        <ele>116.833</ele>
        <time>2021-04-27T12:16:02Z</time>
      </trkpt>
      <trkpt lat="43.64324" lon="-0.59888">
        <ele>118.223</ele>
        <time>2021-04-27T12:16:22Z</time>
      </trkpt>
      <trkpt lat="43.64254" lon="-0.59899">
        <ele>117.315</ele>
        <time>2021-04-27T12:16:42Z</time>
      </trkpt>
      <trkpt lat="43.64223" lon="-0.59911">
        <ele>117.008</ele>
        <time>2021-04-27T12:17:02Z</time>
      </trkpt>
      <trkpt lat="43.64162" lon="-0.59954">
        <ele>116.55</ele>
        <time>2021-04-27T12:17:22Z</time>
      </trkpt>
      <trkpt lat="43.6413" lon="-0.59972">
        <ele>116.374</ele>
        <time>2021-04-27T12:17:42Z</time>
      </trkpt>
      <trkpt lat="43.64043" lon="-0.59993">
        <ele>117.03</ele>
        <time>2021-04-27T12:18:02Z</time>
      </trkpt>
      <trkpt lat="43.64005" lon="-0.6001">
        <ele>117.623</ele>
        <time>2021-04-27T12:18:22Z</time>
      </trkpt>
      <trkpt lat="43.63914" lon="-0.60064">
        <ele>116.386</ele>
        <time>2021-04-27T12:18:42Z</time>
      </trkpt>
      <trkpt lat="43.63847" lon="-0.60087">
        <ele>117.638</ele>
        <time>2021-04-27T12:19:02Z</time>
      </trkpt>
      <trkpt lat="43.63772" lon="-0.60102">
        <ele>121.326</ele>
        <time>2021-04-27T12:19:22Z</time>
      </trkpt>
      <trkpt lat="43.63717" lon="-0.60128">
        <ele>123.621</ele>
        <time>2021-04-27T12:19:42Z</time>
      </trkpt>
      <trkpt lat="43.63603" lon="-0.60193">
        <ele>125.296</ele>
        <time>2021-04-27T12:20:02Z</time>
      </trkpt>
      <trkpt lat="43.63516" lon="-0.60214">
        <ele>125.931</ele>
        <time>2021-04-27T12:20:22Z</time>
      </trkpt>
      <trkpt lat="43.63358" lon="-0.60236">
        <ele>125.424</ele>
        <time>2021-04-27T12:20:42Z</time>
      </trkpt>
      <trkpt lat="43.63106" lon="-0.60281">
        <ele>118.708</ele>
        <time>2021-04-27T12:21:02Z</time>
      </trkpt>
      <trkpt lat="43.63064" lon="-0.60281">
        <ele>116.416</ele>
        <time>2021-04-27T12:21:22Z</time>
      </trkpt>
      <trkpt lat="43.63039" lon="-0.60272">
        <ele>115.25</ele>
        <time>2021-04-27T12:21:42Z</time>
      </trkpt>
      <trkpt lat="43.62895" lon="-0.60197">
        <ele>109.966</ele>
        <time>2021-04-27T12:22:02Z</time>
      </trkpt>
      <trkpt lat="43.6287" lon="-0.60188">
        <ele>110.449</ele>
        <time>2021-04-27T12:22:22Z</time>
      </trkpt>
      <trkpt lat="43.62847" lon="-0.60195">
        <ele>110.512</ele>
        <time>2021-04-27T12:22:42Z</time>
      </trkpt>
      <trkpt lat="43.62833" lon="-0.60201">
        <ele>110.464</ele>
        <time>2021-04-27T12:23:02Z</time>
      </trkpt>
      <trkpt lat="43.62642" lon="-0.60371">
        <ele>114.132</ele>
        <time>2021-04-27T12:23:22Z</time>
      </trkpt>
      <trkpt lat="43.62589" lon="-0.60437">
        <ele>117.387</ele>
        <time>2021-04-27T12:23:42Z</time>
      </trkpt>
      <trkpt lat="43.6256" lon="-0.60489">
        <ele>117.913</ele>
        <time>2021-04-27T12:24:02Z</time>
      </trkpt>
      <trkpt lat="43.62519" lon="-0.6054">
        <ele>118.843</ele>
        <time>2021-04-27T12:24:22Z</time>
      </trkpt>
      <trkpt lat="43.62454" lon="-0.60613">
        <ele>121.007</ele>
        <time>2021-04-27T12:24:42Z</time>
      </trkpt>
      <trkpt lat="43.62322" lon="-0.60787">
        <ele>121.408</ele>
        <time>2021-04-27T12:25:02Z</time>
      </trkpt>
      <trkpt lat="43.62278" lon="-0.60826">
        <ele>120.248</ele>
        <time>2021-04-27T12:25:22Z</time>
      </trkpt>
      <trkpt lat="43.6192" lon="-0.60901">
        <ele>120.232</ele>
        <time>2021-04-27T12:25:42Z</time>
      </trkpt>
      <trkpt lat="43.61652" lon="-0.60952">
        <ele>106.918</ele>
        <time>2021-04-27T12:26:02Z</time>
      </trkpt>
      <trkpt lat="43.61561" lon="-0.60974">
        <ele>109.641</ele>
        <time>2021-04-27T12:26:22Z</time>
      </trkpt>
      <trkpt lat="43.61531" lon="-0.60974">
        <ele>110.874</ele>
        <time>2021-04-27T12:26:42Z</time>
      </trkpt>
      <trkpt lat="43.61408" lon="-0.60952">
        <ele>110.946</ele>
        <time>2021-04-27T12:27:02Z</time>
      </trkpt>
      <trkpt lat="43.61373" lon="-0.60963">
        <ele>111.554</ele>
        <time>2021-04-27T12:27:22Z</time>
      </trkpt>
      <trkpt lat="43.61325" lon="-0.61006">
        <ele>112.559</ele>
        <time>2021-04-27T12:27:42Z</time>
      </trkpt>
      <trkpt lat="43.61253" lon="-0.61092">
        <ele>110.817</ele>
        <time>2021-04-27T12:28:02Z</time>
      </trkpt>
      <trkpt lat="43.61225" lon="-0.61128">
        <ele>109.087</ele>
        <time>2021-04-27T12:28:22Z</time>
      </trkpt>
      <trkpt lat="43.61182" lon="-0.61201">
        <ele>110.115</ele>
        <time>2021-04-27T12:28:42Z</time>
      </trkpt>
      <trkpt lat="43.61138" lon="-0.6115">
        <ele>105.408</ele>
        <time>2021-04-27T12:29:02Z</time>
      </trkpt>
      <trkpt lat="43.61123" lon="-0.61137">
        <ele>102.128</ele>
        <time>2021-04-27T12:29:22Z</time>
      </trkpt>
      <trkpt lat="43.61109" lon="-0.61132">
        <ele>99.882</ele>
        <time>2021-04-27T12:29:42Z</time>
      </trkpt>
      <trkpt lat="43.61088" lon="-0.61135">
        <ele>97.688</ele>
        <time>2021-04-27T12:30:02Z</time>
      </trkpt>
      <trkpt lat="43.61065" lon="-0.61147">
        <ele>95.771</ele>
        <time>2021-04-27T12:30:22Z</time>
      </trkpt>
      <trkpt lat="43.6105" lon="-0.61162">
        <ele>94.984</ele>
        <time>2021-04-27T12:30:42Z</time>
      </trkpt>
      <trkpt lat="43.61034" lon="-0.61197">
        <ele>94.916</ele>
        <time>2021-04-27T12:31:02Z</time>
      </trkpt>
      <trkpt lat="43.61018" lon="-0.61248">
        <ele>96.264</ele>
        <time>2021-04-27T12:31:22Z</time>
      </trkpt>
      <trkpt lat="43.61014" lon="-0.61257">
        <ele>96.059</ele>
        <time>2021-04-27T12:31:42Z</time>
      </trkpt>
      <trkpt lat="43.61005" lon="-0.61259">
        <ele>94.539</ele>
        <time>2021-04-27T12:32:02Z</time>
      </trkpt>
      <trkpt lat="43.60997" lon="-0.61255">
        <ele>92.601</ele>
        <time>2021-04-27T12:32:22Z</time>
      </trkpt>
      <trkpt lat="43.60961" lon="-0.61216">
        <ele>80.921</ele>
        <time>2021-04-27T12:32:42Z</time>
      </trkpt>
      <trkpt lat="43.6095" lon="-0.61214">
        <ele>78.208</ele>
        <time>2021-04-27T12:33:02Z</time>
      </trkpt>
      <trkpt lat="43.60933" lon="-0.61214">
        <ele>74.18</ele>
        <time>2021-04-27T12:33:22Z</time>
      </trkpt>
      <trkpt lat="43.60919" lon="-0.6121">
        <ele>70.674</ele>
        <time>2021-04-27T12:33:42Z</time>
      </trkpt>
      <trkpt lat="43.60869" lon="-0.61175">
        <ele>64.34</ele>
        <time>2021-04-27T12:34:02Z</time>
      </trkpt>
      <trkpt lat="43.60837" lon="-0.61255">
        <ele>63.453</ele>
        <time>2021-04-27T12:34:22Z</time>
      </trkpt>
      <trkpt lat="43.6081" lon="-0.61311">
        <ele>61.726</ele>
        <time>2021-04-27T12:34:42Z</time>
      </trkpt>
      <trkpt lat="43.60747" lon="-0.61422">
        <ele>58.068</ele>
        <time>2021-04-27T12:35:02Z</time>
      </trkpt>
      <trkpt lat="43.60681" lon="-0.61557">
        <ele>58.246</ele>
        <time>2021-04-27T12:35:22Z</time>
      </trkpt>
      <trkpt lat="43.60677" lon="-0.61577">
        <ele>58.641</ele>
        <time>2021-04-27T12:35:42Z</time>
      </trkpt>
      <trkpt lat="43.60678" lon="-0.61605">
        <ele>59.886</ele>
        <time>2021-04-27T12:36:02Z</time>
      </trkpt>
      <trkpt lat="43.60683" lon="-0.61628">
        <ele>61.36</ele>
        <time>2021-04-27T12:36:22Z</time>
      </trkpt>
      <trkpt lat="43.60698" lon="-0.61662">
        <ele>64.626</ele>
        <time>2021-04-27T12:36:42Z</time>
      </trkpt>
      <trkpt lat="43.60526" lon="-0.61723">
        <ele>56.608</ele>
        <time>2021-04-27T12:37:02Z</time>
      </trkpt>
      <trkpt lat="43.60514" lon="-0.61729">
        <ele>56.985</ele>
        <time>2021-04-27T12:37:22Z</time>
      </trkpt>
      <trkpt lat="43.60501" lon="-0.61742">
        <ele>57.639</ele>
        <time>2021-04-27T12:37:42Z</time>
      </trkpt>
      <trkpt lat="43.60482" lon="-0.61808">
        <ele>57.355</ele>
        <time>2021-04-27T12:38:02Z</time>
      </trkpt>
      <trkpt lat="43.60467" lon="-0.61853">
        <ele>56.578</ele>
        <time>2021-04-27T12:38:22Z</time>
      </trkpt>
      <trkpt lat="43.60389" lon="-0.61961">
        <ele>53.931</ele>
        <time>2021-04-27T12:38:42Z</time>
      </trkpt>
      <trkpt lat="43.60313" lon="-0.62079">
        <ele>54.943</ele>
        <time>2021-04-27T12:39:02Z</time>
      </trkpt>
      <trkpt lat="43.60279" lon="-0.62109">
        <ele>55.411</ele>
        <time>2021-04-27T12:39:22Z</time>
      </trkpt>
      <trkpt lat="43.60235" lon="-0.62141">
        <ele>55.236</ele>
        <time>2021-04-27T12:39:42Z</time>
      </trkpt>
      <trkpt lat="43.60203" lon="-0.62169">
        <ele>55.245</ele>
        <time>2021-04-27T12:40:02Z</time>
      </trkpt>
      <trkpt lat="43.60173" lon="-0.62205">
        <ele>55.447</ele>
        <time>2021-04-27T12:40:22Z</time>
      </trkpt>
      <trkpt lat="43.6013" lon="-0.62293">
        <ele>53.411</ele>
        <time>2021-04-27T12:40:42Z</time>
      </trkpt>
      <trkpt lat="43.60097" lon="-0.62381">
        <ele>52.308</ele>
        <time>2021-04-27T12:41:02Z</time>
      </trkpt>
      <trkpt lat="43.60082" lon="-0.62413">
        <ele>52.141</ele>
        <time>2021-04-27T12:41:22Z</time>
      </trkpt>
      <trkpt lat="43.60054" lon="-0.62463">
        <ele>52.455</ele>
        <time>2021-04-27T12:41:42Z</time>
      </trkpt>
      <trkpt lat="43.6003" lon="-0.62435">
        <ele>52.691</ele>
        <time>2021-04-27T12:42:02Z</time>
      </trkpt>
      <trkpt lat="43.60009" lon="-0.62418">
        <ele>52.944</ele>
        <time>2021-04-27T12:42:22Z</time>
      </trkpt>
      <trkpt lat="43.59987" lon="-0.62407">
        <ele>52.737</ele>
        <time>2021-04-27T12:42:42Z</time>
      </trkpt>
      <trkpt lat="43.59937" lon="-0.62405">
        <ele>52.689</ele>
        <time>2021-04-27T12:43:02Z</time>
      </trkpt>
      <trkpt lat="43.59897" lon="-0.62418">
        <ele>52.547</ele>
        <time>2021-04-27T12:43:22Z</time>
      </trkpt>
      <trkpt lat="43.5978" lon="-0.62471">
        <ele>51.562</ele>
        <time>2021-04-27T12:43:42Z</time>
      </trkpt>
      <trkpt lat="43.59752" lon="-0.62486">
        <ele>51.284</ele>
        <time>2021-04-27T12:44:02Z</time>
      </trkpt>
      <trkpt lat="43.59682" lon="-0.62514">
        <ele>53.307</ele>
        <time>2021-04-27T12:44:22Z</time>
      </trkpt>
      <trkpt lat="43.5948" lon="-0.62583">
        <ele>56.517</ele>
        <time>2021-04-27T12:44:42Z</time>
      </trkpt>
      <trkpt lat="43.59465" lon="-0.62585">
        <ele>56.908</ele>
        <time>2021-04-27T12:45:02Z</time>
      </trkpt>
      <trkpt lat="43.59398" lon="-0.62574">
        <ele>57.945</ele>
        <time>2021-04-27T12:45:22Z</time>
      </trkpt>
      <trkpt lat="43.59334" lon="-0.62568">
        <ele>58.279</ele>
        <time>2021-04-27T12:45:42Z</time>
      </trkpt>
      <trkpt lat="43.5926" lon="-0.62568">
        <ele>64.715</ele>
        <time>2021-04-27T12:46:02Z</time>
      </trkpt>
      <trkpt lat="43.59233" lon="-0.62566">
        <ele>68.218</ele>
        <time>2021-04-27T12:46:22Z</time>
      </trkpt>
      <trkpt lat="43.59227" lon="-0.62562">
        <ele>69.311</ele>
        <time>2021-04-27T12:46:42Z</time>
      </trkpt>
      <trkpt lat="43.59221" lon="-0.62551">
        <ele>70.823</ele>
        <time>2021-04-27T12:47:02Z</time>
      </trkpt>
      <trkpt lat="43.59213" lon="-0.62516">
        <ele>73.871</ele>
        <time>2021-04-27T12:47:22Z</time>
      </trkpt>
      <trkpt lat="43.59205" lon="-0.6251">
        <ele>75.526</ele>
        <time>2021-04-27T12:47:42Z</time>
      </trkpt>
      <trkpt lat="43.59194" lon="-0.62512">
        <ele>77.349</ele>
        <time>2021-04-27T12:48:02Z</time>
      </trkpt>
      <trkpt lat="43.59155" lon="-0.62544">
        <ele>81.902</ele>
        <time>2021-04-27T12:48:22Z</time>
      </trkpt>
      <trkpt lat="43.59134" lon="-0.62553">
        <ele>85.422</ele>
        <time>2021-04-27T12:48:42Z</time>
      </trkpt>
      <trkpt lat="43.5911" lon="-0.6257">
        <ele>88.708</ele>
        <time>2021-04-27T12:49:02Z</time>
      </trkpt>
      <trkpt lat="43.59079" lon="-0.62613">
        <ele>91.391</ele>
        <time>2021-04-27T12:49:22Z</time>
      </trkpt>
      <trkpt lat="43.59073" lon="-0.62617">
        <ele>92.055</ele>
        <time>2021-04-27T12:49:42Z</time>
      </trkpt>
      <trkpt lat="43.59064" lon="-0.62615">
        <ele>93.921</ele>
        <time>2021-04-27T12:50:02Z</time>
      </trkpt>
      <trkpt lat="43.59059" lon="-0.62598">
        <ele>96.594</ele>
        <time>2021-04-27T12:50:22Z</time>
      </trkpt>
      <trkpt lat="43.59068" lon="-0.62542">
        <ele>98.657</ele>
        <time>2021-04-27T12:50:42Z</time>
      </trkpt>
      <trkpt lat="43.59068" lon="-0.62514">
        <ele>100.489</ele>
        <time>2021-04-27T12:51:02Z</time>
      </trkpt>
      <trkpt lat="43.59059" lon="-0.62471">
        <ele>105.197</ele>
        <time>2021-04-27T12:51:22Z</time>
      </trkpt>
      <trkpt lat="43.59036" lon="-0.62392">
        <ele>111.972</ele>
        <time>2021-04-27T12:51:42Z</time>
      </trkpt>
      <trkpt lat="43.59019" lon="-0.62356">
        <ele>114.133</ele>
        <time>2021-04-27T12:52:02Z</time>
      </trkpt>
      <trkpt lat="43.59009" lon="-0.62347">
        <ele>115.123</ele>
        <time>2021-04-27T12:52:22Z</time>
      </trkpt>
      <trkpt lat="43.59" lon="-0.62347">
        <ele>116.215</ele>
        <time>2021-04-27T12:52:42Z</time>
      </trkpt>
      <trkpt lat="43.58992" lon="-0.62349">
        <ele>116.408</ele>
        <time>2021-04-27T12:53:02Z</time>
      </trkpt>
      <trkpt lat="43.58969" lon="-0.62377">
        <ele>117.77</ele>
        <time>2021-04-27T12:53:22Z</time>
      </trkpt>
      <trkpt lat="43.58924" lon="-0.6242">
        <ele>120.774</ele>
        <time>2021-04-27T12:53:42Z</time>
      </trkpt>
      <trkpt lat="43.58888" lon="-0.62439">
        <ele>122.12</ele>
        <time>2021-04-27T12:54:02Z</time>
      </trkpt>
      <trkpt lat="43.58868" lon="-0.62448">
        <ele>122.753</ele>
        <time>2021-04-27T12:54:22Z</time>
      </trkpt>
      <trkpt lat="43.58834" lon="-0.62454">
        <ele>123.496</ele>
        <time>2021-04-27T12:54:42Z</time>
      </trkpt>
      <trkpt lat="43.58813" lon="-0.62463">
        <ele>124.088</ele>
        <time>2021-04-27T12:55:02Z</time>
      </trkpt>
      <trkpt lat="43.58776" lon="-0.62508">
        <ele>124.276</ele>
        <time>2021-04-27T12:55:22Z</time>
      </trkpt>
      <trkpt lat="43.5866" lon="-0.62562">
        <ele>125.991</ele>
        <time>2021-04-27T12:55:42Z</time>
      </trkpt>
      <trkpt lat="43.58633" lon="-0.62568">
        <ele>126.781</ele>
        <time>2021-04-27T12:56:02Z</time>
      </trkpt>
      <trkpt lat="43.5861" lon="-0.62589">
        <ele>127.161</ele>
        <time>2021-04-27T12:56:22Z</time>
      </trkpt>
      <trkpt lat="43.5856" lon="-0.62656">
        <ele>126.817</ele>
        <time>2021-04-27T12:56:42Z</time>
      </trkpt>
      <trkpt lat="43.5854" lon="-0.62688">
        <ele>126.908</ele>
        <time>2021-04-27T12:57:02Z</time>
      </trkpt>
      <trkpt lat="43.58493" lon="-0.62808">
        <ele>131.525</ele>
        <time>2021-04-27T12:57:22Z</time>
      </trkpt>
      <trkpt lat="43.58475" lon="-0.62866">
        <ele>133.439</ele>
        <time>2021-04-27T12:57:42Z</time>
      </trkpt>
      <trkpt lat="43.5843" lon="-0.62905">
        <ele>136.775</ele>
        <time>2021-04-27T12:58:02Z</time>
      </trkpt>
      <trkpt lat="43.58378" lon="-0.62924">
        <ele>136.298</ele>
        <time>2021-04-27T12:58:22Z</time>
      </trkpt>
      <trkpt lat="43.58299" lon="-0.62943">
        <ele>133.421</ele>
        <time>2021-04-27T12:58:42Z</time>
      </trkpt>
      <trkpt lat="43.58259" lon="-0.62946">
        <ele>133.053</ele>
        <time>2021-04-27T12:59:02Z</time>
      </trkpt>
      <trkpt lat="43.58249" lon="-0.62965">
        <ele>132.221</ele>
        <time>2021-04-27T12:59:22Z</time>
      </trkpt>
      <trkpt lat="43.58182" lon="-0.63049">
        <ele>128.156</ele>
        <time>2021-04-27T12:59:42Z</time>
      </trkpt>
      <trkpt lat="43.58173" lon="-0.63066">
        <ele>128.063</ele>
        <time>2021-04-27T13:00:02Z</time>
      </trkpt>
      <trkpt lat="43.58142" lon="-0.63179">
        <ele>117.644</ele>
        <time>2021-04-27T13:00:22Z</time>
      </trkpt>
      <trkpt lat="43.58126" lon="-0.63248">
        <ele>108.918</ele>
        <time>2021-04-27T13:00:42Z</time>
      </trkpt>
      <trkpt lat="43.58098" lon="-0.6328">
        <ele>100.408</ele>
        <time>2021-04-27T13:01:02Z</time>
      </trkpt>
      <trkpt lat="43.58091" lon="-0.63306">
        <ele>95.713</ele>
        <time>2021-04-27T13:01:22Z</time>
      </trkpt>
      <trkpt lat="43.58091" lon="-0.63377">
        <ele>86.397</ele>
        <time>2021-04-27T13:01:42Z</time>
      </trkpt>
      <trkpt lat="43.58095" lon="-0.63454">
        <ele>81.463</ele>
        <time>2021-04-27T13:02:02Z</time>
      </trkpt>
      <trkpt lat="43.58103" lon="-0.63534">
        <ele>82.856</ele>
        <time>2021-04-27T13:02:22Z</time>
      </trkpt>
      <trkpt lat="43.58097" lon="-0.63574">
        <ele>86.179</ele>
        <time>2021-04-27T13:02:42Z</time>
      </trkpt>
      <trkpt lat="43.58019" lon="-0.63817">
        <ele>106.711</ele>
        <time>2021-04-27T13:03:02Z</time>
      </trkpt>
      <trkpt lat="43.58007" lon="-0.6384">
        <ele>108.259</ele>
        <time>2021-04-27T13:03:22Z</time>
      </trkpt>
      <trkpt lat="43.57965" lon="-0.63896">
        <ele>108.944</ele>
        <time>2021-04-27T13:03:42Z</time>
      </trkpt>
      <trkpt lat="43.57931" lon="-0.63954">
        <ele>116.288</ele>
        <time>2021-04-27T13:04:02Z</time>
      </trkpt>
      <trkpt lat="43.5789" lon="-0.64042">
        <ele>125.024</ele>
        <time>2021-04-27T13:04:22Z</time>
      </trkpt>
      <trkpt lat="43.57856" lon="-0.64106">
        <ele>129.726</ele>
        <time>2021-04-27T13:04:42Z</time>
      </trkpt>
      <trkpt lat="43.57833" lon="-0.64134">
        <ele>132.908</ele>
        <time>2021-04-27T13:05:02Z</time>
      </trkpt>
      <trkpt lat="43.57811" lon="-0.64154">
        <ele>135.885</ele>
        <time>2021-04-27T13:05:22Z</time>
      </trkpt>
      <trkpt lat="43.57716" lon="-0.64207">
        <ele>140.979</ele>
        <time>2021-04-27T13:05:42Z</time>
      </trkpt>
      <trkpt lat="43.57673" lon="-0.64175">
        <ele>139.285</ele>
        <time>2021-04-27T13:06:02Z</time>
      </trkpt>
      <trkpt lat="43.57598" lon="-0.64139">
        <ele>134.938</ele>
        <time>2021-04-27T13:06:22Z</time>
      </trkpt>
      <trkpt lat="43.57522" lon="-0.64111">
        <ele>133.781</ele>
        <time>2021-04-27T13:06:42Z</time>
      </trkpt>
      <trkpt lat="43.57481" lon="-0.64102">
        <ele>134.033</ele>
        <time>2021-04-27T13:07:02Z</time>
      </trkpt>
      <trkpt lat="43.5741" lon="-0.64102">
        <ele>135.581</ele>
        <time>2021-04-27T13:07:22Z</time>
      </trkpt>
      <trkpt lat="43.57394" lon="-0.64091">
        <ele>135.696</ele>
        <time>2021-04-27T13:07:42Z</time>
      </trkpt>
      <trkpt lat="43.57345" lon="-0.64036">
        <ele>133.727</ele>
        <time>2021-04-27T13:08:02Z</time>
      </trkpt>
      <trkpt lat="43.57289" lon="-0.63933">
        <ele>131.568</ele>
        <time>2021-04-27T13:08:22Z</time>
      </trkpt>
      <trkpt lat="43.57276" lon="-0.63984">
        <ele>131.814</ele>
        <time>2021-04-27T13:08:42Z</time>
      </trkpt>
      <trkpt lat="43.57258" lon="-0.64016">
        <ele>132.408</ele>
        <time>2021-04-27T13:09:02Z</time>
      </trkpt>
      <trkpt lat="43.57239" lon="-0.6404">
        <ele>132.419</ele>
        <time>2021-04-27T13:09:22Z</time>
      </trkpt>
      <trkpt lat="43.57222" lon="-0.64072">
        <ele>132.113</ele>
        <time>2021-04-27T13:09:42Z</time>
      </trkpt>
      <trkpt lat="43.57211" lon="-0.64106">
        <ele>132.299</ele>
        <time>2021-04-27T13:10:02Z</time>
      </trkpt>
      <trkpt lat="43.57139" lon="-0.64083">
        <ele>128.352</ele>
        <time>2021-04-27T13:10:22Z</time>
      </trkpt>
      <trkpt lat="43.5713" lon="-0.64083">
        <ele>128.185</ele>
        <time>2021-04-27T13:10:42Z</time>
      </trkpt>
      <trkpt lat="43.57113" lon="-0.64096">
        <ele>128.277</ele>
        <time>2021-04-27T13:11:02Z</time>
      </trkpt>
      <trkpt lat="43.57077" lon="-0.64134">
        <ele>129.975</ele>
        <time>2021-04-27T13:11:22Z</time>
      </trkpt>
      <trkpt lat="43.57049" lon="-0.64171">
        <ele>131.43</ele>
        <time>2021-04-27T13:11:42Z</time>
      </trkpt>
      <trkpt lat="43.5701" lon="-0.64235">
        <ele>136.339</ele>
        <time>2021-04-27T13:12:02Z</time>
      </trkpt>
      <trkpt lat="43.56982" lon="-0.64287">
        <ele>139.401</ele>
        <time>2021-04-27T13:12:22Z</time>
      </trkpt>
      <trkpt lat="43.56951" lon="-0.64351">
        <ele>142.421</ele>
        <time>2021-04-27T13:12:42Z</time>
      </trkpt>
      <trkpt lat="43.56917" lon="-0.64407">
        <ele>143.608</ele>
        <time>2021-04-27T13:13:02Z</time>
      </trkpt>
      <trkpt lat="43.56864" lon="-0.64478">
        <ele>143.22</ele>
        <time>2021-04-27T13:13:22Z</time>
      </trkpt>
      <trkpt lat="43.56727" lon="-0.64617">
        <ele>138.194</ele>
        <time>2021-04-27T13:13:42Z</time>
      </trkpt>
      <trkpt lat="43.56699" lon="-0.64651">
        <ele>137.86</ele>
        <time>2021-04-27T13:14:02Z</time>
      </trkpt>
      <trkpt lat="43.56587" lon="-0.64819">
        <ele>135.363</ele>
        <time>2021-04-27T13:14:22Z</time>
      </trkpt>
      <trkpt lat="43.56367" lon="-0.65115">
        <ele>128.226</ele>
        <time>2021-04-27T13:14:42Z</time>
      </trkpt>
      <trkpt lat="43.56323" lon="-0.65184">
        <ele>129.868</ele>
        <time>2021-04-27T13:15:02Z</time>
      </trkpt>
      <trkpt lat="43.56242" lon="-0.65295">
        <ele>128.366</ele>
        <time>2021-04-27T13:15:22Z</time>
      </trkpt>
      <trkpt lat="43.56124" lon="-0.65506">
        <ele>128.531</ele>
        <time>2021-04-27T13:15:42Z</time>
      </trkpt>
      <trkpt lat="43.56065" lon="-0.65576">
        <ele>121.387</ele>
        <time>2021-04-27T13:16:02Z</time>
      </trkpt>
      <trkpt lat="43.56042" lon="-0.65613">
        <ele>117.942</ele>
        <time>2021-04-27T13:16:22Z</time>
      </trkpt>
      <trkpt lat="43.56004" lon="-0.65664">
        <ele>116.926</ele>
        <time>2021-04-27T13:16:42Z</time>
      </trkpt>
      <trkpt lat="43.55944" lon="-0.65718">
        <ele>108.908</ele>
        <time>2021-04-27T13:17:02Z</time>
      </trkpt>
      <trkpt lat="43.55923" lon="-0.65731">
        <ele>107.755</ele>
        <time>2021-04-27T13:17:22Z</time>
      </trkpt>
      <trkpt lat="43.55897" lon="-0.65739">
        <ele>104.829</ele>
        <time>2021-04-27T13:17:42Z</time>
      </trkpt>
      <trkpt lat="43.55878" lon="-0.65739">
        <ele>102.035</ele>
        <time>2021-04-27T13:18:02Z</time>
      </trkpt>
      <trkpt lat="43.55863" lon="-0.6575">
        <ele>100.258</ele>
        <time>2021-04-27T13:18:22Z</time>
      </trkpt>
      <trkpt lat="43.55841" lon="-0.65799">
        <ele>94.041</ele>
        <time>2021-04-27T13:18:42Z</time>
      </trkpt>
      <trkpt lat="43.55788" lon="-0.6583">
        <ele>87.923</ele>
        <time>2021-04-27T13:19:02Z</time>
      </trkpt>
      <trkpt lat="43.55773" lon="-0.6586">
        <ele>86.991</ele>
        <time>2021-04-27T13:19:22Z</time>
      </trkpt>
      <trkpt lat="43.55766" lon="-0.65896">
        <ele>86.886</ele>
        <time>2021-04-27T13:19:42Z</time>
      </trkpt>
      <trkpt lat="43.55768" lon="-0.65965">
        <ele>90.663</ele>
        <time>2021-04-27T13:20:02Z</time>
      </trkpt>
      <trkpt lat="43.55765" lon="-0.66001">
        <ele>93.144</ele>
        <time>2021-04-27T13:20:22Z</time>
      </trkpt>
      <trkpt lat="43.55748" lon="-0.66031">
        <ele>92.518</ele>
        <time>2021-04-27T13:20:42Z</time>
      </trkpt>
      <trkpt lat="43.557" lon="-0.66089">
        <ele>88.508</ele>
        <time>2021-04-27T13:21:02Z</time>
      </trkpt>
      <trkpt lat="43.55662" lon="-0.66151">
        <ele>84.143</ele>
        <time>2021-04-27T13:21:22Z</time>
      </trkpt>
      <trkpt lat="43.55603" lon="-0.66278">
        <ele>81.967</ele>
        <time>2021-04-27T13:21:42Z</time>
      </trkpt>
      <trkpt lat="43.55571" lon="-0.6637">
        <ele>80.433</ele>
        <time>2021-04-27T13:22:02Z</time>
      </trkpt>
      <trkpt lat="43.55564" lon="-0.66379">
        <ele>80.456</ele>
        <time>2021-04-27T13:22:22Z</time>
      </trkpt>
      <trkpt lat="43.55508" lon="-0.66417">
        <ele>78.239</ele>
        <time>2021-04-27T13:22:42Z</time>
      </trkpt>
      <trkpt lat="43.55499" lon="-0.6643">
        <ele>78.361</ele>
        <time>2021-04-27T13:23:02Z</time>
      </trkpt>
      <trkpt lat="43.55485" lon="-0.6646">
        <ele>80.249</ele>
        <time>2021-04-27T13:23:22Z</time>
      </trkpt>
      <trkpt lat="43.55438" lon="-0.66619">
        <ele>79.644</ele>
        <time>2021-04-27T13:23:42Z</time>
      </trkpt>
      <trkpt lat="43.55424" lon="-0.66681">
        <ele>79.227</ele>
        <time>2021-04-27T13:24:02Z</time>
      </trkpt>
      <trkpt lat="43.55407" lon="-0.66774">
        <ele>78.668</ele>
        <time>2021-04-27T13:24:22Z</time>
      </trkpt>
      <trkpt lat="43.55395" lon="-0.66825">
        <ele>79.114</ele>
        <time>2021-04-27T13:24:42Z</time>
      </trkpt>
      <trkpt lat="43.55384" lon="-0.66855">
        <ele>78.608</ele>
        <time>2021-04-27T13:25:02Z</time>
      </trkpt>
      <trkpt lat="43.55331" lon="-0.66967">
        <ele>77.269</ele>
        <time>2021-04-27T13:25:22Z</time>
      </trkpt>
      <trkpt lat="43.55308" lon="-0.6699">
        <ele>77.293</ele>
        <time>2021-04-27T13:25:42Z</time>
      </trkpt>
      <trkpt lat="43.55284" lon="-0.67003">
        <ele>76.899</ele>
        <time>2021-04-27T13:26:02Z</time>
      </trkpt>
      <trkpt lat="43.55242" lon="-0.67016">
        <ele>76.272</ele>
        <time>2021-04-27T13:26:22Z</time>
      </trkpt>
      <trkpt lat="43.55213" lon="-0.67053">
        <ele>76.345</ele>
        <time>2021-04-27T13:26:42Z</time>
      </trkpt>
      <trkpt lat="43.55138" lon="-0.67164">
        <ele>73.787</ele>
        <time>2021-04-27T13:27:02Z</time>
      </trkpt>
      <trkpt lat="43.5512" lon="-0.67201">
        <ele>73.295</ele>
        <time>2021-04-27T13:27:22Z</time>
      </trkpt>
      <trkpt lat="43.55088" lon="-0.67278">
        <ele>72.83</ele>
        <time>2021-04-27T13:27:42Z</time>
      </trkpt>
      <trkpt lat="43.55082" lon="-0.67289">
        <ele>72.656</ele>
        <time>2021-04-27T13:28:02Z</time>
      </trkpt>
      <trkpt lat="43.5507" lon="-0.67297">
        <ele>72.859</ele>
        <time>2021-04-27T13:28:22Z</time>
      </trkpt>
      <trkpt lat="43.55054" lon="-0.67302">
        <ele>73.014</ele>
        <time>2021-04-27T13:28:42Z</time>
      </trkpt>
      <trkpt lat="43.55014" lon="-0.67304">
        <ele>73.608</ele>
        <time>2021-04-27T13:29:02Z</time>
      </trkpt>
      <trkpt lat="43.54964" lon="-0.67344">
        <ele>71.442</ele>
        <time>2021-04-27T13:29:22Z</time>
      </trkpt>
      <trkpt lat="43.54948" lon="-0.67351">
        <ele>71.476</ele>
        <time>2021-04-27T13:29:42Z</time>
      </trkpt>
      <trkpt lat="43.54919" lon="-0.67351">
        <ele>71.922</ele>
        <time>2021-04-27T13:30:02Z</time>
      </trkpt>
      <trkpt lat="43.54875" lon="-0.67344">
        <ele>70.495</ele>
        <time>2021-04-27T13:30:22Z</time>
      </trkpt>
      <trkpt lat="43.54854" lon="-0.67351">
        <ele>69.158</ele>
        <time>2021-04-27T13:30:42Z</time>
      </trkpt>
      <trkpt lat="43.54807" lon="-0.67385">
        <ele>65.79</ele>
        <time>2021-04-27T13:31:02Z</time>
      </trkpt>
      <trkpt lat="43.54655" lon="-0.6752">
        <ele>65.558</ele>
        <time>2021-04-27T13:31:22Z</time>
      </trkpt>
      <trkpt lat="43.54586" lon="-0.67574">
        <ele>65.163</ele>
        <time>2021-04-27T13:31:42Z</time>
      </trkpt>
      <trkpt lat="43.54563" lon="-0.67602">
        <ele>64.992</ele>
        <time>2021-04-27T13:32:02Z</time>
      </trkpt>
      <trkpt lat="43.54536" lon="-0.67623">
        <ele>64.773</ele>
        <time>2021-04-27T13:32:22Z</time>
      </trkpt>
      <trkpt lat="43.54536" lon="-0.67645">
        <ele>64.62</ele>
        <time>2021-04-27T13:32:42Z</time>
      </trkpt>
      <trkpt lat="43.54532" lon="-0.67651">
        <ele>64.508</ele>
        <time>2021-04-27T13:33:02Z</time>
      </trkpt>
      <trkpt lat="43.54519" lon="-0.67653">
        <ele>64.436</ele>
        <time>2021-04-27T13:33:22Z</time>
      </trkpt>
      <trkpt lat="43.54505" lon="-0.67686">
        <ele>64.31</ele>
        <time>2021-04-27T13:33:42Z</time>
      </trkpt>
      <trkpt lat="43.54476" lon="-0.67735">
        <ele>64.986</ele>
        <time>2021-04-27T13:34:02Z</time>
      </trkpt>
      <trkpt lat="43.54249" lon="-0.6807">
        <ele>65.899</ele>
        <time>2021-04-27T13:34:22Z</time>
      </trkpt>
      <trkpt lat="43.54224" lon="-0.68143">
        <ele>66.222</ele>
        <time>2021-04-27T13:34:42Z</time>
      </trkpt>
      <trkpt lat="43.54228" lon="-0.68171">
        <ele>66.314</ele>
        <time>2021-04-27T13:35:02Z</time>
      </trkpt>
      <trkpt lat="43.54224" lon="-0.68183">
        <ele>66.392</ele>
        <time>2021-04-27T13:35:22Z</time>
      </trkpt>
      <trkpt lat="43.54216" lon="-0.68192">
        <ele>66.467</ele>
        <time>2021-04-27T13:35:42Z</time>
      </trkpt>
      <trkpt lat="43.54219" lon="-0.6822">
        <ele>66.448</ele>
        <time>2021-04-27T13:36:02Z</time>
      </trkpt>
      <trkpt lat="43.54241" lon="-0.68213">
        <ele>66.161</ele>
        <time>2021-04-27T13:36:22Z</time>
      </trkpt>
      <trkpt lat="43.54278" lon="-0.68216">
        <ele>66.017</ele>
        <time>2021-04-27T13:36:42Z</time>
      </trkpt>
      <trkpt lat="43.54364" lon="-0.6825">
        <ele>65.608</ele>
        <time>2021-04-27T13:37:02Z</time>
      </trkpt>
      <trkpt lat="43.5441" lon="-0.68263">
        <ele>65.181</ele>
        <time>2021-04-27T13:37:22Z</time>
      </trkpt>
      <trkpt lat="43.5442" lon="-0.68271">
        <ele>65.035</ele>
        <time>2021-04-27T13:37:42Z</time>
      </trkpt>
      <trkpt lat="43.54423" lon="-0.68276">
        <ele>64.931</ele>
        <time>2021-04-27T13:38:02Z</time>
      </trkpt>
      <trkpt lat="43.54429" lon="-0.68336">
        <ele>65.034</ele>
        <time>2021-04-27T13:38:22Z</time>
      </trkpt>
      <trkpt lat="43.54432" lon="-0.68434">
        <ele>64.857</ele>
        <time>2021-04-27T13:38:42Z</time>
      </trkpt>
      <trkpt lat="43.54432" lon="-0.68465">
        <ele>64.449</ele>
        <time>2021-04-27T13:39:02Z</time>
      </trkpt>
      <trkpt lat="43.54412" lon="-0.68497">
        <ele>64.127</ele>
        <time>2021-04-27T13:39:22Z</time>
      </trkpt>
      <trkpt lat="43.54389" lon="-0.68527">
        <ele>64.672</ele>
        <time>2021-04-27T13:39:42Z</time>
      </trkpt>
      <trkpt lat="43.5435" lon="-0.68636">
        <ele>67.644</ele>
        <time>2021-04-27T13:40:02Z</time>
      </trkpt>
      <trkpt lat="43.54315" lon="-0.68698">
        <ele>69.305</ele>
        <time>2021-04-27T13:40:22Z</time>
      </trkpt>
      <trkpt lat="43.54295" lon="-0.68726">
        <ele>69.815</ele>
        <time>2021-04-27T13:40:42Z</time>
      </trkpt>
      <trkpt lat="43.54277" lon="-0.68746">
        <ele>70.308</ele>
        <time>2021-04-27T13:41:02Z</time>
      </trkpt>
      <trkpt lat="43.5427" lon="-0.68758">
        <ele>70.691</ele>
        <time>2021-04-27T13:41:22Z</time>
      </trkpt>
      <trkpt lat="43.54256" lon="-0.68889">
        <ele>71.775</ele>
        <time>2021-04-27T13:41:42Z</time>
      </trkpt>
      <trkpt lat="43.54264" lon="-0.69003">
        <ele>74.271</ele>
        <time>2021-04-27T13:42:02Z</time>
      </trkpt>
      <trkpt lat="43.54264" lon="-0.69044">
        <ele>75.044</ele>
        <time>2021-04-27T13:42:22Z</time>
      </trkpt>
      <trkpt lat="43.54219" lon="-0.69117">
        <ele>78.487</ele>
        <time>2021-04-27T13:42:42Z</time>
      </trkpt>
      <trkpt lat="43.54188" lon="-0.69181">
        <ele>81.639</ele>
        <time>2021-04-27T13:43:02Z</time>
      </trkpt>
      <trkpt lat="43.54182" lon="-0.6919">
        <ele>82.327</ele>
        <time>2021-04-27T13:43:22Z</time>
      </trkpt>
      <trkpt lat="43.54161" lon="-0.69198">
        <ele>83.662</ele>
        <time>2021-04-27T13:43:42Z</time>
      </trkpt>
      <trkpt lat="43.54138" lon="-0.69218">
        <ele>85.188</ele>
        <time>2021-04-27T13:44:02Z</time>
      </trkpt>
      <trkpt lat="43.54073" lon="-0.6931">
        <ele>90.124</ele>
        <time>2021-04-27T13:44:22Z</time>
      </trkpt>
      <trkpt lat="43.5397" lon="-0.69434">
        <ele>92.526</ele>
        <time>2021-04-27T13:44:42Z</time>
      </trkpt>
      <trkpt lat="43.53919" lon="-0.69514">
        <ele>92.208</ele>
        <time>2021-04-27T13:45:02Z</time>
      </trkpt>
      <trkpt lat="43.53917" lon="-0.69527">
        <ele>92.355</ele>
        <time>2021-04-27T13:45:22Z</time>
      </trkpt>
      <trkpt lat="43.53881" lon="-0.69587">
        <ele>93.089</ele>
        <time>2021-04-27T13:45:42Z</time>
      </trkpt>
      <trkpt lat="43.53755" lon="-0.69816">
        <ele>95.995</ele>
        <time>2021-04-27T13:46:02Z</time>
      </trkpt>
      <trkpt lat="43.53759" lon="-0.69829">
        <ele>95.878</ele>
        <time>2021-04-27T13:46:22Z</time>
      </trkpt>
      <trkpt lat="43.53759" lon="-0.69849">
        <ele>95.631</ele>
        <time>2021-04-27T13:46:42Z</time>
      </trkpt>
      <trkpt lat="43.53661" lon="-0.7016">
        <ele>92.293</ele>
        <time>2021-04-27T13:47:02Z</time>
      </trkpt>
      <trkpt lat="43.53611" lon="-0.70297">
        <ele>95.131</ele>
        <time>2021-04-27T13:47:22Z</time>
      </trkpt>
      <trkpt lat="43.53583" lon="-0.70366">
        <ele>96.066</ele>
        <time>2021-04-27T13:47:42Z</time>
      </trkpt>
      <trkpt lat="43.53569" lon="-0.70391">
        <ele>95.639</ele>
        <time>2021-04-27T13:48:02Z</time>
      </trkpt>
      <trkpt lat="43.53564" lon="-0.70398">
        <ele>95.501</ele>
        <time>2021-04-27T13:48:22Z</time>
      </trkpt>
      <trkpt lat="43.53556" lon="-0.70396">
        <ele>95.321</ele>
        <time>2021-04-27T13:48:42Z</time>
      </trkpt>
      <trkpt lat="43.53437" lon="-0.70711">
        <ele>97.808</ele>
        <time>2021-04-27T13:49:02Z</time>
      </trkpt>
      <trkpt lat="43.53424" lon="-0.70756">
        <ele>98.53</ele>
        <time>2021-04-27T13:49:22Z</time>
      </trkpt>
      <trkpt lat="43.53413" lon="-0.70778">
        <ele>97.724</ele>
        <time>2021-04-27T13:49:42Z</time>
      </trkpt>
      <trkpt lat="43.53363" lon="-0.70853">
        <ele>95.49</ele>
        <time>2021-04-27T13:50:02Z</time>
      </trkpt>
      <trkpt lat="43.53297" lon="-0.71012">
        <ele>94.133</ele>
        <time>2021-04-27T13:50:22Z</time>
      </trkpt>
      <trkpt lat="43.53094" lon="-0.7129">
        <ele>100.026</ele>
        <time>2021-04-27T13:50:42Z</time>
      </trkpt>
      <trkpt lat="43.53059" lon="-0.71333">
        <ele>101.618</ele>
        <time>2021-04-27T13:51:02Z</time>
      </trkpt>
      <trkpt lat="43.53049" lon="-0.71385">
        <ele>100.796</ele>
        <time>2021-04-27T13:51:22Z</time>
      </trkpt>
      <trkpt lat="43.53038" lon="-0.71415">
        <ele>100.771</ele>
        <time>2021-04-27T13:51:42Z</time>
      </trkpt>
      <trkpt lat="43.53021" lon="-0.71447">
        <ele>101.568</ele>
        <time>2021-04-27T13:52:02Z</time>
      </trkpt>
      <trkpt lat="43.52919" lon="-0.71559">
        <ele>107.042</ele>
        <time>2021-04-27T13:52:22Z</time>
      </trkpt>
      <trkpt lat="43.52835" lon="-0.71664">
        <ele>111.826</ele>
        <time>2021-04-27T13:52:42Z</time>
      </trkpt>
      <trkpt lat="43.5271" lon="-0.71788">
        <ele>134.408</ele>
        <time>2021-04-27T13:53:02Z</time>
      </trkpt>
      <trkpt lat="43.52629" lon="-0.71857">
        <ele>140.713</ele>
        <time>2021-04-27T13:53:22Z</time>
      </trkpt>
      <trkpt lat="43.52618" lon="-0.71855">
        <ele>141.587</ele>
        <time>2021-04-27T13:53:42Z</time>
      </trkpt>
      <trkpt lat="43.52593" lon="-0.71816">
        <ele>145.383</ele>
        <time>2021-04-27T13:54:02Z</time>
      </trkpt>
      <trkpt lat="43.52547" lon="-0.71763">
        <ele>150.736</ele>
        <time>2021-04-27T13:54:22Z</time>
      </trkpt>
      <trkpt lat="43.52502" lon="-0.7173">
        <ele>152.739</ele>
        <time>2021-04-27T13:54:42Z</time>
      </trkpt>
      <trkpt lat="43.52478" lon="-0.7172">
        <ele>153.541</ele>
        <time>2021-04-27T13:55:02Z</time>
      </trkpt>
      <trkpt lat="43.52466" lon="-0.71726">
        <ele>154.119</ele>
        <time>2021-04-27T13:55:22Z</time>
      </trkpt>
      <trkpt lat="43.52449" lon="-0.7179">
        <ele>153.144</ele>
        <time>2021-04-27T13:55:42Z</time>
      </trkpt>
      <trkpt lat="43.52444" lon="-0.71831">
        <ele>151.493</ele>
        <time>2021-04-27T13:56:02Z</time>
      </trkpt>
      <trkpt lat="43.52442" lon="-0.71848">
        <ele>151.065</ele>
        <time>2021-04-27T13:56:22Z</time>
      </trkpt>
      <trkpt lat="43.52453" lon="-0.71966">
        <ele>151.021</ele>
        <time>2021-04-27T13:56:42Z</time>
      </trkpt>
      <trkpt lat="43.52467" lon="-0.72078">
        <ele>157.308</ele>
        <time>2021-04-27T13:57:02Z</time>
      </trkpt>
      <trkpt lat="43.52475" lon="-0.72112">
        <ele>157.566</ele>
        <time>2021-04-27T13:57:22Z</time>
      </trkpt>
      <trkpt lat="43.52486" lon="-0.7214">
        <ele>157.32</ele>
        <time>2021-04-27T13:57:42Z</time>
      </trkpt>
      <trkpt lat="43.52502" lon="-0.72162">
        <ele>157.026</ele>
        <time>2021-04-27T13:58:02Z</time>
      </trkpt>
      <trkpt lat="43.52523" lon="-0.72209">
        <ele>154.679</ele>
        <time>2021-04-27T13:58:22Z</time>
      </trkpt>
      <trkpt lat="43.52528" lon="-0.72248">
        <ele>154.662</ele>
        <time>2021-04-27T13:58:42Z</time>
      </trkpt>
      <trkpt lat="43.52527" lon="-0.72275">
        <ele>154.874</ele>
        <time>2021-04-27T13:59:02Z</time>
      </trkpt>
      <trkpt lat="43.5252" lon="-0.7231">
        <ele>155.692</ele>
        <time>2021-04-27T13:59:22Z</time>
      </trkpt>
      <trkpt lat="43.52477" lon="-0.72426">
        <ele>161.137</ele>
        <time>2021-04-27T13:59:42Z</time>
      </trkpt>
      <trkpt lat="43.52455" lon="-0.72473">
        <ele>163.074</ele>
        <time>2021-04-27T14:00:02Z</time>
      </trkpt>
      <trkpt lat="43.52416" lon="-0.72591">
        <ele>167.956</ele>
        <time>2021-04-27T14:00:22Z</time>
      </trkpt>
      <trkpt lat="43.52363" lon="-0.727">
        <ele>164.321</ele>
        <time>2021-04-27T14:00:42Z</time>
      </trkpt>
      <trkpt lat="43.52335" lon="-0.72735">
        <ele>164.208</ele>
        <time>2021-04-27T14:01:02Z</time>
      </trkpt>
      <trkpt lat="43.52276" lon="-0.7272">
        <ele>159.564</ele>
        <time>2021-04-27T14:01:22Z</time>
      </trkpt>
      <trkpt lat="43.52234" lon="-0.72715">
        <ele>158.238</ele>
        <time>2021-04-27T14:01:42Z</time>
      </trkpt>
      <trkpt lat="43.5217" lon="-0.72724">
        <ele>159.964</ele>
        <time>2021-04-27T14:02:02Z</time>
      </trkpt>
      <trkpt lat="43.52134" lon="-0.72737">
        <ele>162.337</ele>
        <time>2021-04-27T14:02:22Z</time>
      </trkpt>
      <trkpt lat="43.52102" lon="-0.72758">
        <ele>164.15</ele>
        <time>2021-04-27T14:02:42Z</time>
      </trkpt>
      <trkpt lat="43.52078" lon="-0.72784">
        <ele>164.042</ele>
        <time>2021-04-27T14:03:02Z</time>
      </trkpt>
      <trkpt lat="43.52058" lon="-0.72812">
        <ele>162.91</ele>
        <time>2021-04-27T14:03:22Z</time>
      </trkpt>
      <trkpt lat="43.52026" lon="-0.72872">
        <ele>161.745</ele>
        <time>2021-04-27T14:03:42Z</time>
      </trkpt>
      <trkpt lat="43.51949" lon="-0.73114">
        <ele>159.638</ele>
        <time>2021-04-27T14:04:02Z</time>
      </trkpt>
      <trkpt lat="43.51926" lon="-0.73207">
        <ele>159.97</ele>
        <time>2021-04-27T14:04:22Z</time>
      </trkpt>
      <trkpt lat="43.51912" lon="-0.7325">
        <ele>160.617</ele>
        <time>2021-04-27T14:04:42Z</time>
      </trkpt>
      <trkpt lat="43.51899" lon="-0.73282">
        <ele>160.808</ele>
        <time>2021-04-27T14:05:02Z</time>
      </trkpt>
      <trkpt lat="43.51853" lon="-0.73368">
        <ele>163.89</ele>
        <time>2021-04-27T14:05:22Z</time>
      </trkpt>
      <trkpt lat="43.51831" lon="-0.73426">
        <ele>163.654</ele>
        <time>2021-04-27T14:05:42Z</time>
      </trkpt>
      <trkpt lat="43.51828" lon="-0.73505">
        <ele>160.31</ele>
        <time>2021-04-27T14:06:02Z</time>
      </trkpt>
      <trkpt lat="43.51811" lon="-0.73574">
        <ele>156.243</ele>
        <time>2021-04-27T14:06:22Z</time>
      </trkpt>
      <trkpt lat="43.51806" lon="-0.73627">
        <ele>154.616</ele>
        <time>2021-04-27T14:06:42Z</time>
      </trkpt>
      <trkpt lat="43.51809" lon="-0.73786">
        <ele>153.548</ele>
        <time>2021-04-27T14:07:02Z</time>
      </trkpt>
      <trkpt lat="43.51789" lon="-0.73913">
        <ele>152.936</ele>
        <time>2021-04-27T14:07:22Z</time>
      </trkpt>
      <trkpt lat="43.51783" lon="-0.73988">
        <ele>150.811</ele>
        <time>2021-04-27T14:07:42Z</time>
      </trkpt>
      <trkpt lat="43.51783" lon="-0.74039">
        <ele>150.726</ele>
        <time>2021-04-27T14:08:02Z</time>
      </trkpt>
      <trkpt lat="43.51786" lon="-0.74097">
        <ele>151.447</ele>
        <time>2021-04-27T14:08:22Z</time>
      </trkpt>
      <trkpt lat="43.51781" lon="-0.74114">
        <ele>152.011</ele>
        <time>2021-04-27T14:08:42Z</time>
      </trkpt>
      <trkpt lat="43.51775" lon="-0.74129">
        <ele>152.808</ele>
        <time>2021-04-27T14:09:02Z</time>
      </trkpt>
      <trkpt lat="43.51764" lon="-0.7414">
        <ele>153.799</ele>
        <time>2021-04-27T14:09:22Z</time>
      </trkpt>
      <trkpt lat="43.51744" lon="-0.74151">
        <ele>155.163</ele>
        <time>2021-04-27T14:09:42Z</time>
      </trkpt>
      <trkpt lat="43.51686" lon="-0.74226">
        <ele>161.699</ele>
        <time>2021-04-27T14:10:02Z</time>
      </trkpt>
      <trkpt lat="43.5164" lon="-0.74284">
        <ele>165.662</ele>
        <time>2021-04-27T14:10:22Z</time>
      </trkpt>
      <trkpt lat="43.51623" lon="-0.74318">
        <ele>167.355</ele>
        <time>2021-04-27T14:10:42Z</time>
      </trkpt>
      <trkpt lat="43.5159" lon="-0.74365">
        <ele>169.877</ele>
        <time>2021-04-27T14:11:02Z</time>
      </trkpt>
      <trkpt lat="43.51566" lon="-0.74428">
        <ele>171.675</ele>
        <time>2021-04-27T14:11:22Z</time>
      </trkpt>
      <trkpt lat="43.51517" lon="-0.74483">
        <ele>173.44</ele>
        <time>2021-04-27T14:11:42Z</time>
      </trkpt>
      <trkpt lat="43.51506" lon="-0.7449">
        <ele>173.888</ele>
        <time>2021-04-27T14:12:02Z</time>
      </trkpt>
      <trkpt lat="43.51448" lon="-0.74483">
        <ele>171.424</ele>
        <time>2021-04-27T14:12:22Z</time>
      </trkpt>
      <trkpt lat="43.51425" lon="-0.74496">
        <ele>170.326</ele>
        <time>2021-04-27T14:12:42Z</time>
      </trkpt>
      <trkpt lat="43.51367" lon="-0.7455">
        <ele>167.708</ele>
        <time>2021-04-27T14:13:02Z</time>
      </trkpt>
      <trkpt lat="43.51344" lon="-0.74582">
        <ele>166.765</ele>
        <time>2021-04-27T14:13:22Z</time>
      </trkpt>
      <trkpt lat="43.51288" lon="-0.74687">
        <ele>165.349</ele>
        <time>2021-04-27T14:13:42Z</time>
      </trkpt>
      <trkpt lat="43.51254" lon="-0.74726">
        <ele>168.345</ele>
        <time>2021-04-27T14:14:02Z</time>
      </trkpt>
      <trkpt lat="43.51193" lon="-0.7482">
        <ele>166.998</ele>
        <time>2021-04-27T14:14:22Z</time>
      </trkpt>
      <trkpt lat="43.51149" lon="-0.74955">
        <ele>173.261</ele>
        <time>2021-04-27T14:14:42Z</time>
      </trkpt>
      <trkpt lat="43.51134" lon="-0.74983">
        <ele>174.253</ele>
        <time>2021-04-27T14:15:02Z</time>
      </trkpt>
      <trkpt lat="43.51101" lon="-0.75026">
        <ele>173.121</ele>
        <time>2021-04-27T14:15:22Z</time>
      </trkpt>
      <trkpt lat="43.51051" lon="-0.75112">
        <ele>162.236</ele>
        <time>2021-04-27T14:15:42Z</time>
      </trkpt>
      <trkpt lat="43.51017" lon="-0.75157">
        <ele>157.176</ele>
        <time>2021-04-27T14:16:02Z</time>
      </trkpt>
      <trkpt lat="43.50972" lon="-0.75207">
        <ele>152.59</ele>
        <time>2021-04-27T14:16:22Z</time>
      </trkpt>
      <trkpt lat="43.50952" lon="-0.75239">
        <ele>153.119</ele>
        <time>2021-04-27T14:16:42Z</time>
      </trkpt>
      <trkpt lat="43.50908" lon="-0.7532">
        <ele>155.008</ele>
        <time>2021-04-27T14:17:02Z</time>
      </trkpt>
      <trkpt lat="43.50876" lon="-0.75415">
        <ele>153.124</ele>
        <time>2021-04-27T14:17:22Z</time>
      </trkpt>
      <trkpt lat="43.50855" lon="-0.7544">
        <ele>152.518</ele>
        <time>2021-04-27T14:17:42Z</time>
      </trkpt>
      <trkpt lat="43.5079" lon="-0.7547">
        <ele>151.564</ele>
        <time>2021-04-27T14:18:02Z</time>
      </trkpt>
      <trkpt lat="43.5077" lon="-0.75468">
        <ele>152.557</ele>
        <time>2021-04-27T14:18:22Z</time>
      </trkpt>
      <trkpt lat="43.5074" lon="-0.75455">
        <ele>154.29</ele>
        <time>2021-04-27T14:18:42Z</time>
      </trkpt>
      <trkpt lat="43.50704" lon="-0.75432">
        <ele>153.862</ele>
        <time>2021-04-27T14:19:02Z</time>
      </trkpt>
      <trkpt lat="43.50651" lon="-0.7537">
        <ele>152.26</ele>
        <time>2021-04-27T14:19:22Z</time>
      </trkpt>
      <trkpt lat="43.50644" lon="-0.75365">
        <ele>151.165</ele>
        <time>2021-04-27T14:19:42Z</time>
      </trkpt>
      <trkpt lat="43.50609" lon="-0.75357">
        <ele>145.413</ele>
        <time>2021-04-27T14:20:02Z</time>
      </trkpt>
      <trkpt lat="43.50588" lon="-0.75348">
        <ele>141.943</ele>
        <time>2021-04-27T14:20:22Z</time>
      </trkpt>
      <trkpt lat="43.50574" lon="-0.75333">
        <ele>141.107</ele>
        <time>2021-04-27T14:20:42Z</time>
      </trkpt>
      <trkpt lat="43.50547" lon="-0.75325">
        <ele>138.208</ele>
        <time>2021-04-27T14:21:02Z</time>
      </trkpt>
      <trkpt lat="43.50514" lon="-0.75325">
        <ele>134.918</ele>
        <time>2021-04-27T14:21:22Z</time>
      </trkpt>
      <trkpt lat="43.50483" lon="-0.75331">
        <ele>131.582</ele>
        <time>2021-04-27T14:21:42Z</time>
      </trkpt>
      <trkpt lat="43.50469" lon="-0.75348">
        <ele>128.198</ele>
        <time>2021-04-27T14:22:02Z</time>
      </trkpt>
      <trkpt lat="43.50275" lon="-0.7543">
        <ele>104.471</ele>
        <time>2021-04-27T14:22:22Z</time>
      </trkpt>
      <trkpt lat="43.50177" lon="-0.75488">
        <ele>102.264</ele>
        <time>2021-04-27T14:22:42Z</time>
      </trkpt>
      <trkpt lat="43.5013" lon="-0.75524">
        <ele>101.556</ele>
        <time>2021-04-27T14:23:02Z</time>
      </trkpt>
      <trkpt lat="43.50068" lon="-0.7555">
        <ele>101.614</ele>
        <time>2021-04-27T14:23:22Z</time>
      </trkpt>
      <trkpt lat="43.50021" lon="-0.75576">
        <ele>103.459</ele>
        <time>2021-04-27T14:23:42Z</time>
      </trkpt>
      <trkpt lat="43.49957" lon="-0.75629">
        <ele>107.077</ele>
        <time>2021-04-27T14:24:02Z</time>
      </trkpt>
      <trkpt lat="43.49915" lon="-0.75672">
        <ele>109.261</ele>
        <time>2021-04-27T14:24:22Z</time>
      </trkpt>
      <trkpt lat="43.49836" lon="-0.75769">
        <ele>109.127</ele>
        <time>2021-04-27T14:24:42Z</time>
      </trkpt>
      <trkpt lat="43.49771" lon="-0.75857">
        <ele>107.208</ele>
        <time>2021-04-27T14:25:02Z</time>
      </trkpt>
      <trkpt lat="43.49738" lon="-0.75912">
        <ele>105.994</ele>
        <time>2021-04-27T14:25:22Z</time>
      </trkpt>
      <trkpt lat="43.49697" lon="-0.75992">
        <ele>104.288</ele>
        <time>2021-04-27T14:25:42Z</time>
      </trkpt>
      <trkpt lat="43.49686" lon="-0.76009">
        <ele>104.654</ele>
        <time>2021-04-27T14:26:02Z</time>
      </trkpt>
      <trkpt lat="43.4962" lon="-0.76091">
        <ele>108.377</ele>
        <time>2021-04-27T14:26:22Z</time>
      </trkpt>
      <trkpt lat="43.49537" lon="-0.76206">
        <ele>110.55</ele>
        <time>2021-04-27T14:26:42Z</time>
      </trkpt>
      <trkpt lat="43.49467" lon="-0.76314">
        <ele>111.192</ele>
        <time>2021-04-27T14:27:02Z</time>
      </trkpt>
      <trkpt lat="43.49439" lon="-0.7637">
        <ele>113.88</ele>
        <time>2021-04-27T14:27:22Z</time>
      </trkpt>
      <trkpt lat="43.4938" lon="-0.7647">
        <ele>116.075</ele>
        <time>2021-04-27T14:27:42Z</time>
      </trkpt>
      <trkpt lat="43.4935" lon="-0.76503">
        <ele>115.913</ele>
        <time>2021-04-27T14:28:02Z</time>
      </trkpt>
      <trkpt lat="43.49324" lon="-0.76548">
        <ele>113.043</ele>
        <time>2021-04-27T14:28:22Z</time>
      </trkpt>
      <trkpt lat="43.49224" lon="-0.76747">
        <ele>102.707</ele>
        <time>2021-04-27T14:28:42Z</time>
      </trkpt>
      <trkpt lat="43.49167" lon="-0.76902">
        <ele>103.608</ele>
        <time>2021-04-27T14:29:02Z</time>
      </trkpt>
      <trkpt lat="43.49145" lon="-0.76949">
        <ele>102.828</ele>
        <time>2021-04-27T14:29:22Z</time>
      </trkpt>
      <trkpt lat="43.49135" lon="-0.76983">
        <ele>102.762</ele>
        <time>2021-04-27T14:29:42Z</time>
      </trkpt>
      <trkpt lat="43.491" lon="-0.77056">
        <ele>97.878</ele>
        <time>2021-04-27T14:30:02Z</time>
      </trkpt>
      <trkpt lat="43.4902" lon="-0.77189">
        <ele>85.581</ele>
        <time>2021-04-27T14:30:22Z</time>
      </trkpt>
      <trkpt lat="43.48852" lon="-0.77455">
        <ele>74.344</ele>
        <time>2021-04-27T14:30:42Z</time>
      </trkpt>
      <trkpt lat="43.48827" lon="-0.77481">
        <ele>74.366</ele>
        <time>2021-04-27T14:31:02Z</time>
      </trkpt>
      <trkpt lat="43.48802" lon="-0.77498">
        <ele>74.424</ele>
        <time>2021-04-27T14:31:22Z</time>
      </trkpt>
      <trkpt lat="43.48637" lon="-0.77578">
        <ele>62.149</ele>
        <time>2021-04-27T14:31:42Z</time>
      </trkpt>
      <trkpt lat="43.48664" lon="-0.77687">
        <ele>60.366</ele>
        <time>2021-04-27T14:32:02Z</time>
      </trkpt>
      <trkpt lat="43.48563" lon="-0.7773">
        <ele>64.329</ele>
        <time>2021-04-27T14:32:22Z</time>
      </trkpt>
      <trkpt lat="43.48508" lon="-0.7776">
        <ele>67.621</ele>
        <time>2021-04-27T14:32:42Z</time>
      </trkpt>
      <trkpt lat="43.48492" lon="-0.77689">
        <ele>67.008</ele>
        <time>2021-04-27T14:33:02Z</time>
      </trkpt>
      <trkpt lat="43.4848" lon="-0.7767">
        <ele>67.563</ele>
        <time>2021-04-27T14:33:22Z</time>
      </trkpt>
      <trkpt lat="43.48466" lon="-0.77659">
        <ele>68.377</ele>
        <time>2021-04-27T14:33:42Z</time>
      </trkpt>
      <trkpt lat="43.48449" lon="-0.77653">
        <ele>69.513</ele>
        <time>2021-04-27T14:34:02Z</time>
      </trkpt>
      <trkpt lat="43.48301" lon="-0.77786">
        <ele>77.486</ele>
        <time>2021-04-27T14:34:22Z</time>
      </trkpt>
      <trkpt lat="43.48293" lon="-0.77796">
        <ele>78.169</ele>
        <time>2021-04-27T14:34:42Z</time>
      </trkpt>
      <trkpt lat="43.48284" lon="-0.7782">
        <ele>79.651</ele>
        <time>2021-04-27T14:35:02Z</time>
      </trkpt>
      <trkpt lat="43.48262" lon="-0.77893">
        <ele>82.619</ele>
        <time>2021-04-27T14:35:22Z</time>
      </trkpt>
      <trkpt lat="43.48242" lon="-0.77945">
        <ele>84.224</ele>
        <time>2021-04-27T14:35:42Z</time>
      </trkpt>
      <trkpt lat="43.48232" lon="-0.77962">
        <ele>84.529</ele>
        <time>2021-04-27T14:36:02Z</time>
      </trkpt>
      <trkpt lat="43.48218" lon="-0.77977">
        <ele>84.8</ele>
        <time>2021-04-27T14:36:22Z</time>
      </trkpt>
      <trkpt lat="43.48201" lon="-0.77987">
        <ele>85.32</ele>
        <time>2021-04-27T14:36:42Z</time>
      </trkpt>
      <trkpt lat="43.48175" lon="-0.77992">
        <ele>86.208</ele>
        <time>2021-04-27T14:37:02Z</time>
      </trkpt>
      <trkpt lat="43.48078" lon="-0.77979">
        <ele>96.039</ele>
        <time>2021-04-27T14:37:22Z</time>
      </trkpt>
      <trkpt lat="43.48013" lon="-0.77977">
        <ele>102.283</ele>
        <time>2021-04-27T14:37:42Z</time>
      </trkpt>
      <trkpt lat="43.47994" lon="-0.77983">
        <ele>104.089</ele>
        <time>2021-04-27T14:38:02Z</time>
      </trkpt>
      <trkpt lat="43.47972" lon="-0.77998">
        <ele>106.892</ele>
        <time>2021-04-27T14:38:22Z</time>
      </trkpt>
      <trkpt lat="43.47977" lon="-0.78013">
        <ele>106.085</ele>
        <time>2021-04-27T14:38:42Z</time>
      </trkpt>
      <trkpt lat="43.47979" lon="-0.78024">
        <ele>105.917</ele>
        <time>2021-04-27T14:39:02Z</time>
      </trkpt>
      <trkpt lat="43.47943" lon="-0.78163">
        <ele>108.895</ele>
        <time>2021-04-27T14:39:22Z</time>
      </trkpt>
      <trkpt lat="43.4794" lon="-0.78217">
        <ele>106.62</ele>
        <time>2021-04-27T14:39:42Z</time>
      </trkpt>
      <trkpt lat="43.47913" lon="-0.78284">
        <ele>104.864</ele>
        <time>2021-04-27T14:40:02Z</time>
      </trkpt>
      <trkpt lat="43.47877" lon="-0.78359">
        <ele>105.106</ele>
        <time>2021-04-27T14:40:22Z</time>
      </trkpt>
      <trkpt lat="43.47862" lon="-0.78378">
        <ele>106.616</ele>
        <time>2021-04-27T14:40:42Z</time>
      </trkpt>
      <trkpt lat="43.47849" lon="-0.78389">
        <ele>108.208</ele>
        <time>2021-04-27T14:41:02Z</time>
      </trkpt>
      <trkpt lat="43.47842" lon="-0.78404">
        <ele>109.073</ele>
        <time>2021-04-27T14:41:22Z</time>
      </trkpt>
      <trkpt lat="43.47817" lon="-0.78509">
        <ele>111.467</ele>
        <time>2021-04-27T14:41:42Z</time>
      </trkpt>
      <trkpt lat="43.47807" lon="-0.7853">
        <ele>111.963</ele>
        <time>2021-04-27T14:42:02Z</time>
      </trkpt>
      <trkpt lat="43.47772" lon="-0.78599">
        <ele>113.376</ele>
        <time>2021-04-27T14:42:22Z</time>
      </trkpt>
      <trkpt lat="43.47759" lon="-0.78633">
        <ele>114.169</ele>
        <time>2021-04-27T14:42:42Z</time>
      </trkpt>
      <trkpt lat="43.47756" lon="-0.78659">
        <ele>114.441</ele>
        <time>2021-04-27T14:43:02Z</time>
      </trkpt>
      <trkpt lat="43.47761" lon="-0.78704">
        <ele>115.799</ele>
        <time>2021-04-27T14:43:22Z</time>
      </trkpt>
      <trkpt lat="43.47759" lon="-0.78723">
        <ele>116.784</ele>
        <time>2021-04-27T14:43:42Z</time>
      </trkpt>
      <trkpt lat="43.47733" lon="-0.78777">
        <ele>119.421</ele>
        <time>2021-04-27T14:44:02Z</time>
      </trkpt>
      <trkpt lat="43.47728" lon="-0.7879">
        <ele>119.541</ele>
        <time>2021-04-27T14:44:22Z</time>
      </trkpt>
      <trkpt lat="43.47726" lon="-0.78799">
        <ele>119.605</ele>
        <time>2021-04-27T14:44:42Z</time>
      </trkpt>
      <trkpt lat="43.47728" lon="-0.78814">
        <ele>120.108</ele>
        <time>2021-04-27T14:45:02Z</time>
      </trkpt>
      <trkpt lat="43.47751" lon="-0.7888">
        <ele>123.519</ele>
        <time>2021-04-27T14:45:22Z</time>
      </trkpt>
      <trkpt lat="43.47798" lon="-0.78996">
        <ele>120.113</ele>
        <time>2021-04-27T14:45:42Z</time>
      </trkpt>
      <trkpt lat="43.47815" lon="-0.79032">
        <ele>118.199</ele>
        <time>2021-04-27T14:46:02Z</time>
      </trkpt>
      <trkpt lat="43.4787" lon="-0.79084">
        <ele>115.822</ele>
        <time>2021-04-27T14:46:22Z</time>
      </trkpt>
      <trkpt lat="43.47907" lon="-0.79135">
        <ele>112.965</ele>
        <time>2021-04-27T14:46:42Z</time>
      </trkpt>
      <trkpt lat="43.47965" lon="-0.79236">
        <ele>116.577</ele>
        <time>2021-04-27T14:47:02Z</time>
      </trkpt>
      <trkpt lat="43.47999" lon="-0.79359">
        <ele>117.865</ele>
        <time>2021-04-27T14:47:22Z</time>
      </trkpt>
      <trkpt lat="43.48011" lon="-0.79382">
        <ele>121.16</ele>
        <time>2021-04-27T14:47:42Z</time>
      </trkpt>
      <trkpt lat="43.4801" lon="-0.79399">
        <ele>120.758</ele>
        <time>2021-04-27T14:48:02Z</time>
      </trkpt>
      <trkpt lat="43.47988" lon="-0.79432">
        <ele>116.152</ele>
        <time>2021-04-27T14:48:22Z</time>
      </trkpt>
      <trkpt lat="43.47986" lon="-0.79455">
        <ele>116.117</ele>
        <time>2021-04-27T14:48:42Z</time>
      </trkpt>
      <trkpt lat="43.47991" lon="-0.79492">
        <ele>117.308</ele>
        <time>2021-04-27T14:49:02Z</time>
      </trkpt>
      <trkpt lat="43.47997" lon="-0.79522">
        <ele>117.282</ele>
        <time>2021-04-27T14:49:22Z</time>
      </trkpt>
      <trkpt lat="43.48013" lon="-0.79562">
        <ele>117.386</ele>
        <time>2021-04-27T14:49:42Z</time>
      </trkpt>
      <trkpt lat="43.48025" lon="-0.79614">
        <ele>113.452</ele>
        <time>2021-04-27T14:50:02Z</time>
      </trkpt>
      <trkpt lat="43.4805" lon="-0.79668">
        <ele>108.175</ele>
        <time>2021-04-27T14:50:22Z</time>
      </trkpt>
      <trkpt lat="43.4805" lon="-0.79683">
        <ele>106.868</ele>
        <time>2021-04-27T14:50:42Z</time>
      </trkpt>
      <trkpt lat="43.48028" lon="-0.79734">
        <ele>101.54</ele>
        <time>2021-04-27T14:51:02Z</time>
      </trkpt>
      <trkpt lat="43.48028" lon="-0.79798">
        <ele>97.888</ele>
        <time>2021-04-27T14:51:22Z</time>
      </trkpt>
      <trkpt lat="43.48014" lon="-0.79861">
        <ele>94.233</ele>
        <time>2021-04-27T14:51:42Z</time>
      </trkpt>
      <trkpt lat="43.48063" lon="-0.79897">
        <ele>93.179</ele>
        <time>2021-04-27T14:52:02Z</time>
      </trkpt>
      <trkpt lat="43.48091" lon="-0.79931">
        <ele>92.505</ele>
        <time>2021-04-27T14:52:22Z</time>
      </trkpt>
      <trkpt lat="43.48113" lon="-0.79981">
        <ele>90.225</ele>
        <time>2021-04-27T14:52:42Z</time>
      </trkpt>
      <trkpt lat="43.48192" lon="-0.80099">
        <ele>83.708</ele>
        <time>2021-04-27T14:53:02Z</time>
      </trkpt>
      <trkpt lat="43.48169" lon="-0.80129">
        <ele>84.894</ele>
        <time>2021-04-27T14:53:22Z</time>
      </trkpt>
      <trkpt lat="43.48144" lon="-0.8017">
        <ele>83.878</ele>
        <time>2021-04-27T14:53:42Z</time>
      </trkpt>
      <trkpt lat="43.48103" lon="-0.80245">
        <ele>79.354</ele>
        <time>2021-04-27T14:54:02Z</time>
      </trkpt>
      <trkpt lat="43.48081" lon="-0.80273">
        <ele>78.297</ele>
        <time>2021-04-27T14:54:22Z</time>
      </trkpt>
      <trkpt lat="43.48052" lon="-0.80305">
        <ele>77.09</ele>
        <time>2021-04-27T14:54:42Z</time>
      </trkpt>
      <trkpt lat="43.47999" lon="-0.80348">
        <ele>75.952</ele>
        <time>2021-04-27T14:55:02Z</time>
      </trkpt>
      <trkpt lat="43.47941" lon="-0.80389">
        <ele>72.32</ele>
        <time>2021-04-27T14:55:22Z</time>
      </trkpt>
      <trkpt lat="43.47882" lon="-0.80427">
        <ele>71.335</ele>
        <time>2021-04-27T14:55:42Z</time>
      </trkpt>
      <trkpt lat="43.47803" lon="-0.80464">
        <ele>69.231</ele>
        <time>2021-04-27T14:56:02Z</time>
      </trkpt>
      <trkpt lat="43.47772" lon="-0.80489">
        <ele>68.361</ele>
        <time>2021-04-27T14:56:22Z</time>
      </trkpt>
      <trkpt lat="43.47756" lon="-0.80519">
        <ele>67.607</ele>
        <time>2021-04-27T14:56:42Z</time>
      </trkpt>
      <trkpt lat="43.47736" lon="-0.80567">
        <ele>65.508</ele>
        <time>2021-04-27T14:57:02Z</time>
      </trkpt>
      <trkpt lat="43.47692" lon="-0.8059">
        <ele>62.29</ele>
        <time>2021-04-27T14:57:22Z</time>
      </trkpt>
      <trkpt lat="43.47624" lon="-0.8061">
        <ele>59.634</ele>
        <time>2021-04-27T14:57:42Z</time>
      </trkpt>
      <trkpt lat="43.47596" lon="-0.80631">
        <ele>59.25</ele>
        <time>2021-04-27T14:58:02Z</time>
      </trkpt>
      <trkpt lat="43.47569" lon="-0.80657">
        <ele>60.283</ele>
        <time>2021-04-27T14:58:22Z</time>
      </trkpt>
      <trkpt lat="43.4753" lon="-0.8068">
        <ele>63.566</ele>
        <time>2021-04-27T14:58:42Z</time>
      </trkpt>
      <trkpt lat="43.47491" lon="-0.80693">
        <ele>66.858</ele>
        <time>2021-04-27T14:59:02Z</time>
      </trkpt>
      <trkpt lat="43.47427" lon="-0.80702">
        <ele>72.796</ele>
        <time>2021-04-27T14:59:22Z</time>
      </trkpt>
      <trkpt lat="43.47398" lon="-0.80719">
        <ele>75.281</ele>
        <time>2021-04-27T14:59:42Z</time>
      </trkpt>
      <trkpt lat="43.47378" lon="-0.80728">
        <ele>76.548</ele>
        <time>2021-04-27T15:00:02Z</time>
      </trkpt>
      <trkpt lat="43.47214" lon="-0.80745">
        <ele>80.561</ele>
        <time>2021-04-27T15:00:22Z</time>
      </trkpt>
      <trkpt lat="43.4718" lon="-0.80764">
        <ele>82.617</ele>
        <time>2021-04-27T15:00:42Z</time>
      </trkpt>
      <trkpt lat="43.47169" lon="-0.80779">
        <ele>83.708</ele>
        <time>2021-04-27T15:01:02Z</time>
      </trkpt>
      <trkpt lat="43.47138" lon="-0.80811">
        <ele>84.961</ele>
        <time>2021-04-27T15:01:22Z</time>
      </trkpt>
      <trkpt lat="43.47122" lon="-0.80818">
        <ele>84.875</ele>
        <time>2021-04-27T15:01:42Z</time>
      </trkpt>
      <trkpt lat="43.47068" lon="-0.8082">
        <ele>84.031</ele>
        <time>2021-04-27T15:02:02Z</time>
      </trkpt>
      <trkpt lat="43.4704" lon="-0.80831">
        <ele>85.024</ele>
        <time>2021-04-27T15:02:22Z</time>
      </trkpt>
      <trkpt lat="43.47027" lon="-0.80841">
        <ele>85.727</ele>
        <time>2021-04-27T15:02:42Z</time>
      </trkpt>
      <trkpt lat="43.46977" lon="-0.80908">
        <ele>87.289</ele>
        <time>2021-04-27T15:03:02Z</time>
      </trkpt>
      <trkpt lat="43.46946" lon="-0.8094">
        <ele>84.837</ele>
        <time>2021-04-27T15:03:22Z</time>
      </trkpt>
      <trkpt lat="43.46924" lon="-0.80955">
        <ele>82.752</ele>
        <time>2021-04-27T15:03:42Z</time>
      </trkpt>
      <trkpt lat="43.46914" lon="-0.80968">
        <ele>81.597</ele>
        <time>2021-04-27T15:04:02Z</time>
      </trkpt>
      <trkpt lat="43.4689" lon="-0.81032">
        <ele>78.323</ele>
        <time>2021-04-27T15:04:22Z</time>
      </trkpt>
      <trkpt lat="43.46858" lon="-0.81105">
        <ele>75.525</ele>
        <time>2021-04-27T15:04:42Z</time>
      </trkpt>
      <trkpt lat="43.46834" lon="-0.8115">
        <ele>74.008</ele>
        <time>2021-04-27T15:05:02Z</time>
      </trkpt>
      <trkpt lat="43.46781" lon="-0.81193">
        <ele>74.676</ele>
        <time>2021-04-27T15:05:22Z</time>
      </trkpt>
      <trkpt lat="43.4672" lon="-0.81294">
        <ele>76.51</ele>
        <time>2021-04-27T15:05:42Z</time>
      </trkpt>
      <trkpt lat="43.46616" lon="-0.81436">
        <ele>78.696</ele>
        <time>2021-04-27T15:06:02Z</time>
      </trkpt>
      <trkpt lat="43.46554" lon="-0.81537">
        <ele>79.829</ele>
        <time>2021-04-27T15:06:22Z</time>
      </trkpt>
      <trkpt lat="43.46471" lon="-0.81663">
        <ele>80.242</ele>
        <time>2021-04-27T15:06:42Z</time>
      </trkpt>
      <trkpt lat="43.46443" lon="-0.81695">
        <ele>79.624</ele>
        <time>2021-04-27T15:07:02Z</time>
      </trkpt>
      <trkpt lat="43.464" lon="-0.81732">
        <ele>79.882</ele>
        <time>2021-04-27T15:07:22Z</time>
      </trkpt>
      <trkpt lat="43.46368" lon="-0.81768">
        <ele>81.867</ele>
        <time>2021-04-27T15:07:42Z</time>
      </trkpt>
      <trkpt lat="43.46348" lon="-0.81809">
        <ele>84.248</ele>
        <time>2021-04-27T15:08:02Z</time>
      </trkpt>
      <trkpt lat="43.46326" lon="-0.81833">
        <ele>86.261</ele>
        <time>2021-04-27T15:08:22Z</time>
      </trkpt>
      <trkpt lat="43.46256" lon="-0.81931">
        <ele>90.717</ele>
        <time>2021-04-27T15:08:42Z</time>
      </trkpt>
      <trkpt lat="43.46202" lon="-0.82">
        <ele>95.008</ele>
        <time>2021-04-27T15:09:02Z</time>
      </trkpt>
      <trkpt lat="43.46188" lon="-0.82009">
        <ele>96.771</ele>
        <time>2021-04-27T15:09:22Z</time>
      </trkpt>
      <trkpt lat="43.46161" lon="-0.82021">
        <ele>99.835</ele>
        <time>2021-04-27T15:09:42Z</time>
      </trkpt>
      <trkpt lat="43.46132" lon="-0.82028">
        <ele>102.051</ele>
        <time>2021-04-27T15:10:02Z</time>
      </trkpt>
      <trkpt lat="43.46133" lon="-0.82064">
        <ele>104.864</ele>
        <time>2021-04-27T15:10:22Z</time>
      </trkpt>
      <trkpt lat="43.46132" lon="-0.82092">
        <ele>106.987</ele>
        <time>2021-04-27T15:10:42Z</time>
      </trkpt>
      <trkpt lat="43.46124" lon="-0.82109">
        <ele>108.289</ele>
        <time>2021-04-27T15:11:02Z</time>
      </trkpt>
      <trkpt lat="43.46121" lon="-0.82103">
        <ele>108.257</ele>
        <time>2021-04-27T15:11:22Z</time>
      </trkpt>
      <trkpt lat="43.46105" lon="-0.82101">
        <ele>109.382</ele>
        <time>2021-04-27T15:11:42Z</time>
      </trkpt>
      <trkpt lat="43.46094" lon="-0.82103">
        <ele>110.324</ele>
        <time>2021-04-27T15:12:02Z</time>
      </trkpt>
      <trkpt lat="43.46087" lon="-0.82101">
        <ele>110.804</ele>
        <time>2021-04-27T15:12:22Z</time>
      </trkpt>
      <trkpt lat="43.46087" lon="-0.82073">
        <ele>108.814</ele>
        <time>2021-04-27T15:12:42Z</time>
      </trkpt>
      <trkpt lat="43.46091" lon="-0.82045">
        <ele>105.808</ele>
        <time>2021-04-27T15:13:02Z</time>
      </trkpt>
      <trkpt lat="43.46115" lon="-0.81989">
        <ele>99.999</ele>
        <time>2021-04-27T15:13:22Z</time>
      </trkpt>
      <trkpt lat="43.46112" lon="-0.81966">
        <ele>98.673</ele>
        <time>2021-04-27T15:13:42Z</time>
      </trkpt>
      <trkpt lat="43.46121" lon="-0.81863">
        <ele>92.529</ele>
        <time>2021-04-27T15:14:02Z</time>
      </trkpt>
      <trkpt lat="43.46118" lon="-0.81828">
        <ele>91.082</ele>
        <time>2021-04-27T15:14:22Z</time>
      </trkpt>
      <trkpt lat="43.4611" lon="-0.81807">
        <ele>91.145</ele>
        <time>2021-04-27T15:14:42Z</time>
      </trkpt>
      <trkpt lat="43.46101" lon="-0.81743">
        <ele>91.697</ele>
        <time>2021-04-27T15:15:02Z</time>
      </trkpt>
      <trkpt lat="43.46009" lon="-0.81618">
        <ele>100.355</ele>
        <time>2021-04-27T15:15:22Z</time>
      </trkpt>
      <trkpt lat="43.45993" lon="-0.81605">
        <ele>101.12</ele>
        <time>2021-04-27T15:15:42Z</time>
      </trkpt>
      <trkpt lat="43.45974" lon="-0.81594">
        <ele>101.457</ele>
        <time>2021-04-27T15:16:02Z</time>
      </trkpt>
      <trkpt lat="43.45948" lon="-0.81588">
        <ele>102.1</ele>
        <time>2021-04-27T15:16:22Z</time>
      </trkpt>
      <trkpt lat="43.45937" lon="-0.8159">
        <ele>102.72</ele>
        <time>2021-04-27T15:16:42Z</time>
      </trkpt>
      <trkpt lat="43.45931" lon="-0.81697">
        <ele>110.308</ele>
        <time>2021-04-27T15:17:02Z</time>
      </trkpt>
      <trkpt lat="43.45879" lon="-0.81835">
        <ele>124.462</ele>
        <time>2021-04-27T15:17:22Z</time>
      </trkpt>
      <trkpt lat="43.45811" lon="-0.81985">
        <ele>130.356</ele>
        <time>2021-04-27T15:17:42Z</time>
      </trkpt>
      <trkpt lat="43.45772" lon="-0.82094">
        <ele>125.672</ele>
        <time>2021-04-27T15:18:02Z</time>
      </trkpt>
      <trkpt lat="43.45761" lon="-0.82114">
        <ele>126.215</ele>
        <time>2021-04-27T15:18:22Z</time>
      </trkpt>
      <trkpt lat="43.45719" lon="-0.82155">
        <ele>125.558</ele>
        <time>2021-04-27T15:18:42Z</time>
      </trkpt>
      <trkpt lat="43.45685" lon="-0.8218">
        <ele>126.06</ele>
        <time>2021-04-27T15:19:02Z</time>
      </trkpt>
      <trkpt lat="43.45672" lon="-0.82187">
        <ele>126.798</ele>
        <time>2021-04-27T15:19:22Z</time>
      </trkpt>
      <trkpt lat="43.45613" lon="-0.82197">
        <ele>122.613</ele>
        <time>2021-04-27T15:19:42Z</time>
      </trkpt>
      <trkpt lat="43.45579" lon="-0.82223">
        <ele>121.085</ele>
        <time>2021-04-27T15:20:02Z</time>
      </trkpt>
      <trkpt lat="43.45566" lon="-0.82234">
        <ele>119.989</ele>
        <time>2021-04-27T15:20:22Z</time>
      </trkpt>
      <trkpt lat="43.45549" lon="-0.8226">
        <ele>119.017</ele>
        <time>2021-04-27T15:20:42Z</time>
      </trkpt>
      <trkpt lat="43.45534" lon="-0.82292">
        <ele>117.608</ele>
        <time>2021-04-27T15:21:02Z</time>
      </trkpt>
      <trkpt lat="43.45499" lon="-0.82401">
        <ele>110.425</ele>
        <time>2021-04-27T15:21:22Z</time>
      </trkpt>
      <trkpt lat="43.45498" lon="-0.82425">
        <ele>109.079</ele>
        <time>2021-04-27T15:21:42Z</time>
      </trkpt>
      <trkpt lat="43.45499" lon="-0.82451">
        <ele>107.455</ele>
        <time>2021-04-27T15:22:02Z</time>
      </trkpt>
      <trkpt lat="43.45526" lon="-0.82631">
        <ele>102.868</ele>
        <time>2021-04-27T15:22:22Z</time>
      </trkpt>
      <trkpt lat="43.45495" lon="-0.82652">
        <ele>99.171</ele>
        <time>2021-04-27T15:22:42Z</time>
      </trkpt>
      <trkpt lat="43.45459" lon="-0.82665">
        <ele>98.513</ele>
        <time>2021-04-27T15:23:02Z</time>
      </trkpt>
      <trkpt lat="43.45431" lon="-0.82669">
        <ele>98.261</ele>
        <time>2021-04-27T15:23:22Z</time>
      </trkpt>
      <trkpt lat="43.45425" lon="-0.82674">
        <ele>98.086</ele>
        <time>2021-04-27T15:23:42Z</time>
      </trkpt>
      <trkpt lat="43.45398" lon="-0.82721">
        <ele>100.544</ele>
        <time>2021-04-27T15:24:02Z</time>
      </trkpt>
      <trkpt lat="43.45393" lon="-0.82742">
        <ele>101.205</ele>
        <time>2021-04-27T15:24:22Z</time>
      </trkpt>
      <trkpt lat="43.45397" lon="-0.82839">
        <ele>104.015</ele>
        <time>2021-04-27T15:24:42Z</time>
      </trkpt>
      <trkpt lat="43.4539" lon="-0.82944">
        <ele>106.808</ele>
        <time>2021-04-27T15:25:02Z</time>
      </trkpt>
      <trkpt lat="43.45364" lon="-0.83013">
        <ele>113.471</ele>
        <time>2021-04-27T15:25:22Z</time>
      </trkpt>
      <trkpt lat="43.45353" lon="-0.83032">
        <ele>116.035</ele>
        <time>2021-04-27T15:25:42Z</time>
      </trkpt>
      <trkpt lat="43.45305" lon="-0.83182">
        <ele>126.461</ele>
        <time>2021-04-27T15:26:02Z</time>
      </trkpt>
      <trkpt lat="43.45298" lon="-0.83193">
        <ele>127.164</ele>
        <time>2021-04-27T15:26:22Z</time>
      </trkpt>
      <trkpt lat="43.45288" lon="-0.83191">
        <ele>129.697</ele>
        <time>2021-04-27T15:26:42Z</time>
      </trkpt>
      <trkpt lat="43.45263" lon="-0.83116">
        <ele>135.229</ele>
        <time>2021-04-27T15:27:02Z</time>
      </trkpt>
      <trkpt lat="43.45253" lon="-0.83099">
        <ele>136.797</ele>
        <time>2021-04-27T15:27:22Z</time>
      </trkpt>
      <trkpt lat="43.45241" lon="-0.83086">
        <ele>136.662</ele>
        <time>2021-04-27T15:27:42Z</time>
      </trkpt>
      <trkpt lat="43.45227" lon="-0.83081">
        <ele>135.865</ele>
        <time>2021-04-27T15:28:02Z</time>
      </trkpt>
      <trkpt lat="43.45219" lon="-0.83086">
        <ele>135.668</ele>
        <time>2021-04-27T15:28:22Z</time>
      </trkpt>
      <trkpt lat="43.45147" lon="-0.83227">
        <ele>145.214</ele>
        <time>2021-04-27T15:28:42Z</time>
      </trkpt>
      <trkpt lat="43.45129" lon="-0.83262">
        <ele>146.608</ele>
        <time>2021-04-27T15:29:02Z</time>
      </trkpt>
      <trkpt lat="43.45105" lon="-0.83294">
        <ele>147.453</ele>
        <time>2021-04-27T15:29:22Z</time>
      </trkpt>
      <trkpt lat="43.45059" lon="-0.83335">
        <ele>153.217</ele>
        <time>2021-04-27T15:29:42Z</time>
      </trkpt>
      <trkpt lat="43.44982" lon="-0.83378">
        <ele>158.263</ele>
        <time>2021-04-27T15:30:02Z</time>
      </trkpt>
      <trkpt lat="43.44937" lon="-0.83478">
        <ele>156.796</ele>
        <time>2021-04-27T15:30:22Z</time>
      </trkpt>
      <trkpt lat="43.44903" lon="-0.83541">
        <ele>159.589</ele>
        <time>2021-04-27T15:30:42Z</time>
      </trkpt>
      <trkpt lat="43.44897" lon="-0.83541">
        <ele>160.091</ele>
        <time>2021-04-27T15:31:02Z</time>
      </trkpt>
      <trkpt lat="43.44837" lon="-0.83521">
        <ele>164.039</ele>
        <time>2021-04-27T15:31:22Z</time>
      </trkpt>
      <trkpt lat="43.44752" lon="-0.83601">
        <ele>168.924</ele>
        <time>2021-04-27T15:31:42Z</time>
      </trkpt>
      <trkpt lat="43.44741" lon="-0.83652">
        <ele>170.099</ele>
        <time>2021-04-27T15:32:02Z</time>
      </trkpt>
      <trkpt lat="43.44733" lon="-0.83665">
        <ele>171.207</ele>
        <time>2021-04-27T15:32:22Z</time>
      </trkpt>
      <trkpt lat="43.44688" lon="-0.83697">
        <ele>177.627</ele>
        <time>2021-04-27T15:32:42Z</time>
      </trkpt>
      <trkpt lat="43.44677" lon="-0.83697">
        <ele>179.008</ele>
        <time>2021-04-27T15:33:02Z</time>
      </trkpt>
      <trkpt lat="43.44663" lon="-0.83669">
        <ele>180.026</ele>
        <time>2021-04-27T15:33:22Z</time>
      </trkpt>
      <trkpt lat="43.44652" lon="-0.83659">
        <ele>179.18</ele>
        <time>2021-04-27T15:33:42Z</time>
      </trkpt>
      <trkpt lat="43.44624" lon="-0.83648">
        <ele>178.346</ele>
        <time>2021-04-27T15:34:02Z</time>
      </trkpt>
      <trkpt lat="43.44538" lon="-0.83637">
        <ele>175.439</ele>
        <time>2021-04-27T15:34:22Z</time>
      </trkpt>
      <trkpt lat="43.44459" lon="-0.83624">
        <ele>172.342</ele>
        <time>2021-04-27T15:34:42Z</time>
      </trkpt>
      <trkpt lat="43.44415" lon="-0.83611">
        <ele>172.384</ele>
        <time>2021-04-27T15:35:02Z</time>
      </trkpt>
      <trkpt lat="43.4439" lon="-0.83601">
        <ele>172.222</ele>
        <time>2021-04-27T15:35:22Z</time>
      </trkpt>
      <trkpt lat="43.44368" lon="-0.83581">
        <ele>172.947</ele>
        <time>2021-04-27T15:35:42Z</time>
      </trkpt>
      <trkpt lat="43.44336" lon="-0.83534">
        <ele>173.297</ele>
        <time>2021-04-27T15:36:02Z</time>
      </trkpt>
      <trkpt lat="43.443" lon="-0.83543">
        <ele>170.823</ele>
        <time>2021-04-27T15:36:22Z</time>
      </trkpt>
      <trkpt lat="43.44275" lon="-0.83554">
        <ele>169.425</ele>
        <time>2021-04-27T15:36:42Z</time>
      </trkpt>
      <trkpt lat="43.4423" lon="-0.83586">
        <ele>166.808</ele>
        <time>2021-04-27T15:37:02Z</time>
      </trkpt>
      <trkpt lat="43.44203" lon="-0.83594">
        <ele>164.256</ele>
        <time>2021-04-27T15:37:22Z</time>
      </trkpt>
      <trkpt lat="43.44174" lon="-0.83639">
        <ele>163.24</ele>
        <time>2021-04-27T15:37:42Z</time>
      </trkpt>
      <trkpt lat="43.4413" lon="-0.8373">
        <ele>156.316</ele>
        <time>2021-04-27T15:38:02Z</time>
      </trkpt>
      <trkpt lat="43.4404" lon="-0.84041">
        <ele>137.559</ele>
        <time>2021-04-27T15:38:22Z</time>
      </trkpt>
      <trkpt lat="43.43826" lon="-0.84401">
        <ele>107.972</ele>
        <time>2021-04-27T15:38:42Z</time>
      </trkpt>
      <trkpt lat="43.43784" lon="-0.84493">
        <ele>97.054</ele>
        <time>2021-04-27T15:39:02Z</time>
      </trkpt>
      <trkpt lat="43.43739" lon="-0.84641">
        <ele>83.572</ele>
        <time>2021-04-27T15:39:22Z</time>
      </trkpt>
      <trkpt lat="43.43737" lon="-0.84667">
        <ele>81.827</ele>
        <time>2021-04-27T15:39:42Z</time>
      </trkpt>
      <trkpt lat="43.43742" lon="-0.84678">
        <ele>81.516</ele>
        <time>2021-04-27T15:40:02Z</time>
      </trkpt>
      <trkpt lat="43.43755" lon="-0.84693">
        <ele>81.176</ele>
        <time>2021-04-27T15:40:22Z</time>
      </trkpt>
      <trkpt lat="43.43708" lon="-0.84772">
        <ele>79.813</ele>
        <time>2021-04-27T15:40:42Z</time>
      </trkpt>
      <trkpt lat="43.43691" lon="-0.84807">
        <ele>80.708</ele>
        <time>2021-04-27T15:41:02Z</time>
      </trkpt>
      <trkpt lat="43.43644" lon="-0.84916">
        <ele>83.538</ele>
        <time>2021-04-27T15:41:22Z</time>
      </trkpt>
      <trkpt lat="43.43619" lon="-0.84901">
        <ele>83.692</ele>
        <time>2021-04-27T15:41:42Z</time>
      </trkpt>
      <trkpt lat="43.43599" lon="-0.84893">
        <ele>83.658</ele>
        <time>2021-04-27T15:42:02Z</time>
      </trkpt>
      <trkpt lat="43.43555" lon="-0.84886">
        <ele>87.061</ele>
        <time>2021-04-27T15:42:22Z</time>
      </trkpt>
      <trkpt lat="43.43526" lon="-0.84905">
        <ele>89.254</ele>
        <time>2021-04-27T15:42:42Z</time>
      </trkpt>
      <trkpt lat="43.43502" lon="-0.84931">
        <ele>89.526</ele>
        <time>2021-04-27T15:43:02Z</time>
      </trkpt>
      <trkpt lat="43.43526" lon="-0.85011">
        <ele>88.654</ele>
        <time>2021-04-27T15:43:22Z</time>
      </trkpt>
      <trkpt lat="43.43526" lon="-0.85051">
        <ele>90.999</ele>
        <time>2021-04-27T15:43:42Z</time>
      </trkpt>
      <trkpt lat="43.43501" lon="-0.85118">
        <ele>98.465</ele>
        <time>2021-04-27T15:44:02Z</time>
      </trkpt>
      <trkpt lat="43.43496" lon="-0.85156">
        <ele>104.268</ele>
        <time>2021-04-27T15:44:22Z</time>
      </trkpt>
      <trkpt lat="43.43496" lon="-0.85176">
        <ele>106.614</ele>
        <time>2021-04-27T15:44:42Z</time>
      </trkpt>
      <trkpt lat="43.43415" lon="-0.85605">
        <ele>138.508</ele>
        <time>2021-04-27T15:45:02Z</time>
      </trkpt>
      <trkpt lat="43.4341" lon="-0.85667">
        <ele>142.643</ele>
        <time>2021-04-27T15:45:22Z</time>
      </trkpt>
      <trkpt lat="43.43427" lon="-0.85734">
        <ele>145.827</ele>
        <time>2021-04-27T15:45:42Z</time>
      </trkpt>
      <trkpt lat="43.43465" lon="-0.85826">
        <ele>152.973</ele>
        <time>2021-04-27T15:46:02Z</time>
      </trkpt>
      <trkpt lat="43.4348" lon="-0.85852">
        <ele>155.776</ele>
        <time>2021-04-27T15:46:22Z</time>
      </trkpt>
      <trkpt lat="43.43519" lon="-0.85892">
        <ele>161.339</ele>
        <time>2021-04-27T15:46:42Z</time>
      </trkpt>
      <trkpt lat="43.43535" lon="-0.85905">
        <ele>163.321</ele>
        <time>2021-04-27T15:47:02Z</time>
      </trkpt>
      <trkpt lat="43.43552" lon="-0.85914">
        <ele>165.579</ele>
        <time>2021-04-27T15:47:22Z</time>
      </trkpt>
      <trkpt lat="43.43574" lon="-0.85987">
        <ele>171.064</ele>
        <time>2021-04-27T15:47:42Z</time>
      </trkpt>
      <trkpt lat="43.43579" lon="-0.86015">
        <ele>174.039</ele>
        <time>2021-04-27T15:48:02Z</time>
      </trkpt>
      <trkpt lat="43.43571" lon="-0.86204">
        <ele>182.701</ele>
        <time>2021-04-27T15:48:22Z</time>
      </trkpt>
      <trkpt lat="43.43557" lon="-0.86266">
        <ele>184.221</ele>
        <time>2021-04-27T15:48:42Z</time>
      </trkpt>
      <trkpt lat="43.4353" lon="-0.86352">
        <ele>186.008</ele>
        <time>2021-04-27T15:49:02Z</time>
      </trkpt>
      <trkpt lat="43.4351" lon="-0.86397">
        <ele>186.26</ele>
        <time>2021-04-27T15:49:22Z</time>
      </trkpt>
      <trkpt lat="43.4339" lon="-0.86598">
        <ele>191.264</ele>
        <time>2021-04-27T15:49:42Z</time>
      </trkpt>
      <trkpt lat="43.4337" lon="-0.86626">
        <ele>192.68</ele>
        <time>2021-04-27T15:50:02Z</time>
      </trkpt>
      <trkpt lat="43.43332" lon="-0.86656">
        <ele>197.163</ele>
        <time>2021-04-27T15:50:22Z</time>
      </trkpt>
      <trkpt lat="43.43311" lon="-0.86673">
        <ele>197.466</ele>
        <time>2021-04-27T15:50:42Z</time>
      </trkpt>
      <trkpt lat="43.43253" lon="-0.86693">
        <ele>195.158</ele>
        <time>2021-04-27T15:51:02Z</time>
      </trkpt>
      <trkpt lat="43.43225" lon="-0.86691">
        <ele>194.586</ele>
        <time>2021-04-27T15:51:22Z</time>
      </trkpt>
      <trkpt lat="43.43083" lon="-0.86695">
        <ele>190.331</ele>
        <time>2021-04-27T15:51:42Z</time>
      </trkpt>
      <trkpt lat="43.43078" lon="-0.86714">
        <ele>190.798</ele>
        <time>2021-04-27T15:52:02Z</time>
      </trkpt>
      <trkpt lat="43.43072" lon="-0.86723">
        <ele>191.115</ele>
        <time>2021-04-27T15:52:22Z</time>
      </trkpt>
      <trkpt lat="43.43036" lon="-0.86751">
        <ele>193.226</ele>
        <time>2021-04-27T15:52:42Z</time>
      </trkpt>
      <trkpt lat="43.42983" lon="-0.86819">
        <ele>195.508</ele>
        <time>2021-04-27T15:53:02Z</time>
      </trkpt>
      <trkpt lat="43.42974" lon="-0.86826">
        <ele>196.766</ele>
        <time>2021-04-27T15:53:22Z</time>
      </trkpt>
      <trkpt lat="43.42946" lon="-0.86837">
        <ele>200.53</ele>
        <time>2021-04-27T15:53:42Z</time>
      </trkpt>
      <trkpt lat="43.42771" lon="-0.86974">
        <ele>182.686</ele>
        <time>2021-04-27T15:54:02Z</time>
      </trkpt>
      <trkpt lat="43.42723" lon="-0.87015">
        <ele>175.129</ele>
        <time>2021-04-27T15:54:22Z</time>
      </trkpt>
      <trkpt lat="43.42698" lon="-0.87066">
        <ele>168.782</ele>
        <time>2021-04-27T15:54:42Z</time>
      </trkpt>
      <trkpt lat="43.42622" lon="-0.87191">
        <ele>158.294</ele>
        <time>2021-04-27T15:55:02Z</time>
      </trkpt>
      <trkpt lat="43.42581" lon="-0.87234">
        <ele>161.452</ele>
        <time>2021-04-27T15:55:22Z</time>
      </trkpt>
      <trkpt lat="43.42548" lon="-0.87253">
        <ele>167.377</ele>
        <time>2021-04-27T15:55:42Z</time>
      </trkpt>
      <trkpt lat="43.425" lon="-0.87294">
        <ele>174.926</ele>
        <time>2021-04-27T15:56:02Z</time>
      </trkpt>
      <trkpt lat="43.42446" lon="-0.87322">
        <ele>183.847</ele>
        <time>2021-04-27T15:56:22Z</time>
      </trkpt>
      <trkpt lat="43.4238" lon="-0.87362">
        <ele>195.011</ele>
        <time>2021-04-27T15:56:42Z</time>
      </trkpt>
      <trkpt lat="43.42351" lon="-0.87375">
        <ele>200.308</ele>
        <time>2021-04-27T15:57:02Z</time>
      </trkpt>
      <trkpt lat="43.42305" lon="-0.87377">
        <ele>204.399</ele>
        <time>2021-04-27T15:57:22Z</time>
      </trkpt>
      <trkpt lat="43.42288" lon="-0.87388">
        <ele>204.413</ele>
        <time>2021-04-27T15:57:42Z</time>
      </trkpt>
      <trkpt lat="43.42245" lon="-0.87459">
        <ele>203.079</ele>
        <time>2021-04-27T15:58:02Z</time>
      </trkpt>
      <trkpt lat="43.42165" lon="-0.87596">
        <ele>190.932</ele>
        <time>2021-04-27T15:58:22Z</time>
      </trkpt>
      <trkpt lat="43.42145" lon="-0.87615">
        <ele>189.715</ele>
        <time>2021-04-27T15:58:42Z</time>
      </trkpt>
      <trkpt lat="43.42129" lon="-0.87641">
        <ele>188.927</ele>
        <time>2021-04-27T15:59:02Z</time>
      </trkpt>
      <trkpt lat="43.42104" lon="-0.87703">
        <ele>186.045</ele>
        <time>2021-04-27T15:59:22Z</time>
      </trkpt>
      <trkpt lat="43.42079" lon="-0.8774">
        <ele>181.77</ele>
        <time>2021-04-27T15:59:42Z</time>
      </trkpt>
      <trkpt lat="43.41967" lon="-0.87854">
        <ele>173.571</ele>
        <time>2021-04-27T16:00:02Z</time>
      </trkpt>
      <trkpt lat="43.41911" lon="-0.87907">
        <ele>171.941</ele>
        <time>2021-04-27T16:00:22Z</time>
      </trkpt>
      <trkpt lat="43.41897" lon="-0.87924">
        <ele>170.315</ele>
        <time>2021-04-27T16:00:42Z</time>
      </trkpt>
      <trkpt lat="43.41832" lon="-0.88053">
        <ele>157.408</ele>
        <time>2021-04-27T16:01:02Z</time>
      </trkpt>
      <trkpt lat="43.41822" lon="-0.88064">
        <ele>155.924</ele>
        <time>2021-04-27T16:01:22Z</time>
      </trkpt>
      <trkpt lat="43.41766" lon="-0.88107">
        <ele>148.988</ele>
        <time>2021-04-27T16:01:42Z</time>
      </trkpt>
      <trkpt lat="43.41665" lon="-0.88193">
        <ele>140.524</ele>
        <time>2021-04-27T16:02:02Z</time>
      </trkpt>
      <trkpt lat="43.4166" lon="-0.88238">
        <ele>143.397</ele>
        <time>2021-04-27T16:02:22Z</time>
      </trkpt>
      <trkpt lat="43.41657" lon="-0.88298">
        <ele>145.68</ele>
        <time>2021-04-27T16:02:42Z</time>
      </trkpt>
      <trkpt lat="43.41632" lon="-0.88345">
        <ele>151.772</ele>
        <time>2021-04-27T16:03:02Z</time>
      </trkpt>
      <trkpt lat="43.41598" lon="-0.88427">
        <ele>161.15</ele>
        <time>2021-04-27T16:03:22Z</time>
      </trkpt>
      <trkpt lat="43.41545" lon="-0.8851">
        <ele>172.555</ele>
        <time>2021-04-27T16:03:42Z</time>
      </trkpt>
      <trkpt lat="43.415" lon="-0.88573">
        <ele>184.057</ele>
        <time>2021-04-27T16:04:02Z</time>
      </trkpt>
      <trkpt lat="43.41462" lon="-0.88605">
        <ele>191.3</ele>
        <time>2021-04-27T16:04:22Z</time>
      </trkpt>
      <trkpt lat="43.41436" lon="-0.88618">
        <ele>195.62</ele>
        <time>2021-04-27T16:04:42Z</time>
      </trkpt>
      <trkpt lat="43.41378" lon="-0.88624">
        <ele>201.008</ele>
        <time>2021-04-27T16:05:02Z</time>
      </trkpt>
      <trkpt lat="43.41334" lon="-0.88643">
        <ele>205.372</ele>
        <time>2021-04-27T16:05:22Z</time>
      </trkpt>
      <trkpt lat="43.41277" lon="-0.88718">
        <ele>210.746</ele>
        <time>2021-04-27T16:05:42Z</time>
      </trkpt>
      <trkpt lat="43.41263" lon="-0.88744">
        <ele>212.362</ele>
        <time>2021-04-27T16:06:02Z</time>
      </trkpt>
      <trkpt lat="43.41255" lon="-0.88789">
        <ele>213.775</ele>
        <time>2021-04-27T16:06:22Z</time>
      </trkpt>
      <trkpt lat="43.41253" lon="-0.88839">
        <ele>214.428</ele>
        <time>2021-04-27T16:06:42Z</time>
      </trkpt>
      <trkpt lat="43.41263" lon="-0.88873">
        <ele>212.93</ele>
        <time>2021-04-27T16:07:02Z</time>
      </trkpt>
      <trkpt lat="43.41272" lon="-0.88897">
        <ele>211.388</ele>
        <time>2021-04-27T16:07:22Z</time>
      </trkpt>
      <trkpt lat="43.41269" lon="-0.88929">
        <ele>210.953</ele>
        <time>2021-04-27T16:07:42Z</time>
      </trkpt>
      <trkpt lat="43.41266" lon="-0.88939">
        <ele>210.363</ele>
        <time>2021-04-27T16:08:02Z</time>
      </trkpt>
      <trkpt lat="43.41256" lon="-0.88952">
        <ele>210.844</ele>
        <time>2021-04-27T16:08:22Z</time>
      </trkpt>
      <trkpt lat="43.41224" lon="-0.88974">
        <ele>209.318</ele>
        <time>2021-04-27T16:08:42Z</time>
      </trkpt>
      <trkpt lat="43.412" lon="-0.89">
        <ele>207.008</ele>
        <time>2021-04-27T16:09:02Z</time>
      </trkpt>
      <trkpt lat="43.41163" lon="-0.89051">
        <ele>207.933</ele>
        <time>2021-04-27T16:09:22Z</time>
      </trkpt>
      <trkpt lat="43.41135" lon="-0.89152">
        <ele>209.977</ele>
        <time>2021-04-27T16:09:42Z</time>
      </trkpt>
      <trkpt lat="43.41132" lon="-0.8919">
        <ele>210.583</ele>
        <time>2021-04-27T16:10:02Z</time>
      </trkpt>
      <trkpt lat="43.41132" lon="-0.89257">
        <ele>210.616</ele>
        <time>2021-04-27T16:10:22Z</time>
      </trkpt>
      <trkpt lat="43.41135" lon="-0.89281">
        <ele>209.999</ele>
        <time>2021-04-27T16:10:42Z</time>
      </trkpt>
      <trkpt lat="43.41146" lon="-0.89336">
        <ele>208.081</ele>
        <time>2021-04-27T16:11:02Z</time>
      </trkpt>
      <trkpt lat="43.41161" lon="-0.89394">
        <ele>203.759</ele>
        <time>2021-04-27T16:11:22Z</time>
      </trkpt>
      <trkpt lat="43.41164" lon="-0.89461">
        <ele>198.144</ele>
        <time>2021-04-27T16:11:42Z</time>
      </trkpt>
      <trkpt lat="43.41113" lon="-0.89416">
        <ele>200.177</ele>
        <time>2021-04-27T16:12:02Z</time>
      </trkpt>
      <trkpt lat="43.4109" lon="-0.89414">
        <ele>199.561</ele>
        <time>2021-04-27T16:12:22Z</time>
      </trkpt>
      <trkpt lat="43.41063" lon="-0.89418">
        <ele>196.927</ele>
        <time>2021-04-27T16:12:42Z</time>
      </trkpt>
      <trkpt lat="43.41058" lon="-0.89427">
        <ele>195.408</ele>
        <time>2021-04-27T16:13:02Z</time>
      </trkpt>
      <trkpt lat="43.41032" lon="-0.8951">
        <ele>184.344</ele>
        <time>2021-04-27T16:13:22Z</time>
      </trkpt>
      <trkpt lat="43.41018" lon="-0.89536">
        <ele>181.968</ele>
        <time>2021-04-27T16:13:42Z</time>
      </trkpt>
      <trkpt lat="43.40923" lon="-0.8963">
        <ele>173.454</ele>
        <time>2021-04-27T16:14:02Z</time>
      </trkpt>
      <trkpt lat="43.40829" lon="-0.89716">
        <ele>171.057</ele>
        <time>2021-04-27T16:14:22Z</time>
      </trkpt>
      <trkpt lat="43.4079" lon="-0.89742">
        <ele>173.85</ele>
        <time>2021-04-27T16:14:42Z</time>
      </trkpt>
      <trkpt lat="43.40755" lon="-0.89757">
        <ele>177.522</ele>
        <time>2021-04-27T16:15:02Z</time>
      </trkpt>
      <trkpt lat="43.40642" lon="-0.89789">
        <ele>183.57</ele>
        <time>2021-04-27T16:15:22Z</time>
      </trkpt>
      <trkpt lat="43.4061" lon="-0.89806">
        <ele>182.775</ele>
        <time>2021-04-27T16:15:42Z</time>
      </trkpt>
      <trkpt lat="43.40535" lon="-0.89856">
        <ele>179.324</ele>
        <time>2021-04-27T16:16:02Z</time>
      </trkpt>
      <trkpt lat="43.40455" lon="-0.89881">
        <ele>173.204</ele>
        <time>2021-04-27T16:16:22Z</time>
      </trkpt>
      <trkpt lat="43.40421" lon="-0.89896">
        <ele>170.914</ele>
        <time>2021-04-27T16:16:42Z</time>
      </trkpt>
      <trkpt lat="43.40382" lon="-0.89926">
        <ele>173.108</ele>
        <time>2021-04-27T16:17:02Z</time>
      </trkpt>
      <trkpt lat="43.40326" lon="-0.90006">
        <ele>178.759</ele>
        <time>2021-04-27T16:17:22Z</time>
      </trkpt>
      <trkpt lat="43.40309" lon="-0.90017">
        <ele>178.553</ele>
        <time>2021-04-27T16:17:42Z</time>
      </trkpt>
      <trkpt lat="43.40215" lon="-0.90057">
        <ele>177.579</ele>
        <time>2021-04-27T16:18:02Z</time>
      </trkpt>
      <trkpt lat="43.40185" lon="-0.90075">
        <ele>176.952</ele>
        <time>2021-04-27T16:18:22Z</time>
      </trkpt>
      <trkpt lat="43.40137" lon="-0.90085">
        <ele>173.435</ele>
        <time>2021-04-27T16:18:42Z</time>
      </trkpt>
      <trkpt lat="43.40072" lon="-0.90087">
        <ele>166.167</ele>
        <time>2021-04-27T16:19:02Z</time>
      </trkpt>
      <trkpt lat="43.39947" lon="-0.90137">
        <ele>161.915</ele>
        <time>2021-04-27T16:19:22Z</time>
      </trkpt>
      <trkpt lat="43.39913" lon="-0.90143">
        <ele>162.84</ele>
        <time>2021-04-27T16:19:42Z</time>
      </trkpt>
      <trkpt lat="43.3983" lon="-0.9015">
        <ele>161.724</ele>
        <time>2021-04-27T16:20:02Z</time>
      </trkpt>
      <trkpt lat="43.39793" lon="-0.90124">
        <ele>156.904</ele>
        <time>2021-04-27T16:20:22Z</time>
      </trkpt>
      <trkpt lat="43.39726" lon="-0.90066">
        <ele>147.414</ele>
        <time>2021-04-27T16:20:42Z</time>
      </trkpt>
      <trkpt lat="43.39713" lon="-0.9006">
        <ele>145.408</ele>
        <time>2021-04-27T16:21:02Z</time>
      </trkpt>
      <trkpt lat="43.3969" lon="-0.90055">
        <ele>142.759</ele>
        <time>2021-04-27T16:21:22Z</time>
      </trkpt>
      <trkpt lat="43.39446" lon="-0.89864">
        <ele>113.253</ele>
        <time>2021-04-27T16:21:42Z</time>
      </trkpt>
      <trkpt lat="43.3932" lon="-0.8986">
        <ele>107.659</ele>
        <time>2021-04-27T16:22:02Z</time>
      </trkpt>
      <trkpt lat="43.39262" lon="-0.89888">
        <ele>102.662</ele>
        <time>2021-04-27T16:22:22Z</time>
      </trkpt>
      <trkpt lat="43.39255" lon="-0.89894">
        <ele>101.915</ele>
        <time>2021-04-27T16:22:42Z</time>
      </trkpt>
      <trkpt lat="43.39245" lon="-0.89916">
        <ele>101.467</ele>
        <time>2021-04-27T16:23:02Z</time>
      </trkpt>
      <trkpt lat="43.39231" lon="-0.89954">
        <ele>99.795</ele>
        <time>2021-04-27T16:23:22Z</time>
      </trkpt>
      <trkpt lat="43.39216" lon="-0.89987">
        <ele>97.57</ele>
        <time>2021-04-27T16:23:42Z</time>
      </trkpt>
      <trkpt lat="43.39206" lon="-0.89995">
        <ele>96.328</ele>
        <time>2021-04-27T16:24:02Z</time>
      </trkpt>
      <trkpt lat="43.39169" lon="-0.89997">
        <ele>91.389</ele>
        <time>2021-04-27T16:24:22Z</time>
      </trkpt>
      <trkpt lat="43.39158" lon="-0.90124">
        <ele>94.117</ele>
        <time>2021-04-27T16:24:42Z</time>
      </trkpt>
      <trkpt lat="43.39139" lon="-0.90281">
        <ele>94.908</ele>
        <time>2021-04-27T16:25:02Z</time>
      </trkpt>
      <trkpt lat="43.39132" lon="-0.90364">
        <ele>92.959</ele>
        <time>2021-04-27T16:25:22Z</time>
      </trkpt>
      <trkpt lat="43.39133" lon="-0.90424">
        <ele>94.173</ele>
        <time>2021-04-27T16:25:42Z</time>
      </trkpt>
      <trkpt lat="43.39156" lon="-0.90534">
        <ele>94.569</ele>
        <time>2021-04-27T16:26:02Z</time>
      </trkpt>
      <trkpt lat="43.39199" lon="-0.90686">
        <ele>90.982</ele>
        <time>2021-04-27T16:26:22Z</time>
      </trkpt>
      <trkpt lat="43.39242" lon="-0.90796">
        <ele>91.995</ele>
        <time>2021-04-27T16:26:42Z</time>
      </trkpt>
      <trkpt lat="43.39275" lon="-0.90853">
        <ele>90.787</ele>
        <time>2021-04-27T16:27:02Z</time>
      </trkpt>
      <trkpt lat="43.39326" lon="-0.90911">
        <ele>92.465</ele>
        <time>2021-04-27T16:27:22Z</time>
      </trkpt>
      <trkpt lat="43.39342" lon="-0.9095">
        <ele>90.79</ele>
        <time>2021-04-27T16:27:42Z</time>
      </trkpt>
      <trkpt lat="43.39362" lon="-0.90991">
        <ele>87.949</ele>
        <time>2021-04-27T16:28:02Z</time>
      </trkpt>
      <trkpt lat="43.39398" lon="-0.91023">
        <ele>86.602</ele>
        <time>2021-04-27T16:28:22Z</time>
      </trkpt>
      <trkpt lat="43.39436" lon="-0.91049">
        <ele>86.522</ele>
        <time>2021-04-27T16:28:42Z</time>
      </trkpt>
      <trkpt lat="43.39446" lon="-0.91062">
        <ele>86.308</ele>
        <time>2021-04-27T16:29:02Z</time>
      </trkpt>
      <trkpt lat="43.39453" lon="-0.91083">
        <ele>85.641</ele>
        <time>2021-04-27T16:29:22Z</time>
      </trkpt>
      <trkpt lat="43.39453" lon="-0.91107">
        <ele>86.095</ele>
        <time>2021-04-27T16:29:42Z</time>
      </trkpt>
      <trkpt lat="43.39448" lon="-0.91139">
        <ele>86.281</ele>
        <time>2021-04-27T16:30:02Z</time>
      </trkpt>
      <trkpt lat="43.39407" lon="-0.91169">
        <ele>82.714</ele>
        <time>2021-04-27T16:30:22Z</time>
      </trkpt>
      <trkpt lat="43.39403" lon="-0.91184">
        <ele>81.867</ele>
        <time>2021-04-27T16:30:42Z</time>
      </trkpt>
      <trkpt lat="43.39407" lon="-0.91205">
        <ele>82.179</ele>
        <time>2021-04-27T16:31:02Z</time>
      </trkpt>
      <trkpt lat="43.39422" lon="-0.91242">
        <ele>83.737</ele>
        <time>2021-04-27T16:31:22Z</time>
      </trkpt>
      <trkpt lat="43.39434" lon="-0.91287">
        <ele>83.362</ele>
        <time>2021-04-27T16:31:42Z</time>
      </trkpt>
      <trkpt lat="43.39442" lon="-0.91351">
        <ele>81.653</ele>
        <time>2021-04-27T16:32:02Z</time>
      </trkpt>
      <trkpt lat="43.39443" lon="-0.91482">
        <ele>80.304</ele>
        <time>2021-04-27T16:32:22Z</time>
      </trkpt>
      <trkpt lat="43.39437" lon="-0.91607">
        <ele>84.514</ele>
        <time>2021-04-27T16:32:42Z</time>
      </trkpt>
      <trkpt lat="43.39403" lon="-0.91765">
        <ele>82.908</ele>
        <time>2021-04-27T16:33:02Z</time>
      </trkpt>
      <trkpt lat="43.39401" lon="-0.91847">
        <ele>83.172</ele>
        <time>2021-04-27T16:33:22Z</time>
      </trkpt>
      <trkpt lat="43.39409" lon="-0.91881">
        <ele>82.696</ele>
        <time>2021-04-27T16:33:42Z</time>
      </trkpt>
      <trkpt lat="43.39478" lon="-0.92124">
        <ele>82.062</ele>
        <time>2021-04-27T16:34:02Z</time>
      </trkpt>
      <trkpt lat="43.39482" lon="-0.92158">
        <ele>82.085</ele>
        <time>2021-04-27T16:34:22Z</time>
      </trkpt>
      <trkpt lat="43.39485" lon="-0.9222">
        <ele>82.028</ele>
        <time>2021-04-27T16:34:42Z</time>
      </trkpt>
      <trkpt lat="43.3949" lon="-0.92246">
        <ele>82.38</ele>
        <time>2021-04-27T16:35:02Z</time>
      </trkpt>
      <trkpt lat="43.39446" lon="-0.92272">
        <ele>79.318</ele>
        <time>2021-04-27T16:35:22Z</time>
      </trkpt>
      <trkpt lat="43.39406" lon="-0.9228">
        <ele>77.243</ele>
        <time>2021-04-27T16:35:42Z</time>
      </trkpt>
      <trkpt lat="43.394" lon="-0.92293">
        <ele>77.276</ele>
        <time>2021-04-27T16:36:02Z</time>
      </trkpt>
      <trkpt lat="43.39397" lon="-0.92424">
        <ele>76.79</ele>
        <time>2021-04-27T16:36:22Z</time>
      </trkpt>
      <trkpt lat="43.39384" lon="-0.92446">
        <ele>76.419</ele>
        <time>2021-04-27T16:36:42Z</time>
      </trkpt>
      <trkpt lat="43.3937" lon="-0.92484">
        <ele>76.108</ele>
        <time>2021-04-27T16:37:02Z</time>
      </trkpt>
      <trkpt lat="43.39284" lon="-0.92634">
        <ele>68.854</ele>
        <time>2021-04-27T16:37:22Z</time>
      </trkpt>
      <trkpt lat="43.39284" lon="-0.92735">
        <ele>64.238</ele>
        <time>2021-04-27T16:37:42Z</time>
      </trkpt>
      <trkpt lat="43.39298" lon="-0.92772">
        <ele>64.724</ele>
        <time>2021-04-27T16:38:02Z</time>
      </trkpt>
      <trkpt lat="43.39306" lon="-0.928">
        <ele>64.887</ele>
        <time>2021-04-27T16:38:22Z</time>
      </trkpt>
      <trkpt lat="43.39308" lon="-0.92834">
        <ele>63.92</ele>
        <time>2021-04-27T16:38:42Z</time>
      </trkpt>
      <trkpt lat="43.39308" lon="-0.92868">
        <ele>63.582</ele>
        <time>2021-04-27T16:39:02Z</time>
      </trkpt>
      <trkpt lat="43.39305" lon="-0.92883">
        <ele>63.06</ele>
        <time>2021-04-27T16:39:22Z</time>
      </trkpt>
      <trkpt lat="43.39292" lon="-0.92916">
        <ele>61.595</ele>
        <time>2021-04-27T16:39:42Z</time>
      </trkpt>
      <trkpt lat="43.39292" lon="-0.92922">
        <ele>61.316</ele>
        <time>2021-04-27T16:40:02Z</time>
      </trkpt>
      <trkpt lat="43.39305" lon="-0.92967">
        <ele>60.276</ele>
        <time>2021-04-27T16:40:22Z</time>
      </trkpt>
      <trkpt lat="43.39393" lon="-0.93128">
        <ele>58.613</ele>
        <time>2021-04-27T16:40:42Z</time>
      </trkpt>
      <trkpt lat="43.39465" lon="-0.933">
        <ele>55.808</ele>
        <time>2021-04-27T16:41:02Z</time>
      </trkpt>
      <trkpt lat="43.39517" lon="-0.93377">
        <ele>55.938</ele>
        <time>2021-04-27T16:41:22Z</time>
      </trkpt>
      <trkpt lat="43.39526" lon="-0.93385">
        <ele>56.262</ele>
        <time>2021-04-27T16:41:42Z</time>
      </trkpt>
      <trkpt lat="43.3957" lon="-0.93362">
        <ele>59.448</ele>
        <time>2021-04-27T16:42:02Z</time>
      </trkpt>
      <trkpt lat="43.39585" lon="-0.9336">
        <ele>60.761</ele>
        <time>2021-04-27T16:42:22Z</time>
      </trkpt>
      <trkpt lat="43.39582" lon="-0.93379">
        <ele>59.244</ele>
        <time>2021-04-27T16:42:42Z</time>
      </trkpt>
      <trkpt lat="43.39595" lon="-0.93439">
        <ele>58.356</ele>
        <time>2021-04-27T16:43:02Z</time>
      </trkpt>
      <trkpt lat="43.3963" lon="-0.93518">
        <ele>59.194</ele>
        <time>2021-04-27T16:43:22Z</time>
      </trkpt>
      <trkpt lat="43.39665" lon="-0.93621">
        <ele>56.579</ele>
        <time>2021-04-27T16:43:42Z</time>
      </trkpt>
      <trkpt lat="43.39702" lon="-0.93712">
        <ele>58.353</ele>
        <time>2021-04-27T16:44:02Z</time>
      </trkpt>
      <trkpt lat="43.39727" lon="-0.93791">
        <ele>56.804</ele>
        <time>2021-04-27T16:44:22Z</time>
      </trkpt>
      <trkpt lat="43.3976" lon="-0.93827">
        <ele>57.414</ele>
        <time>2021-04-27T16:44:42Z</time>
      </trkpt>
      <trkpt lat="43.39779" lon="-0.93866">
        <ele>62.808</ele>
        <time>2021-04-27T16:45:02Z</time>
      </trkpt>
      <trkpt lat="43.398" lon="-0.93911">
        <ele>70.632</ele>
        <time>2021-04-27T16:45:22Z</time>
      </trkpt>
      <trkpt lat="43.39808" lon="-0.93958">
        <ele>77.186</ele>
        <time>2021-04-27T16:45:42Z</time>
      </trkpt>
      <trkpt lat="43.39821" lon="-0.93971">
        <ele>81.732</ele>
        <time>2021-04-27T16:46:02Z</time>
      </trkpt>
      <trkpt lat="43.39836" lon="-0.93961">
        <ele>84.425</ele>
        <time>2021-04-27T16:46:22Z</time>
      </trkpt>
      <trkpt lat="43.3986" lon="-0.93984">
        <ele>87.368</ele>
        <time>2021-04-27T16:46:42Z</time>
      </trkpt>
      <trkpt lat="43.39839" lon="-0.94044">
        <ele>89.06</ele>
        <time>2021-04-27T16:47:02Z</time>
      </trkpt>
      <trkpt lat="43.39818" lon="-0.94154">
        <ele>86.368</ele>
        <time>2021-04-27T16:47:22Z</time>
      </trkpt>
      <trkpt lat="43.3976" lon="-0.94156">
        <ele>81.963</ele>
        <time>2021-04-27T16:47:42Z</time>
      </trkpt>
      <trkpt lat="43.39726" lon="-0.94179">
        <ele>76.621</ele>
        <time>2021-04-27T16:48:02Z</time>
      </trkpt>
      <trkpt lat="43.39651" lon="-0.94203">
        <ele>62.841</ele>
        <time>2021-04-27T16:48:22Z</time>
      </trkpt>
      <trkpt lat="43.39662" lon="-0.94156">
        <ele>62.405</ele>
        <time>2021-04-27T16:48:42Z</time>
      </trkpt>
      <trkpt lat="43.39683" lon="-0.941">
        <ele>62.208</ele>
        <time>2021-04-27T16:49:02Z</time>
      </trkpt>
      <trkpt lat="43.39659" lon="-0.94113">
        <ele>58.869</ele>
        <time>2021-04-27T16:49:22Z</time>
      </trkpt>
      <trkpt lat="43.39629" lon="-0.94119">
        <ele>56.623</ele>
        <time>2021-04-27T16:49:42Z</time>
      </trkpt>
      <trkpt lat="43.39599" lon="-0.94132">
        <ele>54.139</ele>
        <time>2021-04-27T16:50:02Z</time>
      </trkpt>
      <trkpt lat="43.39574" lon="-0.9416">
        <ele>52.262</ele>
        <time>2021-04-27T16:50:22Z</time>
      </trkpt>
      <trkpt lat="43.39537" lon="-0.94248">
        <ele>53.025</ele>
        <time>2021-04-27T16:50:42Z</time>
      </trkpt>
      <trkpt lat="43.39523" lon="-0.94302">
        <ele>52.137</ele>
        <time>2021-04-27T16:51:02Z</time>
      </trkpt>
      <trkpt lat="43.39518" lon="-0.94394">
        <ele>51.625</ele>
        <time>2021-04-27T16:51:22Z</time>
      </trkpt>
      <trkpt lat="43.39507" lon="-0.94424">
        <ele>51.49</ele>
        <time>2021-04-27T16:51:42Z</time>
      </trkpt>
      <trkpt lat="43.39574" lon="-0.94467">
        <ele>55.935</ele>
        <time>2021-04-27T16:52:02Z</time>
      </trkpt>
      <trkpt lat="43.39591" lon="-0.94493">
        <ele>58.586</ele>
        <time>2021-04-27T16:52:22Z</time>
      </trkpt>
      <trkpt lat="43.39584" lon="-0.94508">
        <ele>57.914</ele>
        <time>2021-04-27T16:52:42Z</time>
      </trkpt>
      <trkpt lat="43.39562" lon="-0.94521">
        <ele>56.208</ele>
        <time>2021-04-27T16:53:02Z</time>
      </trkpt>
      <trkpt lat="43.39487" lon="-0.94482">
        <ele>51.78</ele>
        <time>2021-04-27T16:53:22Z</time>
      </trkpt>
      <trkpt lat="43.39412" lon="-0.94454">
        <ele>52.884</ele>
        <time>2021-04-27T16:53:42Z</time>
      </trkpt>
      <trkpt lat="43.39359" lon="-0.94424">
        <ele>60.08</ele>
        <time>2021-04-27T16:54:02Z</time>
      </trkpt>
      <trkpt lat="43.39208" lon="-0.94289">
        <ele>68.813</ele>
        <time>2021-04-27T16:54:22Z</time>
      </trkpt>
      <trkpt lat="43.39197" lon="-0.94285">
        <ele>69.236</ele>
        <time>2021-04-27T16:54:42Z</time>
      </trkpt>
      <trkpt lat="43.39166" lon="-0.94282">
        <ele>70.458</ele>
        <time>2021-04-27T16:55:02Z</time>
      </trkpt>
      <trkpt lat="43.39086" lon="-0.943">
        <ele>71.226</ele>
        <time>2021-04-27T16:55:22Z</time>
      </trkpt>
      <trkpt lat="43.39035" lon="-0.94315">
        <ele>71.021</ele>
        <time>2021-04-27T16:55:42Z</time>
      </trkpt>
      <trkpt lat="43.38988" lon="-0.94342">
        <ele>70.871</ele>
        <time>2021-04-27T16:56:02Z</time>
      </trkpt>
      <trkpt lat="43.38965" lon="-0.94357">
        <ele>70.741</ele>
        <time>2021-04-27T16:56:22Z</time>
      </trkpt>
      <trkpt lat="43.38963" lon="-0.94366">
        <ele>70.615</ele>
        <time>2021-04-27T16:56:42Z</time>
      </trkpt>
      <trkpt lat="43.38954" lon="-0.94381">
        <ele>70.508</ele>
        <time>2021-04-27T16:57:02Z</time>
      </trkpt>
      <trkpt lat="43.38943" lon="-0.94383">
        <ele>70.664</ele>
        <time>2021-04-27T16:57:22Z</time>
      </trkpt>
      <trkpt lat="43.38919" lon="-0.94415">
        <ele>70.948</ele>
        <time>2021-04-27T16:57:42Z</time>
      </trkpt>
      <trkpt lat="43.38894" lon="-0.94426">
        <ele>71.674</ele>
        <time>2021-04-27T16:58:02Z</time>
      </trkpt>
      <trkpt lat="43.38712" lon="-0.94546">
        <ele>71.277</ele>
        <time>2021-04-27T16:58:22Z</time>
      </trkpt>
      <trkpt lat="43.38647" lon="-0.94594">
        <ele>72.48</ele>
        <time>2021-04-27T16:58:42Z</time>
      </trkpt>
      <trkpt lat="43.3857" lon="-0.94666">
        <ele>71.342</ele>
        <time>2021-04-27T16:59:02Z</time>
      </trkpt>
      <trkpt lat="43.3847" lon="-0.94789">
        <ele>70.01</ele>
        <time>2021-04-27T16:59:22Z</time>
      </trkpt>
      <trkpt lat="43.3845" lon="-0.94802">
        <ele>70.495</ele>
        <time>2021-04-27T16:59:42Z</time>
      </trkpt>
      <trkpt lat="43.38377" lon="-0.94832">
        <ele>71.513</ele>
        <time>2021-04-27T17:00:02Z</time>
      </trkpt>
      <trkpt lat="43.38293" lon="-0.94894">
        <ele>69.643</ele>
        <time>2021-04-27T17:00:22Z</time>
      </trkpt>
      <trkpt lat="43.38289" lon="-0.94911">
        <ele>69.107</ele>
        <time>2021-04-27T17:00:42Z</time>
      </trkpt>
      <trkpt lat="43.38271" lon="-0.94956">
        <ele>68.708</ele>
        <time>2021-04-27T17:01:02Z</time>
      </trkpt>
      <trkpt lat="43.38247" lon="-0.94975">
        <ele>68.448</ele>
        <time>2021-04-27T17:01:22Z</time>
      </trkpt>
      <trkpt lat="43.38241" lon="-0.94978">
        <ele>67.762</ele>
        <time>2021-04-27T17:01:42Z</time>
      </trkpt>
      <trkpt lat="43.38229" lon="-0.94941">
        <ele>66.128</ele>
        <time>2021-04-27T17:02:02Z</time>
      </trkpt>
      <trkpt lat="43.38183" lon="-0.94963">
        <ele>61.331</ele>
        <time>2021-04-27T17:02:22Z</time>
      </trkpt>
      <trkpt lat="43.38143" lon="-0.94967">
        <ele>57.974</ele>
        <time>2021-04-27T17:02:42Z</time>
      </trkpt>
      <trkpt lat="43.38141" lon="-0.9495">
        <ele>57.996</ele>
        <time>2021-04-27T17:03:02Z</time>
      </trkpt>
      <trkpt lat="43.38137" lon="-0.94943">
        <ele>57.684</ele>
        <time>2021-04-27T17:03:22Z</time>
      </trkpt>
      <trkpt lat="43.3807" lon="-0.94909">
        <ele>54.229</ele>
        <time>2021-04-27T17:03:42Z</time>
      </trkpt>
      <trkpt lat="43.3806" lon="-0.94909">
        <ele>54.295</ele>
        <time>2021-04-27T17:04:02Z</time>
      </trkpt>
      <trkpt lat="43.38051" lon="-0.94913">
        <ele>54.149</ele>
        <time>2021-04-27T17:04:22Z</time>
      </trkpt>
      <trkpt lat="43.38029" lon="-0.94952">
        <ele>54.623</ele>
        <time>2021-04-27T17:04:42Z</time>
      </trkpt>
      <trkpt lat="43.38021" lon="-0.94971">
        <ele>55.008</ele>
        <time>2021-04-27T17:05:02Z</time>
      </trkpt>
      <trkpt lat="43.37963" lon="-0.94965">
        <ele>53.816</ele>
        <time>2021-04-27T17:05:22Z</time>
      </trkpt>
      <trkpt lat="43.37918" lon="-0.94945">
        <ele>51.72</ele>
        <time>2021-04-27T17:05:42Z</time>
      </trkpt>
      <trkpt lat="43.37878" lon="-0.94922">
        <ele>55.486</ele>
        <time>2021-04-27T17:06:02Z</time>
      </trkpt>
      <trkpt lat="43.37864" lon="-0.94939">
        <ele>57.449</ele>
        <time>2021-04-27T17:06:22Z</time>
      </trkpt>
      <trkpt lat="43.37859" lon="-0.94956">
        <ele>58.552</ele>
        <time>2021-04-27T17:06:42Z</time>
      </trkpt>
      <trkpt lat="43.37859" lon="-0.94982">
        <ele>59.324</ele>
        <time>2021-04-27T17:07:02Z</time>
      </trkpt>
      <trkpt lat="43.37822" lon="-0.95063">
        <ele>64.362</ele>
        <time>2021-04-27T17:07:22Z</time>
      </trkpt>
      <trkpt lat="43.37814" lon="-0.95109">
        <ele>64.327</ele>
        <time>2021-04-27T17:07:42Z</time>
      </trkpt>
      <trkpt lat="43.37806" lon="-0.95212">
        <ele>64.465</ele>
        <time>2021-04-27T17:08:02Z</time>
      </trkpt>
      <trkpt lat="43.37806" lon="-0.95272">
        <ele>65.668</ele>
        <time>2021-04-27T17:08:22Z</time>
      </trkpt>
      <trkpt lat="43.37801" lon="-0.95297">
        <ele>66.314</ele>
        <time>2021-04-27T17:08:42Z</time>
      </trkpt>
      <trkpt lat="43.37848" lon="-0.95379">
        <ele>63.108</ele>
        <time>2021-04-27T17:09:02Z</time>
      </trkpt>
      <trkpt lat="43.37851" lon="-0.95394">
        <ele>63.193</ele>
        <time>2021-04-27T17:09:22Z</time>
      </trkpt>
      <trkpt lat="43.37851" lon="-0.95437">
        <ele>63.797</ele>
        <time>2021-04-27T17:09:42Z</time>
      </trkpt>
      <trkpt lat="43.37843" lon="-0.95505">
        <ele>63.383</ele>
        <time>2021-04-27T17:10:02Z</time>
      </trkpt>
      <trkpt lat="43.37839" lon="-0.95516">
        <ele>62.696</ele>
        <time>2021-04-27T17:10:22Z</time>
      </trkpt>
      <trkpt lat="43.3779" lon="-0.95572">
        <ele>58.519</ele>
        <time>2021-04-27T17:10:42Z</time>
      </trkpt>
      <trkpt lat="43.37787" lon="-0.95585">
        <ele>57.661</ele>
        <time>2021-04-27T17:11:02Z</time>
      </trkpt>
      <trkpt lat="43.37786" lon="-0.95604">
        <ele>58.579</ele>
        <time>2021-04-27T17:11:22Z</time>
      </trkpt>
      <trkpt lat="43.37797" lon="-0.95634">
        <ele>60.034</ele>
        <time>2021-04-27T17:11:42Z</time>
      </trkpt>
      <trkpt lat="43.3782" lon="-0.95735">
        <ele>67.255</ele>
        <time>2021-04-27T17:12:02Z</time>
      </trkpt>
      <trkpt lat="43.37828" lon="-0.95754">
        <ele>68.907</ele>
        <time>2021-04-27T17:12:22Z</time>
      </trkpt>
      <trkpt lat="43.37868" lon="-0.95812">
        <ele>70.917</ele>
        <time>2021-04-27T17:12:42Z</time>
      </trkpt>
      <trkpt lat="43.37886" lon="-0.95842">
        <ele>71.108</ele>
        <time>2021-04-27T17:13:02Z</time>
      </trkpt>
      <trkpt lat="43.37861" lon="-0.95851">
        <ele>71.042</ele>
        <time>2021-04-27T17:13:22Z</time>
      </trkpt>
      <trkpt lat="43.37845" lon="-0.95864">
        <ele>70.586</ele>
        <time>2021-04-27T17:13:42Z</time>
      </trkpt>
      <trkpt lat="43.37825" lon="-0.95892">
        <ele>69.162</ele>
        <time>2021-04-27T17:14:02Z</time>
      </trkpt>
      <trkpt lat="43.37804" lon="-0.95924">
        <ele>68.025</ele>
        <time>2021-04-27T17:14:22Z</time>
      </trkpt>
      <trkpt lat="43.37786" lon="-0.95965">
        <ele>67.738</ele>
        <time>2021-04-27T17:14:42Z</time>
      </trkpt>
      <trkpt lat="43.3777" lon="-0.96008">
        <ele>67.31</ele>
        <time>2021-04-27T17:15:02Z</time>
      </trkpt>
      <trkpt lat="43.37762" lon="-0.96046">
        <ele>67.758</ele>
        <time>2021-04-27T17:15:22Z</time>
      </trkpt>
      <trkpt lat="43.37786" lon="-0.96076">
        <ele>68.353</ele>
        <time>2021-04-27T17:15:42Z</time>
      </trkpt>
      <trkpt lat="43.37789" lon="-0.96091">
        <ele>68.629</ele>
        <time>2021-04-27T17:16:02Z</time>
      </trkpt>
      <trkpt lat="43.37787" lon="-0.96104">
        <ele>68.7</ele>
        <time>2021-04-27T17:16:22Z</time>
      </trkpt>
      <trkpt lat="43.37755" lon="-0.96235">
        <ele>69.82</ele>
        <time>2021-04-27T17:16:42Z</time>
      </trkpt>
      <trkpt lat="43.37742" lon="-0.96432">
        <ele>79.608</ele>
        <time>2021-04-27T17:17:02Z</time>
      </trkpt>
      <trkpt lat="43.37708" lon="-0.96548">
        <ele>92.079</ele>
        <time>2021-04-27T17:17:22Z</time>
      </trkpt>
      <trkpt lat="43.37678" lon="-0.96636">
        <ele>93.443</ele>
        <time>2021-04-27T17:17:42Z</time>
      </trkpt>
      <trkpt lat="43.37672" lon="-0.96737">
        <ele>94.619</ele>
        <time>2021-04-27T17:18:02Z</time>
      </trkpt>
      <trkpt lat="43.37664" lon="-0.96797">
        <ele>99.192</ele>
        <time>2021-04-27T17:18:22Z</time>
      </trkpt>
      <trkpt lat="43.37623" lon="-0.96892">
        <ele>105.235</ele>
        <time>2021-04-27T17:18:42Z</time>
      </trkpt>
      <trkpt lat="43.37611" lon="-0.96935">
        <ele>106.797</ele>
        <time>2021-04-27T17:19:02Z</time>
      </trkpt>
      <trkpt lat="43.37603" lon="-0.96969">
        <ele>108.425</ele>
        <time>2021-04-27T17:19:22Z</time>
      </trkpt>
      <trkpt lat="43.37614" lon="-0.97029">
        <ele>117.37</ele>
        <time>2021-04-27T17:19:42Z</time>
      </trkpt>
      <trkpt lat="43.37623" lon="-0.97055">
        <ele>122.639</ele>
        <time>2021-04-27T17:20:02Z</time>
      </trkpt>
      <trkpt lat="43.37634" lon="-0.97074">
        <ele>127.301</ele>
        <time>2021-04-27T17:20:22Z</time>
      </trkpt>
      <trkpt lat="43.37613" lon="-0.97121">
        <ele>128.621</ele>
        <time>2021-04-27T17:20:42Z</time>
      </trkpt>
      <trkpt lat="43.37586" lon="-0.97136">
        <ele>126.608</ele>
        <time>2021-04-27T17:21:02Z</time>
      </trkpt>
      <trkpt lat="43.37572" lon="-0.97164">
        <ele>131.15</ele>
        <time>2021-04-27T17:21:22Z</time>
      </trkpt>
      <trkpt lat="43.37516" lon="-0.97211">
        <ele>138.164</ele>
        <time>2021-04-27T17:21:42Z</time>
      </trkpt>
      <trkpt lat="43.37507" lon="-0.97224">
        <ele>139.25</ele>
        <time>2021-04-27T17:22:02Z</time>
      </trkpt>
      <trkpt lat="43.375" lon="-0.97244">
        <ele>140.543</ele>
        <time>2021-04-27T17:22:22Z</time>
      </trkpt>
      <trkpt lat="43.3751" lon="-0.97265">
        <ele>140.626</ele>
        <time>2021-04-27T17:22:42Z</time>
      </trkpt>
      <trkpt lat="43.37553" lon="-0.97336">
        <ele>141.428</ele>
        <time>2021-04-27T17:23:02Z</time>
      </trkpt>
      <trkpt lat="43.37555" lon="-0.97351">
        <ele>141.076</ele>
        <time>2021-04-27T17:23:22Z</time>
      </trkpt>
      <trkpt lat="43.37546" lon="-0.97379">
        <ele>139.281</ele>
        <time>2021-04-27T17:23:42Z</time>
      </trkpt>
      <trkpt lat="43.37533" lon="-0.97428">
        <ele>136.483</ele>
        <time>2021-04-27T17:24:02Z</time>
      </trkpt>
      <trkpt lat="43.37524" lon="-0.9745">
        <ele>134.925</ele>
        <time>2021-04-27T17:24:22Z</time>
      </trkpt>
      <trkpt lat="43.37508" lon="-0.97499">
        <ele>131.817</ele>
        <time>2021-04-27T17:24:42Z</time>
      </trkpt>
      <trkpt lat="43.37477" lon="-0.97538">
        <ele>132.408</ele>
        <time>2021-04-27T17:25:02Z</time>
      </trkpt>
      <trkpt lat="43.37471" lon="-0.97563">
        <ele>132.125</ele>
        <time>2021-04-27T17:25:22Z</time>
      </trkpt>
      <trkpt lat="43.37471" lon="-0.97613">
        <ele>129.519</ele>
        <time>2021-04-27T17:25:42Z</time>
      </trkpt>
      <trkpt lat="43.37466" lon="-0.97643">
        <ele>127.725</ele>
        <time>2021-04-27T17:26:02Z</time>
      </trkpt>
      <trkpt lat="43.37461" lon="-0.97656">
        <ele>126.818</ele>
        <time>2021-04-27T17:26:22Z</time>
      </trkpt>
      <trkpt lat="43.3743" lon="-0.97692">
        <ele>125.971</ele>
        <time>2021-04-27T17:26:42Z</time>
      </trkpt>
      <trkpt lat="43.37377" lon="-0.97746">
        <ele>127.163</ele>
        <time>2021-04-27T17:27:02Z</time>
      </trkpt>
      <trkpt lat="43.3736" lon="-0.97767">
        <ele>126.571</ele>
        <time>2021-04-27T17:27:22Z</time>
      </trkpt>
      <trkpt lat="43.37351" lon="-0.97784">
        <ele>125.516</ele>
        <time>2021-04-27T17:27:42Z</time>
      </trkpt>
      <trkpt lat="43.37344" lon="-0.97806">
        <ele>123.744</ele>
        <time>2021-04-27T17:28:02Z</time>
      </trkpt>
      <trkpt lat="43.37343" lon="-0.9784">
        <ele>121.305</ele>
        <time>2021-04-27T17:28:22Z</time>
      </trkpt>
      <trkpt lat="43.37316" lon="-0.97859">
        <ele>121.815</ele>
        <time>2021-04-27T17:28:42Z</time>
      </trkpt>
      <trkpt lat="43.3729" lon="-0.97894">
        <ele>121.008</ele>
        <time>2021-04-27T17:29:02Z</time>
      </trkpt>
      <trkpt lat="43.37249" lon="-0.9795">
        <ele>118.721</ele>
        <time>2021-04-27T17:29:22Z</time>
      </trkpt>
      <trkpt lat="43.37216" lon="-0.9801">
        <ele>117.895</ele>
        <time>2021-04-27T17:29:42Z</time>
      </trkpt>
      <trkpt lat="43.37193" lon="-0.9804">
        <ele>116.921</ele>
        <time>2021-04-27T17:30:02Z</time>
      </trkpt>
      <trkpt lat="43.37171" lon="-0.98065">
        <ele>114.354</ele>
        <time>2021-04-27T17:30:22Z</time>
      </trkpt>
      <trkpt lat="43.37137" lon="-0.98095">
        <ele>115.567</ele>
        <time>2021-04-27T17:30:42Z</time>
      </trkpt>
      <trkpt lat="43.37025" lon="-0.98175">
        <ele>117.039</ele>
        <time>2021-04-27T17:31:02Z</time>
      </trkpt>
      <trkpt lat="43.36987" lon="-0.98181">
        <ele>115.347</ele>
        <time>2021-04-27T17:31:22Z</time>
      </trkpt>
      <trkpt lat="43.3694" lon="-0.98218">
        <ele>113.572</ele>
        <time>2021-04-27T17:31:42Z</time>
      </trkpt>
      <trkpt lat="43.36879" lon="-0.98237">
        <ele>108.668</ele>
        <time>2021-04-27T17:32:02Z</time>
      </trkpt>
      <trkpt lat="43.36828" lon="-0.98228">
        <ele>109.342</ele>
        <time>2021-04-27T17:32:22Z</time>
      </trkpt>
      <trkpt lat="43.368" lon="-0.98231">
        <ele>108.426</ele>
        <time>2021-04-27T17:32:42Z</time>
      </trkpt>
      <trkpt lat="43.36723" lon="-0.98267">
        <ele>107.008</ele>
        <time>2021-04-27T17:33:02Z</time>
      </trkpt>
      <trkpt lat="43.36666" lon="-0.98306">
        <ele>106.363</ele>
        <time>2021-04-27T17:33:22Z</time>
      </trkpt>
      <trkpt lat="43.36641" lon="-0.98338">
        <ele>104.847</ele>
        <time>2021-04-27T17:33:42Z</time>
      </trkpt>
      <trkpt lat="43.3663" lon="-0.98355">
        <ele>105.733</ele>
        <time>2021-04-27T17:34:02Z</time>
      </trkpt>
      <trkpt lat="43.3661" lon="-0.98396">
        <ele>106.056</ele>
        <time>2021-04-27T17:34:22Z</time>
      </trkpt>
      <trkpt lat="43.36583" lon="-0.98424">
        <ele>102.749</ele>
        <time>2021-04-27T17:34:42Z</time>
      </trkpt>
      <trkpt lat="43.36578" lon="-0.98434">
        <ele>103.911</ele>
        <time>2021-04-27T17:35:02Z</time>
      </trkpt>
      <trkpt lat="43.36569" lon="-0.9848">
        <ele>107.179</ele>
        <time>2021-04-27T17:35:22Z</time>
      </trkpt>
      <trkpt lat="43.36552" lon="-0.98503">
        <ele>107.034</ele>
        <time>2021-04-27T17:35:42Z</time>
      </trkpt>
      <trkpt lat="43.36494" lon="-0.98531">
        <ele>104.363</ele>
        <time>2021-04-27T17:36:02Z</time>
      </trkpt>
      <trkpt lat="43.36451" lon="-0.98542">
        <ele>101.844</ele>
        <time>2021-04-27T17:36:22Z</time>
      </trkpt>
      <trkpt lat="43.36407" lon="-0.98561">
        <ele>98.318</ele>
        <time>2021-04-27T17:36:42Z</time>
      </trkpt>
      <trkpt lat="43.36346" lon="-0.98604">
        <ele>92.308</ele>
        <time>2021-04-27T17:37:02Z</time>
      </trkpt>
      <trkpt lat="43.36318" lon="-0.9861">
        <ele>91.483</ele>
        <time>2021-04-27T17:37:22Z</time>
      </trkpt>
      <trkpt lat="43.36279" lon="-0.98606">
        <ele>91.787</ele>
        <time>2021-04-27T17:37:42Z</time>
      </trkpt>
      <trkpt lat="43.36202" lon="-0.98634">
        <ele>95.133</ele>
        <time>2021-04-27T17:38:02Z</time>
      </trkpt>
      <trkpt lat="43.3609" lon="-0.98638">
        <ele>105.656</ele>
        <time>2021-04-27T17:38:22Z</time>
      </trkpt>
      <trkpt lat="43.36012" lon="-0.98632">
        <ele>107.149</ele>
        <time>2021-04-27T17:38:42Z</time>
      </trkpt>
      <trkpt lat="43.35973" lon="-0.98634">
        <ele>109.161</ele>
        <time>2021-04-27T17:39:02Z</time>
      </trkpt>
      <trkpt lat="43.35928" lon="-0.98619">
        <ele>111.789</ele>
        <time>2021-04-27T17:39:22Z</time>
      </trkpt>
      <trkpt lat="43.3588" lon="-0.98638">
        <ele>114.084</ele>
        <time>2021-04-27T17:39:42Z</time>
      </trkpt>
      <trkpt lat="43.35839" lon="-0.9861">
        <ele>116.178</ele>
        <time>2021-04-27T17:40:02Z</time>
      </trkpt>
      <trkpt lat="43.35745" lon="-0.98576">
        <ele>118.633</ele>
        <time>2021-04-27T17:40:22Z</time>
      </trkpt>
      <trkpt lat="43.35724" lon="-0.9857">
        <ele>117.826</ele>
        <time>2021-04-27T17:40:42Z</time>
      </trkpt>
      <trkpt lat="43.35711" lon="-0.98559">
        <ele>117.408</ele>
        <time>2021-04-27T17:41:02Z</time>
      </trkpt>
      <trkpt lat="43.35694" lon="-0.98531">
        <ele>117.214</ele>
        <time>2021-04-27T17:41:22Z</time>
      </trkpt>
      <trkpt lat="43.35688" lon="-0.98503">
        <ele>117.568</ele>
        <time>2021-04-27T17:41:42Z</time>
      </trkpt>
      <trkpt lat="43.35608" lon="-0.98533">
        <ele>114.434</ele>
        <time>2021-04-27T17:42:02Z</time>
      </trkpt>
      <trkpt lat="43.35572" lon="-0.9855">
        <ele>111.877</ele>
        <time>2021-04-27T17:42:22Z</time>
      </trkpt>
      <trkpt lat="43.35564" lon="-0.98555">
        <ele>111.18</ele>
        <time>2021-04-27T17:42:42Z</time>
      </trkpt>
      <trkpt lat="43.35557" lon="-0.98567">
        <ele>110.132</ele>
        <time>2021-04-27T17:43:02Z</time>
      </trkpt>
      <trkpt lat="43.35547" lon="-0.986">
        <ele>108.38</ele>
        <time>2021-04-27T17:43:22Z</time>
      </trkpt>
      <trkpt lat="43.35505" lon="-0.98696">
        <ele>105.075</ele>
        <time>2021-04-27T17:43:42Z</time>
      </trkpt>
      <trkpt lat="43.35471" lon="-0.9893">
        <ele>99.545</ele>
        <time>2021-04-27T17:44:02Z</time>
      </trkpt>
      <trkpt lat="43.35461" lon="-0.98982">
        <ele>96.547</ele>
        <time>2021-04-27T17:44:22Z</time>
      </trkpt>
      <trkpt lat="43.35446" lon="-0.99031">
        <ele>95.111</ele>
        <time>2021-04-27T17:44:42Z</time>
      </trkpt>
      <trkpt lat="43.3541" lon="-0.99125">
        <ele>99.808</ele>
        <time>2021-04-27T17:45:02Z</time>
      </trkpt>
      <trkpt lat="43.3538" lon="-0.99192">
        <ele>99.291</ele>
        <time>2021-04-27T17:45:22Z</time>
      </trkpt>
      <trkpt lat="43.35376" lon="-0.99265">
        <ele>96.135</ele>
        <time>2021-04-27T17:45:42Z</time>
      </trkpt>
      <trkpt lat="43.35368" lon="-0.99316">
        <ele>92.041</ele>
        <time>2021-04-27T17:46:02Z</time>
      </trkpt>
      <trkpt lat="43.3536" lon="-0.99357">
        <ele>88.994</ele>
        <time>2021-04-27T17:46:22Z</time>
      </trkpt>
      <trkpt lat="43.35348" lon="-0.99396">
        <ele>86.597</ele>
        <time>2021-04-27T17:46:42Z</time>
      </trkpt>
      <trkpt lat="43.35332" lon="-0.99437">
        <ele>84.829</ele>
        <time>2021-04-27T17:47:02Z</time>
      </trkpt>
      <trkpt lat="43.35312" lon="-0.99471">
        <ele>82.917</ele>
        <time>2021-04-27T17:47:22Z</time>
      </trkpt>
      <trkpt lat="43.35285" lon="-0.99501">
        <ele>82.152</ele>
        <time>2021-04-27T17:47:42Z</time>
      </trkpt>
      <trkpt lat="43.35252" lon="-0.99533">
        <ele>80.261</ele>
        <time>2021-04-27T17:48:02Z</time>
      </trkpt>
      <trkpt lat="43.3529" lon="-0.99602">
        <ele>75.521</ele>
        <time>2021-04-27T17:48:22Z</time>
      </trkpt>
      <trkpt lat="43.35315" lon="-0.99625">
        <ele>74.413</ele>
        <time>2021-04-27T17:48:42Z</time>
      </trkpt>
      <trkpt lat="43.35366" lon="-0.99664">
        <ele>73.308</ele>
        <time>2021-04-27T17:49:02Z</time>
      </trkpt>
      <trkpt lat="43.35387" lon="-0.99683">
        <ele>74.213</ele>
        <time>2021-04-27T17:49:22Z</time>
      </trkpt>
      <trkpt lat="43.35397" lon="-0.99703">
        <ele>75.197</ele>
        <time>2021-04-27T17:49:42Z</time>
      </trkpt>
      <trkpt lat="43.35415" lon="-0.99761">
        <ele>77.263</ele>
        <time>2021-04-27T17:50:02Z</time>
      </trkpt>
      <trkpt lat="43.35302" lon="-0.99857">
        <ele>75.626</ele>
        <time>2021-04-27T17:50:22Z</time>
      </trkpt>
      <trkpt lat="43.35243" lon="-0.999">
        <ele>75.569</ele>
        <time>2021-04-27T17:50:42Z</time>
      </trkpt>
      <trkpt lat="43.35134" lon="-0.9999">
        <ele>68.211</ele>
        <time>2021-04-27T17:51:02Z</time>
      </trkpt>
      <trkpt lat="43.35117" lon="-1.00001">
        <ele>66.799</ele>
        <time>2021-04-27T17:51:22Z</time>
      </trkpt>
      <trkpt lat="43.35062" lon="-1.0002">
        <ele>63.574</ele>
        <time>2021-04-27T17:51:42Z</time>
      </trkpt>
      <trkpt lat="43.35037" lon="-1.00033">
        <ele>63.568</ele>
        <time>2021-04-27T17:52:02Z</time>
      </trkpt>
      <trkpt lat="43.35026" lon="-1.00044">
        <ele>63.142</ele>
        <time>2021-04-27T17:52:22Z</time>
      </trkpt>
      <trkpt lat="43.35017" lon="-1.00061">
        <ele>62.226</ele>
        <time>2021-04-27T17:52:42Z</time>
      </trkpt>
      <trkpt lat="43.35014" lon="-1.00093">
        <ele>60.808</ele>
        <time>2021-04-27T17:53:02Z</time>
      </trkpt>
      <trkpt lat="43.35014" lon="-1.00145">
        <ele>61.513</ele>
        <time>2021-04-27T17:53:22Z</time>
      </trkpt>
      <trkpt lat="43.35021" lon="-1.00155">
        <ele>61.147</ele>
        <time>2021-04-27T17:53:42Z</time>
      </trkpt>
      <trkpt lat="43.35034" lon="-1.00194">
        <ele>60.273</ele>
        <time>2021-04-27T17:54:02Z</time>
      </trkpt>
      <trkpt lat="43.35046" lon="-1.00224">
        <ele>59.166</ele>
        <time>2021-04-27T17:54:22Z</time>
      </trkpt>
      <trkpt lat="43.35115" lon="-1.00351">
        <ele>56.859</ele>
        <time>2021-04-27T17:54:42Z</time>
      </trkpt>
      <trkpt lat="43.35134" lon="-1.00396">
        <ele>56.541</ele>
        <time>2021-04-27T17:55:02Z</time>
      </trkpt>
      <trkpt lat="43.35162" lon="-1.00484">
        <ele>59.369</ele>
        <time>2021-04-27T17:55:22Z</time>
      </trkpt>
      <trkpt lat="43.35209" lon="-1.00595">
        <ele>58.544</ele>
        <time>2021-04-27T17:55:42Z</time>
      </trkpt>
      <trkpt lat="43.3523" lon="-1.0066">
        <ele>56.344</ele>
        <time>2021-04-27T17:56:02Z</time>
      </trkpt>
      <trkpt lat="43.35251" lon="-1.0072">
        <ele>55.905</ele>
        <time>2021-04-27T17:56:22Z</time>
      </trkpt>
      <trkpt lat="43.35291" lon="-1.00881">
        <ele>62.515</ele>
        <time>2021-04-27T17:56:42Z</time>
      </trkpt>
      <trkpt lat="43.35309" lon="-1.00913">
        <ele>63.408</ele>
        <time>2021-04-27T17:57:02Z</time>
      </trkpt>
      <trkpt lat="43.35382" lon="-1.01022">
        <ele>64.441</ele>
        <time>2021-04-27T17:57:22Z</time>
      </trkpt>
      <trkpt lat="43.35387" lon="-1.01035">
        <ele>64.745</ele>
        <time>2021-04-27T17:57:42Z</time>
      </trkpt>
      <trkpt lat="43.35388" lon="-1.01076">
        <ele>65.561</ele>
        <time>2021-04-27T17:58:02Z</time>
      </trkpt>
      <trkpt lat="43.35401" lon="-1.01132">
        <ele>67.294</ele>
        <time>2021-04-27T17:58:22Z</time>
      </trkpt>
      <trkpt lat="43.35419" lon="-1.01166">
        <ele>68.097</ele>
        <time>2021-04-27T17:58:42Z</time>
      </trkpt>
      <trkpt lat="43.35455" lon="-1.01218">
        <ele>70.059</ele>
        <time>2021-04-27T17:59:02Z</time>
      </trkpt>
      <trkpt lat="43.3546" lon="-1.01254">
        <ele>71.757</ele>
        <time>2021-04-27T17:59:22Z</time>
      </trkpt>
      <trkpt lat="43.3545" lon="-1.01321">
        <ele>75.562</ele>
        <time>2021-04-27T17:59:42Z</time>
      </trkpt>
      <trkpt lat="43.3543" lon="-1.01389">
        <ele>80.385</ele>
        <time>2021-04-27T18:00:02Z</time>
      </trkpt>
      <trkpt lat="43.35429" lon="-1.01419">
        <ele>82.389</ele>
        <time>2021-04-27T18:00:22Z</time>
      </trkpt>
      <trkpt lat="43.35441" lon="-1.01445">
        <ele>83.417</ele>
        <time>2021-04-27T18:00:42Z</time>
      </trkpt>
      <trkpt lat="43.35458" lon="-1.0146">
        <ele>84.108</ele>
        <time>2021-04-27T18:01:02Z</time>
      </trkpt>
      <trkpt lat="43.35511" lon="-1.01471">
        <ele>84.265</ele>
        <time>2021-04-27T18:01:22Z</time>
      </trkpt>
      <trkpt lat="43.3553" lon="-1.01486">
        <ele>84.399</ele>
        <time>2021-04-27T18:01:42Z</time>
      </trkpt>
      <trkpt lat="43.35544" lon="-1.0152">
        <ele>83.465</ele>
        <time>2021-04-27T18:02:02Z</time>
      </trkpt>
      <trkpt lat="43.35552" lon="-1.01557">
        <ele>81.478</ele>
        <time>2021-04-27T18:02:22Z</time>
      </trkpt>
      <trkpt lat="43.35533" lon="-1.0155">
        <ele>81.821</ele>
        <time>2021-04-27T18:02:42Z</time>
      </trkpt>
      <trkpt lat="43.35489" lon="-1.0155">
        <ele>82.213</ele>
        <time>2021-04-27T18:03:02Z</time>
      </trkpt>
      <trkpt lat="43.35433" lon="-1.01559">
        <ele>82.821</ele>
        <time>2021-04-27T18:03:22Z</time>
      </trkpt>
      <trkpt lat="43.35321" lon="-1.01537">
        <ele>85.566</ele>
        <time>2021-04-27T18:03:42Z</time>
      </trkpt>
      <trkpt lat="43.35265" lon="-1.01537">
        <ele>88.276</ele>
        <time>2021-04-27T18:04:02Z</time>
      </trkpt>
      <trkpt lat="43.3516" lon="-1.01481">
        <ele>89.39</ele>
        <time>2021-04-27T18:04:22Z</time>
      </trkpt>
      <trkpt lat="43.35064" lon="-1.01449">
        <ele>89.719</ele>
        <time>2021-04-27T18:04:42Z</time>
      </trkpt>
      <trkpt lat="43.35062" lon="-1.01486">
        <ele>88.708</ele>
        <time>2021-04-27T18:05:02Z</time>
      </trkpt>
      <trkpt lat="43.35053" lon="-1.0152">
        <ele>86.984</ele>
        <time>2021-04-27T18:05:22Z</time>
      </trkpt>
      <trkpt lat="43.35003" lon="-1.01604">
        <ele>82.078</ele>
        <time>2021-04-27T18:05:42Z</time>
      </trkpt>
      <trkpt lat="43.34992" lon="-1.01638">
        <ele>79.094</ele>
        <time>2021-04-27T18:06:02Z</time>
      </trkpt>
      <trkpt lat="43.34978" lon="-1.0172">
        <ele>70.997</ele>
        <time>2021-04-27T18:06:22Z</time>
      </trkpt>
      <trkpt lat="43.34964" lon="-1.01741">
        <ele>68.96</ele>
        <time>2021-04-27T18:06:42Z</time>
      </trkpt>
      <trkpt lat="43.3492" lon="-1.01745">
        <ele>69.592</ele>
        <time>2021-04-27T18:07:02Z</time>
      </trkpt>
      <trkpt lat="43.34837" lon="-1.01745">
        <ele>68.42</ele>
        <time>2021-04-27T18:07:22Z</time>
      </trkpt>
      <trkpt lat="43.34833" lon="-1.01758">
        <ele>67.715</ele>
        <time>2021-04-27T18:07:42Z</time>
      </trkpt>
      <trkpt lat="43.34831" lon="-1.01803">
        <ele>66.153</ele>
        <time>2021-04-27T18:08:02Z</time>
      </trkpt>
      <trkpt lat="43.34823" lon="-1.01866">
        <ele>64.604</ele>
        <time>2021-04-27T18:08:22Z</time>
      </trkpt>
      <trkpt lat="43.34808" lon="-1.01932">
        <ele>62.614</ele>
        <time>2021-04-27T18:08:42Z</time>
      </trkpt>
      <trkpt lat="43.34787" lon="-1.0199">
        <ele>59.408</ele>
        <time>2021-04-27T18:09:02Z</time>
      </trkpt>
      <trkpt lat="43.34772" lon="-1.02024">
        <ele>57.162</ele>
        <time>2021-04-27T18:09:22Z</time>
      </trkpt>
      <trkpt lat="43.34758" lon="-1.02209">
        <ele>50.196</ele>
        <time>2021-04-27T18:09:42Z</time>
      </trkpt>
      <trkpt lat="43.34728" lon="-1.02265">
        <ele>49.952</ele>
        <time>2021-04-27T18:10:02Z</time>
      </trkpt>
      <trkpt lat="43.34708" lon="-1.02342">
        <ele>50.395</ele>
        <time>2021-04-27T18:10:22Z</time>
      </trkpt>
      <trkpt lat="43.34702" lon="-1.02383">
        <ele>49.478</ele>
        <time>2021-04-27T18:10:42Z</time>
      </trkpt>
      <trkpt lat="43.3438" lon="-1.02529">
        <ele>46.91</ele>
        <time>2021-04-27T18:11:02Z</time>
      </trkpt>
      <trkpt lat="43.34168" lon="-1.02629">
        <ele>40.628</ele>
        <time>2021-04-27T18:11:22Z</time>
      </trkpt>
      <trkpt lat="43.33956" lon="-1.0278">
        <ele>40.473</ele>
        <time>2021-04-27T18:11:42Z</time>
      </trkpt>
      <trkpt lat="43.33592" lon="-1.03059">
        <ele>41.089</ele>
        <time>2021-04-27T18:12:02Z</time>
      </trkpt>
      <trkpt lat="43.33578" lon="-1.03005">
        <ele>43.006</ele>
        <time>2021-04-27T18:12:22Z</time>
      </trkpt>
      <trkpt lat="43.33559" lon="-1.02964">
        <ele>43.626</ele>
        <time>2021-04-27T18:12:42Z</time>
      </trkpt>
      <trkpt lat="43.33534" lon="-1.02936">
        <ele>43.908</ele>
        <time>2021-04-27T18:13:02Z</time>
      </trkpt>
      <trkpt lat="43.33509" lon="-1.02917">
        <ele>43.915</ele>
        <time>2021-04-27T18:13:22Z</time>
      </trkpt>
      <trkpt lat="43.33491" lon="-1.02891">
        <ele>43.029</ele>
        <time>2021-04-27T18:13:42Z</time>
      </trkpt>
      <trkpt lat="43.33336" lon="-1.03016">
        <ele>45.675</ele>
        <time>2021-04-27T18:14:02Z</time>
      </trkpt>
      <trkpt lat="43.33191" lon="-1.03121">
        <ele>49.238</ele>
        <time>2021-04-27T18:14:22Z</time>
      </trkpt>
      <trkpt lat="43.33075" lon="-1.03119">
        <ele>49.681</ele>
        <time>2021-04-27T18:14:42Z</time>
      </trkpt>
      <trkpt lat="43.33046" lon="-1.03125">
        <ele>49.673</ele>
        <time>2021-04-27T18:15:02Z</time>
      </trkpt>
      <trkpt lat="43.32983" lon="-1.03147">
        <ele>49.671</ele>
        <time>2021-04-27T18:15:22Z</time>
      </trkpt>
      <trkpt lat="43.32943" lon="-1.03153">
        <ele>46.946</ele>
        <time>2021-04-27T18:15:42Z</time>
      </trkpt>
      <trkpt lat="43.32849" lon="-1.03185">
        <ele>48.055</ele>
        <time>2021-04-27T18:16:02Z</time>
      </trkpt>
      <trkpt lat="43.32776" lon="-1.03204">
        <ele>49.307</ele>
        <time>2021-04-27T18:16:22Z</time>
      </trkpt>
      <trkpt lat="43.32737" lon="-1.03222">
        <ele>49.117</ele>
        <time>2021-04-27T18:16:42Z</time>
      </trkpt>
      <trkpt lat="43.32716" lon="-1.03245">
        <ele>48.708</ele>
        <time>2021-04-27T18:17:02Z</time>
      </trkpt>
      <trkpt lat="43.32668" lon="-1.03318">
        <ele>51.162</ele>
        <time>2021-04-27T18:17:22Z</time>
      </trkpt>
      <trkpt lat="43.32638" lon="-1.0335">
        <ele>51.776</ele>
        <time>2021-04-27T18:17:42Z</time>
      </trkpt>
      <trkpt lat="43.32595" lon="-1.03383">
        <ele>51.982</ele>
        <time>2021-04-27T18:18:02Z</time>
      </trkpt>
      <trkpt lat="43.32465" lon="-1.0343">
        <ele>55.085</ele>
        <time>2021-04-27T18:18:22Z</time>
      </trkpt>
      <trkpt lat="43.3239" lon="-1.03468">
        <ele>56.398</ele>
        <time>2021-04-27T18:18:42Z</time>
      </trkpt>
      <trkpt lat="43.32364" lon="-1.03395">
        <ele>56.39</ele>
        <time>2021-04-27T18:19:02Z</time>
      </trkpt>
      <trkpt lat="43.32304" lon="-1.03247">
        <ele>54.368</ele>
        <time>2021-04-27T18:19:22Z</time>
      </trkpt>
      <trkpt lat="43.32289" lon="-1.03267">
        <ele>54.723</ele>
        <time>2021-04-27T18:19:42Z</time>
      </trkpt>
      <trkpt lat="43.3227" lon="-1.03273">
        <ele>54.937</ele>
        <time>2021-04-27T18:20:02Z</time>
      </trkpt>
      <trkpt lat="43.32245" lon="-1.03275">
        <ele>55.049</ele>
        <time>2021-04-27T18:20:22Z</time>
      </trkpt>
      <trkpt lat="43.32145" lon="-1.0325">
        <ele>54.713</ele>
        <time>2021-04-27T18:20:42Z</time>
      </trkpt>
      <trkpt lat="43.32062" lon="-1.03222">
        <ele>54.408</ele>
        <time>2021-04-27T18:21:02Z</time>
      </trkpt>
      <trkpt lat="43.32044" lon="-1.03222">
        <ele>54.82</ele>
        <time>2021-04-27T18:21:22Z</time>
      </trkpt>
      <trkpt lat="43.32031" lon="-1.03224">
        <ele>55.174</ele>
        <time>2021-04-27T18:21:42Z</time>
      </trkpt>
      <trkpt lat="43.32003" lon="-1.03243">
        <ele>55.94</ele>
        <time>2021-04-27T18:22:02Z</time>
      </trkpt>
      <trkpt lat="43.31983" lon="-1.03252">
        <ele>56.973</ele>
        <time>2021-04-27T18:22:22Z</time>
      </trkpt>
      <trkpt lat="43.31962" lon="-1.03258">
        <ele>57.996</ele>
        <time>2021-04-27T18:22:42Z</time>
      </trkpt>
      <trkpt lat="43.31944" lon="-1.03256">
        <ele>58.828</ele>
        <time>2021-04-27T18:23:02Z</time>
      </trkpt>
      <trkpt lat="43.3193" lon="-1.03247">
        <ele>59.386</ele>
        <time>2021-04-27T18:23:22Z</time>
      </trkpt>
      <trkpt lat="43.31914" lon="-1.03183">
        <ele>58.561</ele>
        <time>2021-04-27T18:23:42Z</time>
      </trkpt>
      <trkpt lat="43.31905" lon="-1.03153">
        <ele>58.421</ele>
        <time>2021-04-27T18:24:02Z</time>
      </trkpt>
      <trkpt lat="43.31894" lon="-1.03138">
        <ele>58.941</ele>
        <time>2021-04-27T18:24:22Z</time>
      </trkpt>
      <trkpt lat="43.3188" lon="-1.03129">
        <ele>59.505</ele>
        <time>2021-04-27T18:24:42Z</time>
      </trkpt>
      <trkpt lat="43.31859" lon="-1.03134">
        <ele>60.608</ele>
        <time>2021-04-27T18:25:02Z</time>
      </trkpt>
      <trkpt lat="43.31816" lon="-1.03149">
        <ele>63.179</ele>
        <time>2021-04-27T18:25:22Z</time>
      </trkpt>
      <trkpt lat="43.31756" lon="-1.03185">
        <ele>67.843</ele>
        <time>2021-04-27T18:25:42Z</time>
      </trkpt>
      <trkpt lat="43.31748" lon="-1.03138">
        <ele>67.179</ele>
        <time>2021-04-27T18:26:02Z</time>
      </trkpt>
      <trkpt lat="43.31741" lon="-1.03106">
        <ele>66.772</ele>
        <time>2021-04-27T18:26:22Z</time>
      </trkpt>
      <trkpt lat="43.31716" lon="-1.03039">
        <ele>68.075</ele>
        <time>2021-04-27T18:26:42Z</time>
      </trkpt>
      <trkpt lat="43.31683" lon="-1.02938">
        <ele>69.047</ele>
        <time>2021-04-27T18:27:02Z</time>
      </trkpt>
      <trkpt lat="43.31455" lon="-1.03031">
        <ele>121.945</ele>
        <time>2021-04-27T18:27:22Z</time>
      </trkpt>
      <trkpt lat="43.31413" lon="-1.03044">
        <ele>129.16</ele>
        <time>2021-04-27T18:27:42Z</time>
      </trkpt>
      <trkpt lat="43.31341" lon="-1.03054">
        <ele>133.514</ele>
        <time>2021-04-27T18:28:02Z</time>
      </trkpt>
      <trkpt lat="43.31313" lon="-1.03063">
        <ele>135.854</ele>
        <time>2021-04-27T18:28:22Z</time>
      </trkpt>
      <trkpt lat="43.31199" lon="-1.03082">
        <ele>148.409</ele>
        <time>2021-04-27T18:28:42Z</time>
      </trkpt>
      <trkpt lat="43.31165" lon="-1.03091">
        <ele>151.708</ele>
        <time>2021-04-27T18:29:02Z</time>
      </trkpt>
      <trkpt lat="43.31136" lon="-1.03108">
        <ele>149.018</ele>
        <time>2021-04-27T18:29:22Z</time>
      </trkpt>
      <trkpt lat="43.31115" lon="-1.03134">
        <ele>149.052</ele>
        <time>2021-04-27T18:29:42Z</time>
      </trkpt>
      <trkpt lat="43.31101" lon="-1.03144">
        <ele>149.558</ele>
        <time>2021-04-27T18:30:02Z</time>
      </trkpt>
      <trkpt lat="43.31087" lon="-1.03149">
        <ele>149.741</ele>
        <time>2021-04-27T18:30:22Z</time>
      </trkpt>
      <trkpt lat="43.31091" lon="-1.03172">
        <ele>152.344</ele>
        <time>2021-04-27T18:30:42Z</time>
      </trkpt>
      <trkpt lat="43.31091" lon="-1.03189">
        <ele>153.726</ele>
        <time>2021-04-27T18:31:02Z</time>
      </trkpt>
      <trkpt lat="43.31079" lon="-1.03239">
        <ele>159.974</ele>
        <time>2021-04-27T18:31:22Z</time>
      </trkpt>
      <trkpt lat="43.3108" lon="-1.03277">
        <ele>161.829</ele>
        <time>2021-04-27T18:31:42Z</time>
      </trkpt>
      <trkpt lat="43.31102" lon="-1.03368">
        <ele>159.664</ele>
        <time>2021-04-27T18:32:02Z</time>
      </trkpt>
      <trkpt lat="43.3111" lon="-1.03413">
        <ele>160.706</ele>
        <time>2021-04-27T18:32:22Z</time>
      </trkpt>
      <trkpt lat="43.31122" lon="-1.03554">
        <ele>162.116</ele>
        <time>2021-04-27T18:32:42Z</time>
      </trkpt>
      <trkpt lat="43.31122" lon="-1.03601">
        <ele>161.608</ele>
        <time>2021-04-27T18:33:02Z</time>
      </trkpt>
      <trkpt lat="43.31113" lon="-1.03644">
        <ele>160.323</ele>
        <time>2021-04-27T18:33:22Z</time>
      </trkpt>
      <trkpt lat="43.31032" lon="-1.03586">
        <ele>174.097</ele>
        <time>2021-04-27T18:33:42Z</time>
      </trkpt>
      <trkpt lat="43.3101" lon="-1.03561">
        <ele>179.783</ele>
        <time>2021-04-27T18:34:02Z</time>
      </trkpt>
      <trkpt lat="43.30949" lon="-1.03451">
        <ele>191.886</ele>
        <time>2021-04-27T18:34:22Z</time>
      </trkpt>
      <trkpt lat="43.30891" lon="-1.03389">
        <ele>197.529</ele>
        <time>2021-04-27T18:34:42Z</time>
      </trkpt>
      <trkpt lat="43.30834" lon="-1.03342">
        <ele>205.311</ele>
        <time>2021-04-27T18:35:02Z</time>
      </trkpt>
      <trkpt lat="43.30823" lon="-1.03312">
        <ele>208.619</ele>
        <time>2021-04-27T18:35:22Z</time>
      </trkpt>
      <trkpt lat="43.30807" lon="-1.0329">
        <ele>211.294</ele>
        <time>2021-04-27T18:35:42Z</time>
      </trkpt>
      <trkpt lat="43.30791" lon="-1.03258">
        <ele>216.583</ele>
        <time>2021-04-27T18:36:02Z</time>
      </trkpt>
      <trkpt lat="43.30751" lon="-1.03153">
        <ele>233.225</ele>
        <time>2021-04-27T18:36:22Z</time>
      </trkpt>
      <trkpt lat="43.30731" lon="-1.03112">
        <ele>240.117</ele>
        <time>2021-04-27T18:36:42Z</time>
      </trkpt>
      <trkpt lat="43.30715" lon="-1.03095">
        <ele>245.408</ele>
        <time>2021-04-27T18:37:02Z</time>
      </trkpt>
      <trkpt lat="43.30696" lon="-1.03097">
        <ele>250.465</ele>
        <time>2021-04-27T18:37:22Z</time>
      </trkpt>
      <trkpt lat="43.30643" lon="-1.03134">
        <ele>255.099</ele>
        <time>2021-04-27T18:37:42Z</time>
      </trkpt>
      <trkpt lat="43.30587" lon="-1.03104">
        <ele>259.525</ele>
        <time>2021-04-27T18:38:02Z</time>
      </trkpt>
      <trkpt lat="43.30565" lon="-1.03084">
        <ele>261.788</ele>
        <time>2021-04-27T18:38:22Z</time>
      </trkpt>
      <trkpt lat="43.30367" lon="-1.03273">
        <ele>220.141</ele>
        <time>2021-04-27T18:38:42Z</time>
      </trkpt>
      <trkpt lat="43.3042" lon="-1.03449">
        <ele>203.313</ele>
        <time>2021-04-27T18:39:02Z</time>
      </trkpt>
      <trkpt lat="43.30448" lon="-1.03511">
        <ele>194.541</ele>
        <time>2021-04-27T18:39:22Z</time>
      </trkpt>
      <trkpt lat="43.30464" lon="-1.03526">
        <ele>191.676</ele>
        <time>2021-04-27T18:39:42Z</time>
      </trkpt>
      <trkpt lat="43.30485" lon="-1.03533">
        <ele>189.239</ele>
        <time>2021-04-27T18:40:02Z</time>
      </trkpt>
      <trkpt lat="43.30499" lon="-1.03544">
        <ele>186.801</ele>
        <time>2021-04-27T18:40:22Z</time>
      </trkpt>
      <trkpt lat="43.30495" lon="-1.03574">
        <ele>183.621</ele>
        <time>2021-04-27T18:40:42Z</time>
      </trkpt>
      <trkpt lat="43.30496" lon="-1.03591">
        <ele>181.308</ele>
        <time>2021-04-27T18:41:02Z</time>
      </trkpt>
      <trkpt lat="43.30506" lon="-1.03614">
        <ele>177.12</ele>
        <time>2021-04-27T18:41:22Z</time>
      </trkpt>
      <trkpt lat="43.30421" lon="-1.03604">
        <ele>185.944</ele>
        <time>2021-04-27T18:41:42Z</time>
      </trkpt>
      <trkpt lat="43.30357" lon="-1.03589">
        <ele>189.11</ele>
        <time>2021-04-27T18:42:02Z</time>
      </trkpt>
      <trkpt lat="43.3032" lon="-1.03574">
        <ele>189.513</ele>
        <time>2021-04-27T18:42:22Z</time>
      </trkpt>
      <trkpt lat="43.30267" lon="-1.03533">
        <ele>187.926</ele>
        <time>2021-04-27T18:42:42Z</time>
      </trkpt>
      <trkpt lat="43.30128" lon="-1.03483">
        <ele>177.728</ele>
        <time>2021-04-27T18:43:02Z</time>
      </trkpt>
      <trkpt lat="43.30045" lon="-1.03492">
        <ele>168.276</ele>
        <time>2021-04-27T18:43:22Z</time>
      </trkpt>
      <trkpt lat="43.30008" lon="-1.03501">
        <ele>163.851</ele>
        <time>2021-04-27T18:43:42Z</time>
      </trkpt>
      <trkpt lat="43.2997" lon="-1.03481">
        <ele>159.043</ele>
        <time>2021-04-27T18:44:02Z</time>
      </trkpt>
      <trkpt lat="43.29951" lon="-1.03441">
        <ele>156.664</ele>
        <time>2021-04-27T18:44:22Z</time>
      </trkpt>
      <trkpt lat="43.29897" lon="-1.03477">
        <ele>149.61</ele>
        <time>2021-04-27T18:44:42Z</time>
      </trkpt>
    </trkseg>
  </trk>
</gpx>